ECMWFNIL_850_thetae_000.txt.gz
Theta_e
320 319 319 319 319 318 318 322 324 325 326 326 324 323 325 327 326 325 324 323 322 320 319 319 321 322 322 323 325 325 327 328 329 328 327 327 328 328 327 325 323 324
319 319 318 316 316 316 317 320 322 323 324 321 318 316 316 318 319 318 319 323 328 327 322 320 321 322 323 325 327 329 330 332 332 332 330 329 328 329 329 328 325 324
319 319 317 315 315 316 318 320 321 322 321 317 314 313 314 315 316 317 319 324 329 328 324 322 322 324 324 326 329 330 331 332 332 333 333 331 330 330 330 330 328 325
319 318 317 316 316 317 319 321 321 321 320 318 316 315 316 318 319 319 321 324 325 325 324 323 323 323 324 326 328 329 330 331 332 332 332 332 332 331 331 331 329 326
320 319 318 316 316 317 319 320 319 320 321 322 320 319 319 322 324 323 322 321 322 323 325 324 323 323 322 322 324 325 326 327 329 330 331 331 332 331 331 331 330 328
321 321 320 318 317 317 318 318 318 319 320 322 322 323 324 326 327 326 323 323 323 325 326 324 322 321 321 321 321 323 324 325 327 329 329 330 331 331 331 331 330 330
322 323 322 320 319 318 318 318 318 318 320 322 323 325 327 327 327 327 326 326 326 326 325 323 323 323 324 323 323 324 324 325 328 330 330 329 330 330 331 331 332 332
322 323 323 321 320 318 318 318 318 319 320 322 323 327 329 328 329 328 327 327 327 327 326 325 324 326 326 326 326 326 326 327 329 330 329 329 329 330 331 331 331 330
324 325 324 322 320 318 319 319 318 319 321 321 324 327 330 331 330 329 328 327 328 327 326 325 325 326 326 327 327 327 328 329 329 328 328 328 329 331 331 330 329 328
329 328 326 322 319 318 319 320 320 320 322 323 324 327 328 329 329 328 327 326 326 325 324 325 327 327 327 327 327 328 328 328 327 327 327 328 328 329 329 329 329 328
330 327 326 323 319 319 321 321 320 322 325 325 326 327 327 327 327 327 325 325 325 325 325 327 329 328 328 327 325 326 326 326 326 327 328 327 325 325 325 326 326 327
329 324 326 323 318 319 321 321 320 322 324 326 327 328 329 328 328 326 326 326 326 325 327 329 329 328 327 325 323 323 325 326 327 327 328 326 323 322 322 323 324 323
331 325 327 323 316 319 319 318 319 320 323 327 330 332 331 328 326 325 326 326 325 325 328 330 330 329 327 324 323 324 325 326 326 325 325 324 322 322 321 322 322 321
336 331 330 324 319 318 317 316 318 319 322 328 332 332 328 324 324 326 326 325 325 326 330 332 331 329 327 325 324 325 326 326 326 324 324 323 323 324 324 324 324 323
335 332 330 327 324 321 317 317 318 318 323 329 329 327 324 323 326 327 326 326 328 330 331 333 331 327 325 324 324 325 326 327 326 325 325 325 325 326 325 326 326 325
331 331 331 330 328 323 318 318 319 319 323 325 324 322 322 324 324 324 324 325 328 330 331 332 329 326 324 323 324 325 327 327 327 326 326 326 326 327 326 326 327 326
331 332 334 332 328 323 319 320 320 321 322 322 322 322 323 323 322 322 322 325 327 330 331 330 327 325 325 325 325 327 328 328 327 327 326 326 327 326 325 325 325 325
330 332 337 334 328 324 321 320 321 322 322 323 323 323 324 324 323 323 324 326 329 331 331 329 326 326 326 326 326 327 328 328 327 327 327 326 326 325 323 322 323 324
331 334 339 334 328 327 323 322 323 323 323 324 324 324 325 325 325 325 328 330 331 332 330 327 326 326 326 326 326 326 327 327 327 326 326 325 325 324 322 321 322 323
333 336 339 333 331 331 328 325 325 324 323 324 325 325 325 326 326 328 329 330 331 331 331 329 329 328 327 327 326 326 326 327 327 326 325 325 325 323 321 321 323 323
335 338 338 334 334 334 332 329 327 324 324 325 325 325 325 326 327 328 329 330 332 332 332 332 331 329 327 327 326 326 326 327 326 326 325 323 322 322 321 321 322 323
336 338 338 337 336 335 335 333 329 325 323 324 324 325 325 326 327 329 330 332 333 332 332 332 332 330 328 327 327 326 326 326 325 326 325 323 320 320 320 321 321 321
337 338 338 339 338 336 336 335 330 324 323 324 325 325 326 328 330 331 332 332 331 330 330 332 333 330 328 327 326 326 326 325 325 326 325 321 318 318 319 320 321 321
336 335 335 339 340 337 335 334 330 325 324 325 326 327 329 332 332 332 332 330 328 328 330 332 332 330 328 327 326 326 325 325 325 325 323 320 318 317 318 320 320 320
333 327 332 339 340 336 334 332 329 326 324 325 328 330 332 333 333 333 332 331 329 329 331 332 332 329 327 327 326 326 325 325 324 324 323 321 319 317 317 318 318 318
331 326 332 338 337 334 331 330 328 327 326 327 329 332 334 335 334 332 330 329 329 329 330 331 330 328 327 327 326 326 325 324 324 324 323 321 319 318 318 317 316 316

ECMWFNIL_850_thetae_003.txt.gz
Theta_e
330 328 326 323 319 317 317 315 315 316 317 318 319 320 322 322 319 316 316 317 317 317 317 318 319 321 322 322 323 323 323 325 328 329 329 329 329 328 328 327 326 325
328 327 324 321 318 316 315 315 317 317 317 319 321 322 323 321 318 316 316 315 315 317 318 319 320 321 321 322 323 323 324 326 328 330 331 331 331 331 330 330 329 327
327 326 322 318 317 315 315 316 317 318 319 320 321 322 321 318 317 317 316 315 317 322 324 324 322 321 322 322 323 323 324 325 328 330 331 331 331 331 331 331 330 329
328 324 320 318 316 315 316 316 317 318 318 318 319 318 317 315 314 315 316 317 321 326 329 327 325 324 323 322 322 323 323 324 325 327 328 328 328 328 328 329 330 330
331 323 319 318 317 317 317 316 317 318 317 317 317 315 314 314 316 318 320 321 323 325 327 327 327 327 325 322 320 320 321 322 323 324 324 325 325 326 327 329 329 329
335 325 319 318 318 318 319 317 318 318 317 316 316 316 317 318 320 323 324 325 325 325 325 327 328 327 324 323 323 322 321 321 322 322 323 325 325 325 327 328 329 329
333 325 319 319 320 320 319 318 319 318 317 317 317 319 320 321 323 325 326 326 326 326 327 327 326 325 325 326 326 326 325 324 324 325 326 328 328 327 327 328 329 330
329 326 320 320 322 321 318 317 319 318 317 318 319 320 322 323 324 325 325 326 325 326 326 326 325 325 325 326 326 326 326 326 327 327 327 328 327 326 326 327 329 330
330 326 321 322 323 320 317 316 318 318 318 319 320 321 322 323 323 324 326 326 325 325 326 325 324 324 324 326 326 326 326 326 325 325 325 325 325 326 327 326 325 326
332 325 321 324 322 319 318 317 317 318 319 320 321 322 322 322 322 324 326 326 325 325 325 324 324 325 327 328 327 326 325 324 324 324 325 325 326 327 326 324 322 321
336 325 321 323 321 319 320 317 316 318 320 320 322 321 321 321 322 324 325 325 324 324 324 323 325 327 328 327 327 325 323 322 323 325 326 325 325 324 323 322 321 321
340 327 319 322 322 323 324 319 316 318 319 321 322 321 321 321 322 324 324 325 324 323 322 322 324 326 327 327 327 325 322 322 324 325 324 323 322 322 322 323 323 323
342 330 319 321 325 326 324 318 316 318 319 321 322 321 320 321 322 324 324 325 324 321 320 320 322 325 327 329 327 323 322 323 323 322 321 321 322 324 324 324 325 324
344 334 321 321 326 325 321 316 317 318 319 321 321 319 319 320 321 323 324 324 321 319 320 321 323 326 328 329 326 322 321 322 322 321 322 323 324 325 325 326 325 326
344 336 324 322 326 324 318 316 317 318 319 320 320 318 319 319 320 323 325 323 320 319 321 324 325 326 326 328 326 323 322 321 321 322 323 324 325 326 327 326 326 326
343 337 326 324 327 322 317 317 318 317 318 319 318 317 318 319 320 324 325 322 320 320 324 326 326 325 325 327 327 325 323 322 323 324 325 326 327 327 327 326 327 326
343 337 328 325 328 323 318 317 317 317 318 318 317 318 318 319 321 324 324 321 320 321 324 327 327 326 326 327 327 326 325 324 324 325 325 327 327 327 326 326 326 325
343 337 330 328 329 326 321 319 318 318 318 318 317 318 319 320 322 323 323 321 320 322 324 327 328 328 329 329 328 326 325 325 325 325 326 326 326 326 326 326 326 325
340 338 336 332 331 328 324 322 320 318 319 319 319 319 319 321 323 323 323 322 323 325 326 327 327 328 330 331 330 329 327 326 326 326 326 326 326 326 326 326 326 325
339 339 337 333 330 328 327 326 323 320 320 320 320 320 321 322 324 325 324 324 325 327 327 328 328 329 329 330 332 332 330 328 327 326 326 326 326 326 326 325 325 324
340 338 337 333 330 329 331 331 327 322 320 321 321 321 321 322 324 325 325 325 326 328 328 329 330 331 330 330 330 332 332 331 329 327 326 326 325 326 326 325 324 322
341 340 337 333 330 331 333 334 331 325 322 321 321 321 322 323 324 325 326 326 327 328 329 331 333 332 330 329 330 331 333 333 330 327 326 326 325 325 326 325 322 320
343 341 336 332 331 330 332 334 332 329 327 324 324 323 324 324 324 326 326 327 328 330 332 333 333 330 328 329 331 332 331 331 328 326 326 325 325 325 325 324 321 319
342 339 336 333 329 327 331 334 332 331 332 331 329 327 326 326 327 328 328 328 330 332 333 332 332 330 328 329 331 331 330 328 327 326 326 325 325 325 325 323 322 320
343 339 336 332 326 325 332 335 333 335 337 336 334 331 330 330 331 331 330 330 332 333 333 331 330 329 328 328 330 330 328 327 326 326 325 325 325 324 324 323 322 321
342 338 334 330 326 326 331 335 337 340 340 339 338 335 333 334 335 334 334 334 335 334 332 330 328 327 327 329 329 329 327 326 326 326 325 325 324 323 323 322 321 320

ECMWFNIL_850_thetae_006.txt.gz
Theta_e
337 339 339 340 339 336 331 325 321 321 324 327 329 327 324 322 323 322 319 317 317 319 320 319 318 319 320 321 323 323 323 324 326 329 331 330 329 329 329 329 328 327
334 337 339 341 341 336 331 325 319 318 319 322 323 322 322 322 322 320 317 316 316 316 317 317 317 318 319 321 321 322 322 322 324 328 329 329 328 328 329 329 328 328
332 335 338 339 338 335 332 325 320 318 317 318 319 319 321 322 321 319 316 315 315 315 315 316 317 318 319 320 321 321 321 321 322 325 326 326 326 326 327 328 328 328
330 332 334 336 335 332 329 323 318 317 317 317 317 318 319 320 319 317 315 315 315 315 316 317 317 318 319 320 321 321 321 321 321 322 322 324 324 325 326 327 326 327
326 329 331 334 335 333 328 322 317 317 316 316 317 318 318 318 317 315 314 314 315 316 317 318 319 321 322 323 323 321 320 319 320 320 321 322 323 324 324 325 325 325
325 326 329 332 333 332 328 321 317 316 316 316 317 317 317 316 315 315 314 315 316 317 319 321 323 325 325 325 324 322 320 320 320 320 320 321 322 323 323 324 324 325
326 326 329 330 330 330 329 321 316 315 316 317 317 316 315 315 315 315 315 317 319 320 322 324 325 326 326 325 324 323 323 323 323 322 323 323 324 324 324 324 325 326
329 328 329 327 326 328 328 321 316 316 316 316 316 315 315 316 316 316 318 320 322 323 325 326 326 326 325 324 324 324 325 325 324 325 325 326 325 325 325 325 326 326
331 332 331 327 323 323 323 319 316 316 316 316 316 316 315 316 318 319 321 323 324 325 327 327 326 325 325 324 324 324 324 324 325 325 325 325 325 325 325 326 326 325
332 332 332 330 326 323 320 319 317 315 315 317 316 315 316 317 319 320 323 325 325 326 327 326 325 323 322 323 323 323 324 324 325 324 324 323 324 325 325 325 323 322
333 333 334 331 328 328 323 318 317 315 316 319 318 316 316 317 318 320 324 326 326 326 327 326 325 323 322 322 322 323 325 325 325 323 322 323 325 325 323 322 322 323
333 335 335 330 333 337 330 320 318 317 318 321 320 317 316 318 319 321 324 325 325 326 326 327 326 325 323 323 322 323 325 326 324 322 322 324 324 323 321 322 323 324
332 334 336 338 345 346 333 321 319 319 320 320 318 317 317 318 319 321 323 324 324 325 326 326 325 324 323 321 321 322 325 325 323 321 323 324 323 322 322 323 324 325
332 338 343 345 347 342 329 321 321 320 320 319 318 317 317 319 320 321 323 324 324 325 326 325 323 322 321 320 320 322 324 323 321 321 322 322 322 322 323 324 325 326
339 345 347 347 344 336 326 322 322 322 321 321 321 320 318 319 321 322 324 324 324 325 326 323 321 320 320 320 320 322 322 321 321 321 321 321 322 323 324 325 326 327
344 343 345 347 344 336 328 324 323 325 323 320 321 322 320 321 322 323 325 324 324 325 324 321 320 320 321 320 321 322 322 322 322 323 322 323 323 324 325 325 326 326
346 344 345 347 345 340 332 326 325 325 322 321 324 323 321 322 323 323 323 322 323 324 322 320 320 321 321 321 322 323 324 324 324 324 325 325 325 325 325 326 326 326
349 347 347 345 345 344 337 329 325 323 321 324 329 329 325 323 323 323 322 322 322 321 320 319 319 321 323 324 323 324 325 326 327 327 327 327 326 327 327 326 326 326
350 349 348 344 342 342 337 329 325 322 322 325 326 326 327 325 323 322 322 321 321 320 319 319 320 321 324 325 325 326 327 329 329 330 330 330 329 329 328 327 327 326
351 349 347 342 338 335 331 327 322 321 325 324 319 320 325 325 322 322 321 320 320 320 320 321 322 323 325 327 328 329 330 331 331 332 332 332 332 330 328 328 327 326
351 348 343 340 337 334 330 326 322 323 324 322 319 320 321 321 321 321 321 320 320 321 321 323 324 325 327 328 330 332 333 333 332 331 330 331 332 331 328 327 326 325
350 348 345 341 338 334 331 326 324 325 324 322 322 321 319 320 322 322 322 321 321 322 323 324 325 327 328 330 331 333 333 331 330 330 331 331 332 330 328 326 325 325
351 349 348 345 339 334 332 329 327 325 324 323 323 322 320 321 322 322 324 324 322 323 324 325 326 327 329 331 331 332 331 330 329 330 331 331 329 327 326 325 325 325
350 349 348 346 342 336 331 329 328 325 323 322 323 322 321 323 324 328 331 330 325 324 325 326 327 328 329 330 330 331 330 329 329 330 331 329 327 326 325 325 325 325
348 348 346 344 342 337 332 329 329 327 324 323 323 323 324 327 330 334 336 335 331 329 328 327 327 327 328 329 329 330 329 328 330 330 329 328 326 326 326 325 325 325
346 346 345 342 339 334 332 331 330 327 325 323 324 326 329 330 333 336 338 338 337 335 334 333 332 332 331 330 330 330 328 328 330 329 327 326 325 325 325 325 324 324

ECMWFNIL_850_thetae_009.txt.gz
Theta_e
342 342 343 344 344 344 344 344 345 344 341 335 331 328 327 328 329 329 328 325 323 323 325 327 325 321 319 320 320 322 324 325 324 325 326 326 326 326 325 325 325 325
341 340 340 342 342 342 341 342 343 342 338 332 327 326 327 327 326 325 324 324 324 322 322 323 322 320 318 318 319 321 323 324 324 325 327 328 327 327 326 326 326 327
339 338 339 340 339 339 340 342 343 342 337 330 326 326 326 325 322 321 321 321 321 320 319 320 319 318 318 318 319 320 322 324 324 325 327 327 327 327 327 327 326 326
337 337 338 337 336 336 338 342 344 343 335 327 324 323 323 321 320 320 321 320 319 318 317 317 317 317 318 319 320 320 321 323 323 324 325 325 326 325 325 325 325 325
336 336 335 335 334 334 337 342 346 344 335 326 322 321 319 318 318 320 320 319 319 317 316 315 316 316 318 319 320 320 321 322 322 323 322 322 323 323 323 324 324 324
335 335 335 333 332 335 339 342 344 344 338 328 322 320 318 316 317 318 319 319 318 317 316 315 315 317 318 320 321 322 322 321 321 322 321 320 321 321 322 323 323 323
333 334 334 333 333 337 340 343 346 346 339 330 324 320 318 317 317 317 318 318 317 315 315 315 316 318 320 322 324 324 323 321 321 322 321 320 321 322 322 323 323 324
332 334 334 334 334 338 343 346 347 343 332 324 322 320 318 317 317 318 319 317 316 315 314 315 317 319 322 324 326 325 323 322 322 322 322 322 323 324 324 324 324 325
332 332 334 337 339 344 348 348 346 340 328 320 320 319 316 316 316 318 319 317 315 314 315 316 318 320 323 326 326 325 324 322 322 322 323 324 325 324 325 325 325 325
334 335 338 340 342 344 347 347 347 346 336 323 319 318 316 316 316 317 318 317 315 315 317 318 319 321 323 325 325 325 323 321 322 323 324 325 325 324 324 325 326 325
341 344 342 338 337 338 342 346 347 348 342 327 319 319 318 315 316 317 317 317 316 317 319 320 320 321 323 324 324 323 322 321 322 323 324 325 324 323 323 325 325 323
348 349 342 333 332 333 337 343 345 347 345 332 320 319 318 315 316 317 317 317 317 319 320 320 320 321 322 323 323 322 321 321 322 323 325 325 323 322 323 323 323 321
350 348 340 331 328 329 332 336 340 345 344 331 323 321 317 317 320 318 317 317 318 319 320 320 321 321 322 323 323 323 322 321 322 324 325 324 322 322 323 322 321 321
351 348 344 336 328 328 331 333 334 341 340 329 323 323 318 318 323 321 319 319 319 319 320 321 322 322 323 324 324 323 322 321 321 322 324 324 322 322 322 322 322 322
353 352 351 347 339 332 331 335 337 341 341 330 323 323 319 318 322 322 320 320 320 320 321 322 323 323 323 324 323 322 322 321 320 322 324 324 323 322 322 322 322 323
355 354 353 351 347 338 330 333 338 343 345 338 326 322 320 318 320 323 321 320 321 322 321 322 323 323 323 323 322 322 322 322 321 322 324 324 323 323 323 322 323 324
356 356 354 352 348 342 334 331 332 336 344 345 334 324 322 320 321 323 321 318 321 323 322 322 323 324 325 324 322 323 323 321 322 323 324 325 324 324 324 324 324 325
356 355 356 351 345 342 340 336 331 328 335 345 342 328 322 323 323 323 321 319 323 325 324 324 324 324 327 326 323 323 323 322 322 323 325 325 325 325 325 326 327 328
356 355 354 351 346 343 343 342 339 333 330 337 340 329 322 324 324 322 321 322 325 324 324 326 326 325 328 327 324 322 323 323 324 325 326 327 327 328 330 330 331 332
356 355 353 354 352 350 345 342 343 340 333 334 336 330 327 328 325 321 323 324 322 320 323 326 325 324 327 329 326 324 323 324 327 328 329 330 331 332 332 331 332 332
356 355 355 355 354 352 348 345 344 343 338 337 335 331 331 329 325 322 324 324 319 317 320 322 319 323 329 331 329 327 324 325 328 330 331 332 332 332 331 330 331 332
354 354 354 354 353 352 350 347 344 343 341 337 333 332 331 327 324 323 324 324 321 318 319 319 320 327 331 331 330 329 328 328 329 330 331 332 332 330 329 330 331 331
353 353 353 353 352 351 350 349 345 342 340 336 333 332 328 324 323 323 324 327 326 321 318 319 322 326 328 328 331 332 331 330 331 331 332 332 331 329 329 330 330 328
351 351 352 352 351 349 348 347 343 339 337 335 333 330 326 324 325 324 323 324 324 321 319 320 323 326 328 330 334 335 333 332 333 332 332 331 330 329 329 330 329 327
349 349 350 349 348 347 346 343 340 337 336 335 332 330 327 326 324 322 321 322 322 321 319 320 323 326 328 332 335 334 332 332 333 333 332 331 330 329 329 329 327 326
347 348 348 348 347 346 345 342 339 337 335 334 332 328 326 324 322 320 320 322 322 321 320 323 328 330 331 333 335 335 333 332 333 333 332 330 330 329 328 327 326 326

ECMWFNIL_850_thetae_015.txt.gz
Theta_e
345 344 345 345 344 345 350 352 351 352 350 349 350 350 350 349 347 346 346 344 343 342 341 340 339 338 338 338 337 336 337 336 336 335 336 336 336 336 336 335 335 335
344 345 345 346 345 344 347 351 352 352 351 349 350 351 351 350 348 347 345 344 343 342 341 340 339 336 335 337 337 335 333 333 335 335 335 336 336 336 336 336 336 336
344 345 345 347 348 344 343 348 350 350 350 348 347 349 351 351 349 347 346 344 343 343 341 338 337 333 328 331 335 335 331 332 335 335 335 335 336 336 336 336 335 335
343 345 346 349 351 348 343 344 345 347 349 348 347 347 348 350 349 347 345 344 343 342 338 333 334 335 327 321 326 332 335 335 336 335 335 335 336 336 336 336 335 334
343 345 347 349 349 348 348 345 341 343 346 348 349 347 344 345 345 343 343 342 339 334 328 325 330 335 332 323 319 325 333 337 336 335 336 335 335 335 335 335 335 335
344 346 348 349 347 347 349 348 345 346 345 347 349 346 341 341 342 343 341 337 332 326 321 323 327 330 330 326 322 321 327 335 337 335 335 335 335 334 334 334 335 335
343 346 347 347 346 346 348 349 350 350 347 347 348 343 340 341 341 340 335 327 324 322 321 324 325 325 326 326 323 319 321 330 335 335 336 336 335 334 334 334 334 335
342 346 346 345 345 347 349 350 351 350 346 345 345 341 341 340 335 331 327 323 322 321 320 322 322 322 324 325 323 318 318 327 333 332 334 335 335 334 334 334 334 335
339 345 345 344 346 350 352 350 350 349 345 342 342 341 338 334 327 325 324 324 324 321 320 321 321 321 323 325 325 320 318 327 332 331 333 336 335 333 333 333 334 334
340 343 344 347 352 354 351 349 350 349 345 341 340 340 337 331 327 326 326 325 323 323 322 319 319 322 324 326 326 324 320 323 329 333 335 335 333 332 334 334 334 335
341 343 346 351 354 350 343 347 351 348 343 339 338 336 335 331 329 329 329 327 325 326 324 319 319 321 322 322 323 324 324 326 330 333 332 328 326 328 332 333 333 333
341 343 349 351 346 339 338 345 348 344 341 339 337 336 333 331 334 334 331 328 326 328 327 322 319 320 321 321 318 320 326 331 333 332 327 321 318 320 325 328 329 329
346 342 346 346 339 334 337 338 335 339 344 339 334 335 334 333 336 336 332 328 325 327 328 324 320 320 323 324 320 320 328 332 330 327 325 319 315 315 318 320 323 329
358 351 346 344 342 339 338 335 332 338 341 335 330 333 333 331 334 336 335 332 327 325 329 327 322 321 324 324 322 322 328 331 328 325 323 319 315 315 317 316 318 326
366 362 356 352 351 347 343 342 341 340 338 332 331 332 331 330 333 337 337 336 331 329 334 331 323 322 323 321 319 319 324 331 331 326 322 318 315 316 318 319 318 322
367 365 362 359 355 350 345 345 346 345 343 341 340 339 337 336 338 340 340 340 336 334 338 334 325 323 323 319 318 318 320 327 329 326 321 317 316 318 319 320 320 324
366 364 362 361 356 351 348 348 349 350 349 349 349 347 344 342 341 342 343 344 342 339 340 336 328 326 324 319 318 318 319 324 326 326 324 319 316 318 319 319 322 327
366 363 361 360 358 354 351 352 353 353 353 353 352 351 350 348 345 344 344 346 345 344 344 340 333 329 325 320 319 318 320 326 328 327 326 321 317 318 319 321 324 327
365 362 359 358 356 353 353 354 354 355 355 354 354 353 353 352 349 347 346 346 346 346 345 343 338 332 326 322 320 317 320 327 328 325 323 319 318 318 319 321 324 326
363 362 359 356 354 353 353 354 354 355 354 354 354 354 353 353 351 349 348 347 346 345 344 343 340 335 329 323 320 318 320 325 326 325 322 319 318 318 319 320 322 324
364 362 357 355 356 355 353 352 354 355 356 355 355 354 352 352 350 349 348 347 346 345 343 340 338 337 333 325 319 320 321 323 324 325 323 320 318 319 319 318 319 323
364 362 356 355 356 354 351 351 353 355 356 356 355 353 352 350 349 348 348 346 345 345 343 339 337 336 333 325 320 321 323 324 324 323 321 319 318 318 319 319 322 326
363 361 357 356 354 349 345 348 351 353 355 354 353 353 352 350 349 348 347 346 345 344 342 340 337 335 331 325 322 321 323 324 324 322 320 318 318 319 319 320 325 329
361 361 357 354 351 348 345 346 348 349 351 351 351 351 351 350 349 348 346 345 344 343 342 340 337 335 330 324 322 322 324 325 324 322 320 318 318 319 319 320 323 325
358 358 356 353 353 353 351 349 348 348 349 349 349 349 350 349 349 348 346 344 343 341 340 339 337 334 329 324 323 324 324 324 323 321 319 319 319 319 319 320 320 321
355 354 354 355 355 354 352 351 350 348 349 349 347 347 347 347 346 346 345 343 341 339 338 337 334 331 326 324 324 325 324 324 323 321 319 319 319 319 320 320 320 323

ECMWFNIL_850_thetae_018.txt.gz
Theta_e
344 345 343 344 345 345 350 351 347 344 345 345 344 347 347 343 343 347 347 346 344 342 341 339 336 335 332 328 328 333 335 336 336 335 335 335 332 333 336 335 335 335
345 345 344 344 344 344 347 348 346 344 344 347 347 348 346 343 344 347 346 343 342 342 339 336 336 333 327 324 323 324 328 329 332 336 336 333 332 335 335 335 335 334
346 345 345 344 344 343 344 345 347 349 348 348 350 349 346 345 346 347 345 343 340 339 337 335 336 332 326 323 320 320 321 321 324 332 336 333 332 334 335 335 336 336
347 345 345 343 343 343 342 342 345 350 352 352 351 349 346 346 347 346 346 344 341 338 336 335 335 332 327 322 320 319 319 318 318 325 333 335 333 333 334 335 337 337
347 347 345 343 343 343 342 341 342 347 351 352 350 349 346 345 346 346 346 345 342 339 336 335 333 331 329 324 319 319 319 317 319 321 329 335 335 332 332 334 335 335
348 348 346 343 343 343 341 341 342 344 347 348 349 349 347 345 345 345 346 345 343 341 336 334 332 330 330 327 322 319 317 318 321 322 326 331 332 331 332 333 333 334
349 350 348 344 342 343 342 343 343 343 343 344 347 348 346 345 345 344 344 344 344 342 337 333 331 327 329 331 326 320 316 319 324 325 326 329 330 331 333 334 334 334
351 352 350 346 342 342 344 345 344 342 340 338 340 343 344 344 344 343 343 343 342 342 339 334 330 326 328 331 329 323 319 321 324 327 329 332 331 331 331 333 333 333
354 356 351 345 342 343 343 344 345 343 341 338 337 338 340 340 341 340 340 341 341 340 339 336 331 326 326 329 328 325 322 323 322 324 330 334 334 333 332 331 329 328
354 358 354 346 342 342 340 340 343 343 341 340 338 338 339 338 337 338 338 340 340 339 339 338 332 326 324 326 326 323 323 325 322 320 325 330 331 331 332 328 324 324
353 355 353 346 343 341 337 338 342 344 343 339 337 339 339 337 337 338 338 339 340 339 339 337 335 329 324 325 325 322 322 325 323 319 320 323 325 327 326 324 323 324
354 351 348 345 343 342 339 339 343 348 347 341 335 336 338 337 338 338 338 339 340 340 338 337 336 332 326 325 325 322 321 324 323 319 318 319 324 326 323 320 322 324
352 345 343 343 342 343 343 343 345 348 350 345 337 334 336 337 338 339 338 340 342 341 340 340 339 335 329 326 325 322 321 322 322 320 319 321 325 326 323 320 320 322
351 342 340 342 343 345 345 345 346 347 349 348 343 339 338 338 340 341 340 341 343 344 343 342 341 337 331 328 326 324 323 323 323 321 322 324 325 324 323 321 319 320
355 350 346 343 344 347 346 344 344 345 348 349 347 344 343 344 346 347 346 345 346 346 345 344 343 339 335 331 328 325 323 323 324 324 325 324 322 321 321 319 316 318
359 358 356 350 347 347 346 345 344 344 348 349 348 347 348 349 351 352 352 351 350 349 347 346 344 342 339 335 331 327 324 323 322 323 326 324 321 320 320 317 315 316
360 360 360 357 352 349 348 349 349 348 349 351 351 351 352 352 353 354 354 353 352 350 348 347 345 343 343 338 335 331 326 323 323 325 328 328 323 320 319 316 315 317
361 361 362 361 358 355 354 354 354 354 352 353 353 353 352 353 353 353 353 353 352 351 349 349 347 345 344 341 337 334 329 326 329 332 331 328 325 322 320 318 318 319
361 362 363 364 363 361 359 358 356 355 355 355 355 355 354 354 354 354 353 352 351 351 350 350 349 347 346 343 340 338 332 329 333 337 334 330 326 324 322 321 321 321
361 364 365 366 365 364 362 360 357 356 356 356 357 357 356 357 356 354 354 353 351 351 350 350 349 348 346 344 343 340 334 331 335 338 334 329 326 325 323 323 323 322
364 366 366 367 366 364 363 361 359 358 358 357 357 357 357 357 355 354 354 353 352 351 350 349 349 348 347 345 344 342 336 331 332 331 326 324 326 327 326 324 324 324
367 368 369 368 366 364 363 362 360 359 357 356 357 357 357 356 355 354 353 352 352 351 350 349 348 348 347 346 344 343 337 330 326 324 322 323 325 326 325 324 324 323
369 369 368 367 365 364 363 361 359 356 356 356 356 356 356 355 354 353 353 351 350 349 349 349 348 348 348 346 344 342 337 330 324 322 322 324 325 323 323 324 324 323
369 369 368 366 364 362 360 358 356 354 354 354 353 352 353 353 353 353 352 352 350 348 348 348 348 348 347 345 343 341 337 332 327 322 321 322 323 323 324 324 324 325
369 367 365 362 361 361 358 355 352 350 348 345 342 343 344 347 351 353 352 351 350 348 348 347 347 347 346 343 342 340 338 335 329 323 320 320 322 324 325 325 325 325
366 363 359 358 359 359 355 350 343 337 335 331 334 335 332 336 349 353 351 350 349 348 347 346 345 345 344 342 340 339 338 333 326 322 320 322 324 325 325 325 325 323

ECMWFNIL_850_thetae_021.txt.gz
Theta_e
339 339 340 342 344 345 346 347 348 348 347 343 339 337 338 338 339 341 341 339 333 332 335 337 338 335 334 336 334 335 338 338 338 336 329 325 324 323 326 331 333 335
339 339 340 341 343 343 345 347 347 346 344 341 339 336 337 338 341 343 342 340 336 335 336 335 335 334 332 333 331 334 337 337 336 333 328 326 325 325 328 331 333 335
340 339 339 340 342 342 344 347 347 345 341 339 338 337 339 340 343 345 344 340 336 338 339 336 333 331 330 329 328 331 336 335 333 330 327 328 327 325 328 331 331 332
341 339 339 340 341 342 343 345 346 344 341 339 337 338 341 342 344 345 343 339 338 341 340 337 335 331 327 324 322 326 333 335 331 327 326 330 329 326 328 331 332 332
342 339 339 340 341 342 342 343 344 342 340 339 338 339 342 343 345 345 342 338 339 342 342 340 338 333 327 323 320 320 324 328 328 324 323 327 329 326 327 331 333 334
345 339 338 340 341 342 343 343 342 341 340 338 338 339 341 343 344 345 342 339 339 342 343 342 341 337 330 325 321 318 318 319 321 321 321 323 327 327 328 329 331 334
347 340 338 340 341 342 343 342 342 341 339 338 338 339 341 343 344 344 343 341 341 342 344 344 343 341 336 329 324 320 318 316 316 318 319 321 325 327 328 329 330 333
348 341 338 340 341 342 342 342 342 341 340 339 337 338 342 343 344 344 344 343 343 344 344 345 344 343 340 335 328 323 320 318 316 317 318 321 323 325 326 327 328 331
349 343 340 341 342 341 341 341 341 342 340 338 337 337 340 343 344 345 345 345 345 345 345 346 345 344 342 340 334 327 322 321 318 318 320 322 323 325 325 325 326 327
351 346 342 341 341 341 340 340 341 341 341 339 336 336 338 341 344 345 346 346 346 345 346 346 345 344 343 342 339 332 326 322 321 321 322 324 324 325 326 325 324 324
352 348 345 343 341 339 339 340 340 341 341 339 335 334 336 340 343 344 344 344 343 343 344 345 345 344 343 342 340 336 329 324 323 322 323 324 323 324 325 325 323 323
353 350 347 343 340 339 339 340 340 341 341 339 336 333 334 338 341 340 339 338 338 339 341 343 344 344 343 342 341 339 333 327 324 323 323 323 322 323 324 323 323 323
351 349 345 342 339 338 339 339 340 340 340 339 336 334 333 336 338 337 336 336 336 338 340 342 344 344 344 343 342 341 337 331 326 324 323 323 322 323 325 325 325 324
348 345 344 341 338 338 340 340 339 339 339 339 338 336 333 334 336 337 339 339 339 340 342 344 346 346 346 345 344 342 339 334 329 325 324 324 323 324 329 331 330 327
347 346 345 343 341 341 342 341 340 340 340 341 340 338 336 337 340 342 344 344 344 345 346 347 348 348 347 346 345 343 341 338 333 328 326 325 323 324 329 333 332 329
349 348 348 345 343 342 341 342 342 342 343 344 343 342 342 344 346 346 346 346 348 348 349 350 350 350 349 348 346 345 343 341 336 330 327 325 324 325 330 332 332 334
353 351 349 347 344 343 343 345 346 346 347 348 348 348 349 350 351 351 349 349 349 351 352 352 352 351 351 350 348 347 345 342 338 334 330 327 327 330 334 334 335 336
354 353 351 349 347 347 348 349 350 351 351 351 351 352 353 353 354 354 353 352 352 353 354 354 354 354 352 351 350 349 347 343 339 336 333 330 329 332 336 336 336 334
354 354 353 351 351 350 351 353 354 355 354 354 354 354 354 355 356 356 355 355 354 355 355 355 355 354 353 352 351 349 348 344 340 336 335 332 332 335 337 337 333 328
353 354 354 354 353 354 355 355 356 357 357 355 355 355 355 355 356 357 357 356 355 355 355 354 354 353 352 351 350 349 348 345 341 338 336 334 335 337 338 335 329 323
352 353 354 356 356 357 358 358 357 358 358 357 357 356 356 356 356 356 357 356 355 355 354 354 354 353 352 351 351 350 348 346 343 339 336 334 335 336 336 332 327 322
352 353 356 358 359 360 361 361 359 359 359 358 358 357 357 356 355 356 355 355 355 355 355 355 354 352 352 351 350 350 349 347 345 341 337 335 335 336 335 332 327 323
353 355 358 360 361 362 363 362 361 360 359 359 359 358 357 356 356 356 355 355 355 356 355 354 353 352 351 350 350 350 349 347 345 341 339 337 336 338 337 332 327 324
354 356 359 361 361 362 363 364 363 362 361 360 359 359 358 357 357 356 355 355 354 354 353 352 351 350 348 348 349 349 348 347 345 342 339 337 337 337 334 328 325 325
354 358 361 361 362 363 364 364 364 364 363 362 361 360 359 358 357 355 354 355 354 353 352 351 349 348 347 346 347 348 348 346 344 342 339 336 335 334 330 325 324 326
356 359 362 363 363 364 365 365 365 364 364 363 362 360 358 356 355 354 354 355 353 352 351 350 349 348 347 346 347 347 346 345 344 342 338 335 333 331 327 324 322 323

ECMWFNIL_850_thetae_024.txt.gz
Theta_e
346 343 341 339 338 339 344 347 347 346 344 345 345 344 343 340 338 339 338 337 339 339 336 332 329 330 332 333 334 334 336 335 333 332 331 326 322 320 323 329 330 327
347 344 342 340 339 338 341 345 346 345 344 344 345 344 344 341 339 338 338 338 339 339 336 332 329 330 332 332 333 333 333 333 333 332 329 326 323 321 322 327 329 329
348 345 343 340 339 338 338 342 345 344 344 344 345 345 344 342 340 339 338 338 340 341 339 333 330 331 333 332 331 332 331 331 331 331 329 326 325 322 320 324 327 331
348 345 343 341 339 338 338 340 343 344 344 344 344 345 344 342 340 339 339 339 341 343 341 336 333 332 333 332 331 330 329 328 328 329 328 325 325 323 320 322 326 330
347 344 343 342 340 339 338 339 341 342 343 343 343 344 344 342 341 340 339 339 342 344 343 339 335 334 333 331 329 326 325 325 325 326 326 324 324 324 322 323 326 329
348 345 343 342 341 340 339 339 340 341 342 342 342 344 344 342 340 340 339 340 342 344 344 340 337 337 335 332 328 324 322 321 321 323 324 322 322 323 323 324 326 328
349 347 345 344 342 341 340 338 339 341 342 341 341 343 344 342 340 339 339 341 342 343 344 340 337 338 338 335 330 325 321 319 319 320 321 320 320 321 322 323 324 326
349 349 348 345 343 342 341 339 339 340 341 341 341 341 342 342 339 338 339 341 343 344 344 341 339 339 340 339 335 330 324 320 319 318 319 320 320 320 321 322 323 325
349 349 350 348 345 342 341 340 339 340 340 341 341 341 342 341 340 338 338 340 342 343 344 343 340 339 341 342 341 337 330 324 320 318 318 319 319 321 321 321 323 325
350 350 350 349 346 342 339 339 339 340 340 341 341 341 341 341 340 339 338 339 341 343 344 344 342 341 342 343 343 342 339 334 327 322 319 318 319 321 321 321 323 324
351 350 350 349 346 341 337 337 339 340 340 341 341 341 341 341 340 339 338 338 340 342 344 344 344 343 343 344 344 344 344 342 338 331 325 321 320 320 320 321 322 324
353 351 349 347 345 339 336 336 339 339 340 341 340 341 341 341 341 340 338 337 338 341 343 344 345 345 344 345 345 345 345 344 343 340 335 328 322 319 319 320 321 324
354 351 347 344 342 337 334 335 337 339 339 339 340 341 341 341 341 341 339 337 337 338 340 343 345 346 346 346 346 346 346 345 344 343 341 336 328 321 320 321 322 323
354 351 346 342 339 337 335 335 336 338 339 339 340 340 341 341 341 341 340 340 339 338 339 342 345 346 346 347 347 346 346 346 345 344 343 341 335 327 322 321 322 324
355 353 348 343 340 339 338 336 336 337 339 341 341 340 340 340 341 342 343 342 341 340 341 342 344 344 345 345 345 345 346 346 346 345 345 344 340 334 326 322 322 323
355 354 350 347 343 340 338 337 336 337 339 341 341 340 340 341 343 344 344 344 343 342 342 342 343 342 342 342 342 344 345 346 347 346 346 345 343 338 331 326 324 323
356 355 353 349 345 341 339 338 338 338 340 342 342 342 343 344 346 346 345 345 344 342 341 341 341 340 340 341 343 346 347 348 348 348 347 346 345 341 335 330 327 324
356 355 354 351 347 344 341 340 341 342 343 343 344 344 345 346 348 348 347 346 345 344 342 341 340 341 342 344 346 348 349 349 349 350 349 347 346 343 338 333 330 327
355 356 354 351 349 345 343 344 346 346 345 346 346 346 347 349 349 349 348 348 347 345 344 343 344 345 346 348 349 350 351 352 352 351 350 348 347 345 341 337 332 328
355 355 354 352 349 348 349 350 349 347 347 349 350 350 350 350 349 348 348 347 345 345 346 346 348 349 350 351 352 353 354 354 353 352 350 349 347 345 343 340 336 331
355 355 354 353 351 351 352 352 350 350 352 353 353 353 352 350 349 348 348 346 346 347 349 351 352 353 353 353 354 355 355 354 353 352 351 349 347 345 343 341 337 333
355 355 354 354 353 353 354 353 352 352 354 355 355 354 353 351 350 349 349 348 349 350 352 355 355 355 355 356 356 355 354 353 352 352 351 349 347 346 343 340 338 334
355 355 355 354 354 354 354 353 353 352 353 355 354 354 354 352 351 351 351 352 352 354 355 356 356 356 357 356 355 354 353 352 351 350 350 348 347 346 343 340 338 335
355 355 355 355 354 354 353 353 353 352 352 352 352 352 352 352 353 354 354 355 355 355 356 356 357 357 356 355 355 353 351 349 349 349 349 347 346 344 341 340 338 337
355 356 355 354 354 353 354 354 353 352 351 351 351 352 353 354 356 356 356 356 356 356 356 357 357 357 356 355 353 349 346 346 348 348 348 347 346 343 341 339 338 337
356 355 354 354 355 354 354 354 353 353 353 353 354 355 355 357 357 358 358 357 357 357 357 356 356 355 354 352 349 345 345 346 348 348 347 347 346 344 341 339 338 337

ECMWFNIL_850_thetae_027.txt.gz
Theta_e
350 349 348 347 347 347 345 341 337 337 338 340 342 342 342 341 342 343 344 343 340 337 337 337 335 331 328 328 328 328 330 330 329 331 333 333 330 326 324 326 329 329
350 350 348 347 346 346 346 344 340 337 338 341 342 342 343 342 342 343 344 343 339 336 336 337 337 334 330 328 328 328 330 330 330 330 331 332 331 327 321 321 324 327
351 350 349 348 346 344 344 345 343 339 338 341 343 343 343 343 343 343 344 343 340 338 337 337 338 336 331 329 328 328 328 329 328 328 329 330 330 327 321 319 320 324
350 349 348 348 347 345 343 344 344 341 339 341 343 344 344 344 344 344 344 343 342 340 338 337 339 337 332 330 329 328 327 327 327 328 328 328 327 326 322 320 318 321
349 349 348 348 347 346 342 342 342 341 339 340 342 344 344 344 344 344 344 344 342 341 339 338 339 338 334 331 329 328 326 326 327 328 329 327 326 324 323 321 319 320
349 349 348 348 347 346 342 339 340 341 340 339 341 343 344 344 345 344 344 343 342 341 339 338 340 341 338 333 331 329 327 325 326 328 328 326 325 324 323 322 321 320
349 349 349 348 348 347 343 337 337 340 340 339 340 341 343 344 344 344 344 343 342 340 338 338 339 342 340 337 333 331 329 326 326 327 326 324 324 323 323 322 322 321
350 350 350 349 349 348 344 337 335 338 339 339 340 340 341 342 343 343 343 343 343 341 339 338 338 341 342 339 335 333 331 328 325 324 322 322 322 322 323 324 323 322
351 350 350 350 349 348 345 338 334 336 338 339 339 339 339 341 342 343 342 343 343 342 340 338 338 341 343 341 338 336 334 330 326 323 321 320 320 320 322 324 325 324
351 351 351 350 349 348 345 340 334 334 337 338 339 338 339 340 341 342 342 342 343 342 340 339 339 341 343 343 341 338 337 335 332 328 324 321 320 319 320 322 324 325
351 351 351 351 350 348 346 341 337 334 335 337 339 339 339 339 340 342 342 342 342 342 341 340 339 341 342 344 343 341 339 339 338 337 333 328 324 321 320 320 321 322
351 352 352 351 350 349 347 344 340 336 334 335 337 338 339 339 339 341 341 341 341 342 342 341 341 341 342 343 344 343 341 340 340 341 340 337 333 328 324 322 320 320
351 352 352 352 351 349 348 346 343 339 335 334 335 337 338 339 339 339 340 341 341 341 343 343 342 341 341 342 343 344 343 342 341 342 343 343 341 337 333 329 326 322
352 352 352 352 351 350 350 349 347 343 338 335 334 335 337 338 338 339 340 341 341 341 342 344 344 342 341 342 343 344 345 344 343 343 344 344 344 343 341 338 335 331
352 353 353 352 352 352 351 350 349 346 343 339 334 333 334 336 338 339 340 341 341 342 343 343 343 342 341 341 343 344 346 346 345 345 345 346 346 345 345 344 342 340
353 353 353 353 353 352 351 351 350 349 348 343 336 332 332 334 337 339 341 342 342 343 343 343 342 341 341 341 342 344 346 346 347 346 347 347 346 346 346 345 345 343
353 353 354 354 353 353 352 352 352 351 350 347 340 335 333 333 335 338 340 342 343 343 343 342 341 341 341 341 342 344 345 346 347 348 348 348 347 347 346 346 346 345
353 354 354 354 354 354 353 353 353 352 351 349 345 339 335 333 334 336 339 341 343 344 344 342 341 340 341 342 343 344 345 346 347 347 348 348 347 347 347 346 346 346
354 354 354 353 354 354 354 354 354 354 353 350 346 342 337 334 334 334 337 340 342 343 343 341 340 341 342 343 343 344 345 346 347 347 347 347 348 348 348 347 347 347
354 354 354 354 354 355 355 355 355 355 353 351 348 345 341 336 333 334 335 337 339 340 340 340 341 342 343 343 343 344 345 346 347 347 348 349 349 350 350 349 349 349
354 354 354 355 355 356 356 356 355 355 354 352 350 346 341 336 335 334 334 334 335 337 339 340 341 342 344 343 344 345 346 347 348 349 350 351 351 351 351 351 350 349
354 354 354 356 356 357 357 356 356 355 354 353 351 347 344 341 339 337 335 335 335 336 338 340 341 343 344 344 345 347 347 349 351 351 352 352 352 353 352 351 350 348
355 354 355 357 357 357 357 357 356 356 355 354 352 350 348 345 341 339 338 337 336 337 339 341 342 343 344 345 346 348 349 352 353 353 353 354 354 354 353 352 349 348
355 356 356 357 357 357 357 357 356 355 355 354 353 351 349 346 343 342 339 337 337 338 339 341 343 344 345 346 348 349 352 354 354 355 355 355 354 353 352 351 349 348
355 356 357 357 357 357 356 356 356 355 355 355 353 353 352 350 348 345 341 338 338 339 340 343 345 346 347 349 350 352 354 356 356 356 355 354 353 352 351 349 348 347
355 356 356 356 356 356 356 356 356 355 356 355 355 355 354 352 350 347 345 342 341 341 343 346 347 348 350 352 353 355 356 356 356 356 354 352 350 349 348 347 345 345

ECMWFNIL_850_thetae_030.txt.gz
Theta_e
348 347 346 345 344 342 342 341 340 339 339 337 337 336 336 335 335 339 344 346 346 346 346 347 345 341 338 336 332 327 325 326 327 327 328 328 328 328 329 330 330 330
348 348 348 347 346 345 344 343 341 340 339 337 337 336 336 336 335 339 345 345 344 344 345 345 342 338 336 335 331 327 325 326 327 327 327 327 327 327 329 331 331 329
349 349 349 348 348 347 345 345 344 342 341 339 338 337 336 336 335 338 344 345 344 344 345 345 341 336 335 334 332 329 326 326 327 327 326 326 326 327 328 330 331 329
349 349 349 348 348 348 347 347 346 344 343 341 340 339 337 336 336 339 343 345 345 344 345 345 342 336 334 335 334 331 328 326 327 328 327 326 326 326 327 328 329 329
348 348 349 349 348 349 348 349 348 345 344 342 341 340 338 336 336 339 343 345 345 345 345 345 343 339 336 336 336 333 330 328 326 327 327 326 325 325 325 326 327 327
348 349 349 349 349 349 349 349 348 346 344 342 342 341 339 337 336 339 342 344 345 345 345 345 344 342 338 337 337 336 332 328 327 327 326 325 325 325 325 326 326 325
349 349 349 349 349 349 349 349 349 348 345 344 343 342 340 338 336 337 340 343 345 345 345 345 345 343 340 338 337 337 334 329 328 327 326 325 324 325 325 326 326 325
348 349 349 349 349 349 349 349 349 348 346 345 344 343 340 339 337 336 338 342 344 345 345 345 345 344 342 339 337 338 336 332 329 328 326 325 324 324 324 325 326 325
348 349 349 349 349 349 349 349 349 348 347 346 345 343 341 339 338 336 336 339 342 344 345 344 345 345 343 340 337 337 339 336 332 330 327 325 323 322 322 324 325 325
348 349 349 349 349 349 349 349 349 349 347 347 347 345 342 339 338 337 336 337 339 342 344 344 344 344 344 341 337 336 339 339 337 334 331 328 324 322 321 322 323 323
349 349 349 350 350 350 350 350 350 349 348 348 348 347 343 339 338 338 337 336 337 339 342 343 343 344 343 341 338 336 337 340 340 338 335 333 330 327 324 322 322 321
348 349 349 349 350 350 350 350 350 350 349 349 348 347 345 341 338 338 337 336 337 337 339 341 342 343 343 342 340 338 337 339 341 341 339 337 336 334 332 329 327 325
348 348 349 349 349 350 350 350 350 350 349 349 349 348 346 342 337 337 337 336 336 336 337 339 340 341 341 341 341 340 339 339 340 342 342 341 339 339 338 338 337 334
348 348 349 349 349 349 350 350 350 350 350 349 349 347 346 342 338 336 336 336 336 336 337 337 339 340 340 341 341 341 341 340 340 341 342 343 342 341 340 340 341 341
348 349 349 349 349 350 350 351 350 350 350 350 348 346 345 342 338 335 335 335 335 336 336 337 338 339 339 339 340 341 341 341 341 340 341 342 343 343 343 342 342 343
348 349 350 349 350 350 350 351 351 350 351 350 349 346 344 342 340 337 335 335 335 335 335 336 336 337 337 338 339 340 341 341 341 341 341 342 343 344 345 344 344 344
349 349 350 350 350 350 351 351 351 351 351 351 350 346 343 341 341 338 335 334 334 334 335 335 335 335 335 337 338 339 340 341 341 342 342 342 343 344 345 346 346 346
349 350 351 351 350 350 351 351 351 351 351 352 350 347 343 341 340 338 337 336 334 333 333 334 334 334 334 336 337 338 340 340 341 342 342 343 344 344 346 346 347 347
350 350 351 351 351 352 351 351 351 351 351 351 351 349 345 342 340 338 338 338 335 333 332 332 332 332 333 334 336 337 339 340 341 342 343 344 344 345 346 347 348 349
349 350 351 351 352 352 352 352 351 351 351 351 351 351 349 347 343 340 339 338 335 333 332 331 330 330 331 333 335 336 338 340 342 343 343 344 345 346 347 348 349 349
350 350 351 352 352 352 353 352 351 351 352 352 351 351 351 350 347 344 341 338 336 335 333 331 329 329 330 331 333 335 338 340 343 344 344 345 346 347 348 349 350 350
350 350 351 352 353 353 353 353 352 352 352 352 352 352 352 351 351 348 345 343 341 339 335 331 328 329 330 331 332 335 337 341 344 345 346 347 347 348 349 350 350 351
351 351 352 353 353 354 354 353 353 352 352 353 353 352 352 352 352 352 350 348 346 342 336 331 328 329 329 330 331 334 338 342 345 347 348 348 348 349 350 351 351 352
351 352 352 352 353 353 352 352 352 352 352 353 353 353 353 353 353 353 352 352 350 343 336 333 331 330 329 330 332 335 339 343 346 348 348 348 349 350 351 352 353 353
351 351 351 351 351 351 351 352 352 352 353 353 353 353 353 353 353 354 354 354 352 347 341 338 337 335 333 334 335 338 341 345 347 349 349 349 350 352 353 353 353 353
350 351 350 351 351 350 351 352 352 353 354 354 354 354 354 354 355 355 355 354 354 351 348 345 343 340 338 338 338 340 343 346 348 350 350 351 352 353 354 354 354 353

ECMWFNIL_850_thetae_033.txt.gz
Theta_e
345 345 343 342 341 339 337 336 336 336 336 336 336 336 335 335 335 335 335 335 335 335 338 342 345 347 346 345 345 343 340 334 329 325 324 325 326 327 326 327 329 330
347 347 347 346 344 342 340 339 337 336 336 336 336 336 336 335 335 336 336 335 335 335 338 343 345 346 346 345 343 342 338 333 327 325 324 324 326 327 327 328 329 329
347 347 348 347 346 345 343 343 341 340 338 338 338 338 338 337 336 336 336 336 336 335 338 343 344 344 345 343 341 339 336 331 327 324 325 325 325 325 326 328 330 330
347 347 347 348 347 347 346 346 345 343 342 340 339 339 340 339 337 336 336 336 336 335 338 343 344 343 344 343 340 337 334 331 328 325 325 326 325 325 327 328 330 331
345 346 346 347 348 347 347 348 347 346 345 343 341 340 340 339 339 338 336 335 336 336 338 341 343 343 343 344 340 336 333 332 330 327 325 326 326 326 327 329 330 331
345 345 345 346 347 348 348 348 348 347 347 346 344 343 341 340 340 339 337 336 335 336 338 341 342 342 343 344 341 336 334 333 331 329 327 326 326 327 328 329 330 330
345 346 345 346 346 347 348 348 348 348 347 347 347 346 345 343 341 340 339 337 336 336 338 341 342 342 342 344 342 339 335 333 332 330 328 326 326 327 328 329 329 329
345 346 345 345 346 347 348 348 348 348 347 347 347 347 347 345 342 341 340 339 337 336 337 340 341 342 342 343 343 341 338 334 333 332 331 328 326 326 327 328 328 328
345 345 344 345 345 346 347 348 347 348 348 347 347 347 348 346 344 342 340 339 339 336 336 338 340 341 342 343 343 343 340 335 333 333 333 330 328 327 326 327 327 327
344 344 344 345 346 346 347 347 347 347 347 347 347 347 347 347 344 342 341 340 339 337 336 336 339 340 341 342 343 344 342 338 335 334 334 333 331 329 328 327 326 325
344 344 344 345 346 346 347 347 347 347 347 347 348 348 348 347 345 343 341 340 339 338 336 335 337 339 340 341 342 343 343 341 338 335 335 335 335 333 331 329 326 325
343 344 344 344 346 346 345 346 346 347 347 347 348 348 348 348 346 343 341 339 338 337 336 336 336 337 339 340 341 342 342 342 341 337 335 336 337 337 335 333 330 327
343 343 344 344 344 345 345 345 346 347 347 347 348 348 348 348 347 344 340 338 337 336 336 336 336 336 337 338 340 340 341 342 342 340 336 335 337 338 337 335 334 332
343 343 343 344 344 344 345 345 346 346 347 347 347 348 348 349 348 345 341 338 337 336 336 336 336 336 336 337 338 339 340 341 342 342 339 336 336 338 339 338 337 337
343 344 343 344 345 345 345 346 346 346 347 347 348 348 348 349 349 347 344 340 338 336 336 336 336 336 336 336 337 338 339 340 341 342 341 339 338 338 340 341 341 341
343 344 344 344 345 346 346 346 346 346 347 347 347 348 348 349 349 349 347 343 340 337 336 335 336 336 335 335 336 337 337 338 340 341 342 342 341 340 340 340 341 342
344 344 345 345 345 346 346 347 347 347 347 347 347 348 348 349 349 350 349 346 343 339 336 335 335 335 335 335 335 336 337 338 339 340 340 342 342 342 342 341 340 341
344 345 345 345 346 347 347 347 347 347 347 348 347 348 348 349 349 350 350 349 345 341 337 335 333 334 335 335 335 335 335 337 338 339 340 340 341 342 343 342 341 340
345 345 346 346 346 347 348 347 348 348 348 348 348 348 349 349 350 350 350 350 347 343 338 335 332 332 333 334 334 335 335 336 337 337 338 339 340 341 342 343 343 342
345 345 346 346 347 347 348 348 348 348 348 348 348 348 349 349 350 350 350 350 349 345 340 336 333 331 331 333 333 334 335 336 336 336 337 338 339 340 342 343 344 344
346 346 347 347 348 348 349 349 349 349 349 349 349 349 349 349 349 350 351 351 350 348 343 338 333 330 331 331 332 333 333 335 336 336 336 337 338 340 342 343 344 345
347 347 348 348 349 349 349 349 349 349 350 350 350 349 349 349 350 350 351 351 350 350 347 341 335 331 331 330 331 332 333 334 336 336 337 338 339 340 342 343 345 346
347 347 348 348 348 349 349 349 349 349 350 350 349 349 350 350 351 350 351 351 351 351 350 346 340 334 330 330 331 332 333 334 335 336 338 339 339 340 342 344 345 346
345 346 346 346 347 347 347 348 348 348 349 349 349 350 350 350 351 351 351 351 351 351 351 350 346 339 333 332 332 332 334 335 335 337 339 340 340 341 343 345 346 347
344 345 346 347 347 347 347 348 348 348 349 349 350 350 350 350 351 351 350 350 351 351 351 351 350 345 340 337 336 335 336 337 338 338 340 341 342 343 345 346 347 348
344 345 346 347 347 347 348 348 348 348 349 350 350 351 351 352 351 350 349 350 351 352 351 351 351 350 347 344 342 340 339 340 340 339 340 342 344 345 346 346 347 349

ECMWFNIL_850_thetae_036.txt.gz
Theta_e
340 340 339 339 339 339 339 338 337 337 336 337 337 336 337 336 336 337 336 337 337 337 337 336 337 336 339 346 349 348 347 348 349 349 348 341 326 324 325 324 329 334
341 341 340 341 341 338 338 338 337 337 336 336 336 336 337 336 337 337 336 337 338 337 336 335 334 335 338 343 346 347 348 350 350 349 348 339 324 323 325 324 325 324
341 344 342 341 340 338 338 339 338 338 337 337 336 336 336 336 337 336 335 337 339 340 340 337 335 335 338 342 343 346 349 350 350 349 348 338 324 324 326 326 329 325
342 345 344 341 340 339 340 341 340 340 339 338 337 336 337 336 336 336 336 336 336 340 343 340 335 334 337 341 343 346 348 350 350 349 348 342 327 324 325 326 331 332
342 344 344 345 345 343 342 344 344 343 342 340 339 338 337 336 336 336 336 336 335 337 340 338 335 335 336 340 343 343 344 348 350 348 349 344 330 324 326 324 327 331
341 343 344 346 347 345 345 346 347 346 345 343 342 341 340 338 337 337 336 336 336 336 337 337 336 335 336 339 342 342 340 344 348 348 348 344 332 324 326 324 324 325
339 342 343 345 346 345 346 347 347 347 347 346 345 345 344 341 338 338 338 337 336 336 337 337 336 335 336 338 341 341 340 338 343 347 346 341 333 327 326 325 325 325
338 340 341 343 345 345 345 346 346 346 347 347 347 347 346 344 340 337 337 338 337 337 337 336 337 336 336 338 340 341 341 337 337 340 338 335 334 330 326 326 326 326
336 337 339 340 342 343 343 344 344 345 345 346 347 347 347 346 343 340 338 338 338 337 337 336 337 336 335 338 340 340 342 340 336 333 330 331 333 331 329 327 326 326
337 338 338 338 339 340 342 342 343 343 343 344 346 347 347 346 345 344 341 340 339 339 338 337 337 336 336 338 340 340 341 341 339 335 331 330 332 333 332 330 328 327
339 339 340 340 340 340 341 341 342 343 343 343 344 346 347 346 346 346 345 343 342 341 340 339 338 337 337 337 338 340 341 342 341 339 333 331 332 333 333 333 332 329
340 340 341 342 342 342 342 342 342 344 345 344 343 344 346 346 346 346 346 346 345 343 342 340 339 338 338 337 337 338 340 342 342 341 337 334 333 332 333 334 334 333
339 340 340 341 342 343 343 343 342 344 346 345 343 343 345 346 347 346 346 347 346 345 344 342 339 339 338 337 336 337 339 341 342 343 341 338 335 332 332 333 334 336
339 340 340 340 342 342 342 343 342 342 345 346 344 344 344 345 346 347 346 346 346 345 345 343 341 339 339 338 336 336 337 339 341 343 342 341 338 335 333 332 333 336
341 341 341 340 342 342 341 342 342 342 344 345 345 344 344 345 345 346 347 347 347 346 344 343 342 340 339 337 337 336 336 337 339 342 343 343 342 338 335 333 333 335
343 342 342 341 341 342 342 341 342 343 344 345 345 344 344 345 345 346 347 347 347 347 345 344 342 340 338 337 336 336 336 336 337 340 341 342 343 341 339 336 333 334
344 343 343 342 342 342 342 342 342 343 344 345 345 345 344 345 345 346 347 347 348 348 347 345 342 339 337 336 336 336 336 336 336 337 339 341 342 342 341 340 336 334
343 343 343 343 343 343 343 343 343 344 345 345 346 346 345 344 346 346 347 347 348 348 348 348 345 341 336 334 335 335 336 337 336 336 337 338 340 341 341 341 339 337
343 343 343 343 344 344 344 345 344 344 345 346 347 346 346 346 347 347 346 347 348 348 348 349 347 344 338 335 334 333 335 336 337 337 337 337 337 339 340 341 341 340
343 343 343 344 344 344 345 345 345 345 345 346 348 347 346 347 347 347 347 347 347 348 348 348 349 346 341 336 334 333 334 334 336 337 337 337 338 339 339 339 340 340
342 342 344 345 345 345 346 346 345 346 345 346 348 347 347 348 348 348 347 346 348 349 349 348 349 349 344 337 334 333 333 334 336 337 337 338 339 339 339 339 339 339
341 342 343 344 345 345 345 346 345 345 345 346 347 347 348 349 349 349 347 347 350 351 350 348 349 349 346 339 334 333 334 335 336 337 337 337 337 339 340 342 342 341
341 341 342 342 343 344 344 344 344 344 344 345 346 347 348 348 349 349 348 349 349 350 349 349 350 350 347 341 335 332 333 335 336 336 336 337 338 339 341 344 345 344
341 341 341 342 342 342 342 343 343 344 344 345 346 347 347 347 347 348 348 349 348 347 348 349 350 350 348 344 337 331 330 332 334 336 336 337 341 342 342 346 347 345
341 341 341 341 342 342 342 342 343 344 345 346 347 347 348 349 349 349 350 351 350 352 353 352 353 354 353 349 344 337 333 331 333 336 336 338 342 343 342 346 347 344
340 341 341 341 342 342 342 343 344 344 345 345 346 347 349 350 351 351 352 353 353 354 355 353 354 358 358 354 350 345 341 336 335 335 334 336 340 341 341 343 346 345

ECMWFNIL_850_thetae_039.txt.gz
Theta_e
336 336 335 336 337 337 339 343 341 338 338 341 343 341 336 335 339 347 351 347 340 341 343 343 344 343 342 345 346 345 347 346 345 348 348 349 349 347 345 341 335 342
336 336 336 336 337 337 338 340 341 339 336 337 341 345 342 337 335 339 344 342 339 341 345 344 346 346 340 338 340 339 344 346 344 347 349 349 349 347 345 341 334 337
336 336 336 336 337 337 337 339 340 339 338 336 337 341 345 343 338 335 337 338 337 339 344 345 346 347 342 337 335 336 343 346 342 345 351 350 350 348 344 341 338 334
336 335 336 336 337 338 338 340 341 339 338 338 336 336 341 346 345 340 336 336 337 337 339 342 344 345 343 338 335 335 342 346 344 345 349 350 351 348 343 341 342 340
335 335 336 336 337 339 339 340 342 341 338 337 338 336 336 341 345 344 340 336 337 337 336 338 340 343 343 339 335 335 338 345 349 349 349 349 351 348 341 338 340 344
335 335 336 337 337 338 340 339 339 340 340 337 337 338 337 337 339 342 341 337 337 338 339 340 337 338 341 340 338 336 336 343 351 353 352 351 351 346 339 334 335 339
335 336 336 337 337 337 338 338 338 339 341 340 339 338 339 339 337 338 340 339 337 338 342 346 342 336 337 340 341 338 335 340 349 353 353 353 351 347 340 334 329 328
335 336 335 335 336 337 337 338 338 338 339 340 339 338 339 340 340 339 338 339 340 339 341 346 345 338 335 339 342 341 337 337 344 348 350 351 350 346 340 337 331 325
335 335 335 335 335 336 337 337 340 340 338 338 338 340 342 343 343 343 341 339 341 342 341 344 346 341 336 337 340 341 339 337 339 342 344 347 347 342 337 337 335 328
336 335 336 335 335 336 335 337 341 343 341 338 337 343 349 349 345 346 346 343 342 343 343 343 343 341 337 336 337 338 338 337 337 340 342 344 344 340 335 334 333 330
336 336 336 335 335 336 336 337 343 349 350 347 340 342 351 355 352 347 347 347 345 344 344 342 341 339 337 336 337 336 336 337 337 339 340 341 343 342 338 334 331 330
334 335 335 336 335 337 339 342 347 352 356 356 350 343 347 355 357 352 347 347 347 345 344 342 339 338 338 337 337 337 336 336 337 339 341 341 341 342 341 338 334 332
334 334 333 334 335 335 340 347 352 354 357 360 358 351 345 350 357 357 349 344 346 346 346 345 341 339 340 338 337 338 338 336 337 340 341 341 341 342 344 344 340 334
335 335 334 334 336 337 340 347 353 355 356 359 360 357 350 348 353 359 355 347 343 345 346 346 344 342 342 340 338 338 339 337 336 338 341 342 341 342 347 351 346 338
340 340 337 337 339 340 341 345 349 351 353 357 360 360 357 353 352 357 359 355 348 344 344 346 345 343 343 342 339 337 339 339 337 336 340 343 344 342 347 353 351 343
347 344 340 338 339 341 342 344 345 347 350 353 358 359 359 356 354 356 360 360 356 348 344 345 346 345 342 341 339 338 337 339 338 337 338 341 344 342 344 352 353 347
349 345 343 339 339 341 343 342 342 344 349 352 355 358 358 357 355 355 358 361 361 356 348 344 344 345 344 341 340 338 338 338 338 339 338 338 340 340 342 349 352 348
350 347 346 343 341 341 342 344 343 344 349 351 353 356 357 357 356 354 353 357 363 363 357 350 345 344 344 342 340 338 337 338 338 340 340 338 338 338 341 345 347 346
354 351 349 345 345 344 345 347 345 345 347 350 352 354 355 355 354 352 350 352 359 363 362 357 350 346 345 343 342 339 336 337 340 342 342 340 338 338 339 341 341 342
356 353 350 348 348 348 348 349 347 345 346 348 352 353 352 352 353 353 351 350 352 357 360 359 356 352 349 346 345 344 340 338 338 341 343 342 339 337 337 338 337 338
357 354 351 351 351 350 349 347 345 344 344 347 352 352 351 350 351 350 351 351 350 351 355 358 357 355 352 348 346 346 345 344 342 343 343 342 341 340 338 337 337 337
356 353 352 351 350 349 348 346 345 344 343 347 352 354 353 351 351 350 350 352 352 350 350 353 355 353 352 349 347 346 346 347 347 346 346 344 344 344 342 338 338 338
354 352 351 350 350 349 347 345 346 346 345 347 349 352 353 351 351 352 351 351 353 351 349 350 352 353 351 347 346 347 346 347 348 348 349 348 347 348 347 344 340 339
354 352 350 349 349 348 346 345 347 347 347 347 347 350 351 351 354 356 355 355 356 355 352 349 349 354 355 351 347 349 348 348 348 349 349 349 348 348 349 348 345 343
357 354 352 350 348 346 345 347 347 347 347 348 347 349 352 355 358 361 362 362 361 359 356 351 349 355 361 359 354 352 351 349 349 349 350 350 350 349 349 347 346 347
360 359 355 352 348 346 348 349 348 348 349 350 351 354 358 360 362 363 364 364 362 360 358 354 352 356 360 360 357 354 353 352 352 351 349 349 351 351 352 348 345 351

ECMWFNIL_850_thetae_042.txt.gz
Theta_e
334 333 334 335 336 336 336 337 337 337 340 341 339 337 337 341 345 347 347 344 340 338 339 340 340 341 343 344 345 348 349 350 351 350 345 343 343 337 331 326 330 343
334 334 334 335 335 335 335 336 336 336 338 339 340 339 337 337 341 344 347 348 345 340 338 339 339 340 341 343 343 345 347 347 348 349 346 344 344 339 333 328 326 335
334 334 335 335 334 334 334 334 336 338 339 339 340 342 341 340 341 341 345 348 347 342 338 338 340 341 341 342 341 342 344 343 343 345 345 344 344 343 335 332 329 328
333 334 333 334 333 333 334 334 336 339 341 343 342 343 344 345 345 344 343 345 344 342 338 335 338 341 342 343 343 342 341 340 337 339 343 344 344 344 339 335 337 331
334 333 333 334 333 334 335 335 336 339 342 344 343 342 343 345 347 347 345 345 343 342 340 336 337 339 343 344 344 344 342 338 335 337 341 344 343 345 342 337 341 341
333 333 333 333 334 334 336 335 337 340 341 343 344 343 343 342 345 346 347 347 344 342 342 339 336 337 339 342 343 344 343 338 335 336 340 344 343 344 345 339 337 342
333 333 333 333 334 335 337 336 337 340 341 343 344 345 345 344 342 342 345 347 346 344 343 340 338 336 336 338 340 341 342 340 337 336 338 343 343 342 344 341 335 337
334 333 333 333 334 335 335 337 338 340 341 344 347 347 347 345 342 341 343 347 348 346 344 342 340 339 337 338 337 336 338 339 338 338 337 340 344 343 339 337 335 332
335 333 334 333 334 334 335 336 338 339 340 343 346 348 349 348 346 344 342 343 347 347 346 344 342 341 341 341 340 337 336 336 337 339 339 338 342 343 339 335 335 331
336 335 334 334 333 333 334 335 334 337 339 340 343 347 350 349 349 349 345 341 344 348 348 346 344 342 342 342 343 341 337 335 335 337 340 340 340 342 342 338 337 333
337 336 335 334 335 334 334 334 334 336 338 339 340 344 349 350 350 351 349 344 341 343 347 346 346 344 343 343 343 343 341 337 335 336 339 341 341 341 342 341 340 337
336 336 337 335 334 335 334 335 336 338 339 339 339 341 344 349 352 349 348 346 340 340 343 345 345 346 345 344 344 345 345 340 336 335 337 340 342 340 340 341 342 340
338 337 339 338 335 335 337 339 339 339 343 344 343 342 342 345 350 350 347 346 343 342 343 344 344 345 346 346 346 347 348 345 340 337 336 338 340 341 341 341 341 342
340 336 338 339 338 336 338 343 344 344 347 349 349 349 346 345 349 352 351 348 347 345 345 345 345 345 346 347 347 348 350 349 346 341 339 339 338 340 343 344 343 343
345 340 338 338 339 340 339 342 344 346 348 350 352 354 353 352 351 353 355 354 352 350 348 349 349 346 346 347 346 347 348 350 348 345 345 344 341 341 344 346 346 346
351 346 341 339 338 339 339 339 342 346 349 349 352 353 355 357 356 355 356 357 357 356 354 353 351 349 346 345 345 344 344 346 348 347 347 347 345 343 345 347 347 347
356 351 346 341 338 338 338 339 341 344 347 350 352 353 354 356 357 357 356 357 358 359 358 356 353 350 346 343 342 342 342 343 344 345 347 348 346 345 345 346 346 346
357 355 350 344 340 339 338 339 341 343 346 348 351 353 354 354 356 358 357 356 357 359 360 359 356 352 348 344 341 340 341 342 342 343 345 347 347 346 344 344 345 346
359 357 354 347 342 341 340 341 342 343 343 346 349 352 354 354 354 355 355 355 356 358 359 360 359 356 352 348 345 342 340 342 342 343 344 345 346 346 345 344 344 345
361 358 356 353 348 345 346 346 344 342 343 345 348 350 352 353 352 353 354 354 353 354 357 359 359 358 355 352 348 345 342 342 342 342 342 343 344 345 346 345 343 344
362 361 358 357 355 352 351 349 346 345 345 346 349 351 351 352 352 352 353 353 352 352 354 357 358 358 357 354 351 349 346 344 343 344 344 343 343 345 346 346 345 344
362 361 361 360 359 358 356 353 351 349 348 348 350 352 354 355 354 353 354 354 355 354 353 353 356 358 358 357 355 353 354 352 348 347 346 345 345 346 347 347 346 346
362 362 362 361 361 360 358 356 355 353 352 352 351 353 356 356 356 355 355 355 357 356 354 351 351 356 359 360 359 359 359 359 356 353 351 348 347 347 347 347 347 347
362 361 362 362 361 362 361 360 358 358 357 356 355 354 354 356 357 358 357 356 357 356 356 353 352 353 356 360 362 362 361 361 360 358 357 353 351 350 350 349 348 347
361 361 362 362 362 362 364 364 361 359 360 359 358 356 356 356 359 360 359 360 358 358 357 357 356 356 355 357 361 363 363 363 362 362 360 357 355 354 352 352 351 351
360 361 361 362 363 364 365 365 362 361 361 361 360 359 358 358 359 360 362 363 363 362 360 359 360 360 358 358 358 360 362 363 363 363 362 360 358 357 355 354 353 353

ECMWFNIL_850_thetae_045.txt.gz
Theta_e
333 333 333 332 331 331 333 334 335 336 338 341 342 340 340 340 341 341 339 337 338 339 339 339 340 341 341 342 344 344 345 347 348 347 347 344 342 341 340 335 334 333
334 332 332 331 331 331 332 333 333 334 334 337 339 339 339 341 340 339 338 338 338 338 339 339 340 340 340 341 343 344 345 346 346 345 345 344 341 341 341 336 330 329
333 332 332 331 331 330 331 332 332 332 332 334 337 339 340 342 341 340 339 339 339 338 338 340 339 339 339 339 341 343 343 344 345 344 344 343 341 341 341 339 332 326
332 332 331 330 330 330 331 331 332 331 332 333 335 337 340 343 342 341 340 339 339 338 338 339 340 338 338 339 340 341 342 342 343 343 343 342 341 341 340 341 336 328
332 331 331 331 331 331 331 331 331 331 331 332 333 335 338 341 343 343 341 339 339 339 338 338 339 338 338 339 340 340 340 341 341 341 343 340 339 339 339 340 340 334
332 332 331 331 331 331 331 331 331 330 331 331 332 333 336 338 341 343 343 342 340 339 338 338 338 337 337 337 339 340 340 340 339 339 340 338 337 337 339 339 340 339
335 333 332 332 331 331 331 331 331 330 331 331 332 333 334 337 339 340 342 343 343 341 339 338 337 336 335 335 336 338 340 340 340 340 339 337 335 335 338 340 339 340
337 335 334 333 332 332 331 331 331 331 331 333 333 334 334 335 337 339 342 345 345 343 341 338 337 336 335 334 334 335 337 338 338 339 339 337 336 335 337 339 339 339
339 338 336 335 335 333 332 331 331 332 332 333 333 334 334 334 336 339 342 344 345 344 343 340 337 336 335 335 334 334 335 336 336 336 337 337 337 336 336 338 339 338
342 339 338 337 336 334 333 333 332 333 333 333 334 334 335 335 335 339 342 343 344 344 343 340 338 336 335 335 334 335 334 335 336 335 335 335 336 336 337 337 337 337
346 342 340 338 337 336 334 333 333 334 333 334 334 335 336 337 338 339 342 343 343 342 341 340 338 337 336 335 334 334 334 335 336 335 335 335 334 335 335 336 336 336
347 345 342 339 337 336 335 334 334 334 334 334 334 335 336 337 339 340 341 341 341 341 340 338 338 338 337 336 334 334 334 334 335 335 336 336 335 334 334 335 336 336
348 345 342 339 338 336 335 335 335 335 335 335 335 337 337 338 339 339 339 339 340 341 341 339 338 338 338 337 337 336 336 336 335 335 336 336 336 335 335 334 334 335
349 345 342 339 338 337 336 335 335 335 336 336 336 337 338 338 338 338 337 339 340 340 340 340 340 340 340 340 340 339 339 339 338 337 336 337 337 336 336 336 334 334
352 348 344 342 340 338 337 336 336 336 337 338 338 337 336 337 339 339 338 338 339 340 340 341 343 343 342 341 341 340 340 341 340 339 338 338 338 338 338 337 336 335
356 351 348 346 344 341 338 337 337 337 338 339 339 338 337 338 339 341 341 340 340 341 343 345 346 345 343 343 341 340 340 341 341 341 340 340 340 340 340 339 337 335
360 356 352 349 346 343 340 339 338 339 339 340 341 340 338 339 340 341 343 344 344 345 346 347 347 346 345 345 344 344 343 343 343 342 342 341 341 341 340 339 338 337
362 359 355 351 348 345 343 340 340 340 340 341 342 341 341 340 340 342 344 345 347 348 350 350 348 347 348 347 347 346 345 345 345 344 344 343 342 340 340 339 338 339
363 362 358 354 351 347 345 344 344 343 343 342 341 341 342 341 340 341 343 347 349 350 351 350 350 349 350 351 350 349 349 347 346 346 346 344 344 342 340 339 340 341
363 362 361 358 355 351 349 348 347 344 343 343 342 342 342 343 342 343 344 346 349 351 351 350 349 349 350 351 351 351 351 350 349 348 347 347 345 344 342 342 341 341
363 361 360 360 358 356 353 351 349 346 345 345 343 342 342 342 343 343 343 344 346 350 352 352 350 349 348 350 350 351 351 352 352 352 351 350 348 347 346 345 344 343
363 361 359 359 359 357 356 354 352 349 347 345 345 344 344 343 343 343 343 343 344 346 349 351 352 352 351 351 351 352 354 354 355 355 355 354 352 351 349 348 348 347
362 362 361 359 358 358 357 356 354 352 349 347 347 347 347 346 344 343 343 344 345 345 345 347 350 354 355 355 355 356 357 357 358 358 358 357 356 355 354 352 351 350
361 361 361 359 358 358 357 357 356 355 353 352 350 349 348 347 346 346 346 347 347 348 347 348 349 351 355 356 358 359 360 360 360 360 359 359 359 359 358 356 355 353
362 361 361 361 360 359 358 358 358 356 356 354 354 352 350 350 350 351 351 352 352 352 352 352 353 354 354 356 358 359 361 362 363 363 362 362 361 361 360 360 359 357
361 362 362 361 362 360 360 360 359 359 358 358 357 357 355 355 354 354 354 355 355 355 355 355 356 357 358 358 359 359 360 361 363 364 364 364 364 363 363 362 361 361

ECMWFNIL_850_thetae_048.txt.gz
Theta_e
338 336 334 334 334 334 334 334 332 332 331 332 334 334 334 334 335 338 338 337 336 336 337 336 337 342 343 344 346 346 346 345 346 348 348 346 344 342 341 338 336 337
339 337 336 334 335 335 334 334 332 331 330 331 333 334 335 336 337 338 338 338 338 337 337 337 337 339 341 342 344 345 344 344 345 347 348 347 345 342 340 339 336 332
341 339 337 335 334 334 333 333 333 331 330 331 334 334 334 335 335 337 338 338 338 337 337 338 338 338 339 340 342 343 343 343 343 345 346 346 345 344 341 340 338 332
343 340 338 335 334 332 332 332 332 331 331 332 333 334 334 334 335 336 338 337 337 337 337 338 338 338 339 339 340 341 341 342 343 343 344 344 344 343 341 341 340 336
344 341 339 337 335 334 333 332 331 331 331 331 332 334 334 334 334 335 338 338 337 336 337 338 338 338 339 339 339 340 340 341 342 342 342 343 343 342 341 340 340 339
346 344 341 339 338 336 334 332 332 331 330 330 330 332 333 333 333 333 336 338 337 336 337 337 337 338 337 338 338 338 338 339 339 340 339 340 340 341 341 339 338 338
345 344 342 341 341 340 337 333 332 331 330 330 329 330 331 331 331 331 332 335 337 336 335 336 336 336 336 336 337 337 338 338 339 339 339 337 338 338 338 338 337 335
345 344 343 342 343 343 340 336 333 331 330 330 329 329 329 329 329 329 331 333 335 335 335 334 334 335 335 335 335 335 336 337 338 338 338 338 337 337 337 337 336 335
346 344 342 342 343 342 340 338 335 333 331 330 330 330 329 329 329 329 329 331 333 334 334 334 333 334 334 335 334 334 335 334 335 336 336 337 337 337 338 337 336 336
348 346 343 342 342 341 339 337 336 335 334 332 331 330 330 329 329 329 330 331 333 333 334 334 333 333 334 335 335 334 334 334 334 334 334 334 335 335 336 337 337 336
350 347 345 343 341 340 338 337 336 336 334 333 332 331 331 330 329 330 331 331 332 333 334 333 333 334 334 335 335 335 335 334 334 334 334 333 332 332 333 334 335 335
353 351 348 345 342 340 338 338 337 337 335 334 332 332 332 331 331 331 331 332 332 332 333 333 333 334 335 335 335 335 335 335 334 334 333 333 333 333 333 332 333 333
355 353 352 349 345 342 339 339 338 338 336 334 333 332 332 331 331 331 331 331 332 332 333 333 334 336 336 336 336 337 336 336 336 334 334 334 334 334 334 333 333 333
356 355 353 350 348 345 342 340 340 340 338 336 334 333 333 332 331 331 331 332 332 333 333 333 335 337 337 338 338 338 338 338 337 336 336 334 334 334 334 334 334 334
358 357 355 353 351 348 345 342 341 341 340 338 337 334 333 333 333 332 332 333 333 333 334 334 336 338 337 337 338 338 338 338 337 337 337 337 336 335 335 335 335 335
359 358 357 355 354 351 348 346 343 343 343 342 339 336 335 333 333 334 333 333 333 334 335 335 337 337 337 336 337 337 337 337 337 337 338 339 339 338 338 338 337 337
360 359 359 357 356 354 352 349 346 345 345 343 341 339 337 335 335 335 334 333 334 334 335 336 337 337 336 336 336 337 339 340 340 340 339 340 340 341 341 340 339 339
362 361 360 360 358 357 355 353 351 349 347 346 344 341 338 338 336 336 335 335 336 336 336 336 337 336 336 337 337 338 341 343 344 343 343 342 342 342 342 342 342 342
363 363 363 362 361 360 359 357 354 352 350 348 346 343 341 340 338 337 336 336 337 337 336 336 336 335 336 337 337 339 341 344 346 346 346 345 344 344 344 344 344 344
363 364 363 364 363 362 361 359 356 354 352 349 347 345 343 341 339 339 338 337 338 338 338 337 336 336 336 337 338 340 342 345 346 348 348 348 347 347 347 347 346 346
363 364 364 365 365 364 363 361 359 356 354 351 350 347 345 343 340 340 339 338 339 339 338 338 337 337 337 338 340 341 344 347 349 350 351 351 350 351 350 350 349 349
364 364 365 365 365 365 364 363 361 359 356 354 352 350 348 346 344 342 342 341 341 341 341 340 337 338 338 339 341 343 346 350 351 352 353 353 353 353 352 352 352 352
364 364 365 365 365 365 365 364 363 361 359 356 354 352 350 348 346 345 343 342 343 343 344 342 340 340 341 341 343 346 350 352 353 354 354 355 354 355 354 354 355 354
364 364 364 364 365 364 364 364 363 362 360 358 356 354 351 349 347 347 345 345 345 345 345 345 346 346 347 348 348 349 352 353 354 355 356 356 356 357 357 357 357 357
364 364 364 364 364 364 364 364 363 362 361 360 358 356 354 351 349 349 348 346 346 346 346 347 349 351 352 353 353 354 354 355 356 357 357 357 357 357 358 358 358 358
364 364 363 363 364 363 363 363 362 361 361 360 359 358 357 355 353 351 350 349 348 348 348 349 350 351 352 353 355 355 356 357 358 358 358 358 358 357 358 358 359 359

ECMWFNIL_850_thetae_051.txt.gz
Theta_e
343 342 341 339 338 336 335 336 337 336 335 335 335 333 332 331 332 332 333 337 337 335 333 334 335 336 339 344 344 344 344 344 345 346 347 347 347 346 345 343 341 338
344 342 342 342 340 337 336 336 336 337 336 335 334 332 331 331 333 333 333 337 339 337 335 335 335 335 338 342 343 343 342 342 342 344 346 346 347 347 345 343 342 339
345 343 343 343 341 338 336 336 337 337 335 335 334 332 330 329 331 333 335 336 339 339 338 337 336 336 336 339 342 343 342 341 340 341 343 344 346 347 345 343 342 340
345 344 342 342 340 339 338 337 336 336 336 335 333 332 330 329 330 334 336 337 337 338 339 338 337 337 336 337 339 340 340 339 339 340 342 342 344 345 345 345 343 341
346 344 342 341 341 340 340 337 336 335 335 334 333 332 331 330 330 333 335 336 336 336 337 338 337 337 337 336 337 338 338 338 338 339 340 340 342 343 343 344 343 340
347 345 343 342 341 342 341 338 335 334 334 334 333 332 331 329 330 332 334 334 334 334 335 336 336 336 337 337 337 337 337 338 338 338 339 338 339 340 342 343 342 339
348 346 344 343 343 343 342 339 336 335 334 334 334 333 331 330 330 331 333 332 332 332 333 334 335 336 337 337 338 337 337 337 338 338 337 337 337 338 339 340 341 339
349 348 346 345 344 344 342 340 339 337 336 336 335 333 331 330 330 331 332 332 331 332 333 334 334 335 335 337 336 337 337 337 337 337 337 336 336 336 336 337 338 338
350 348 347 346 346 344 343 342 340 339 338 337 335 333 331 331 330 330 331 331 331 331 331 333 334 334 334 334 335 335 335 335 335 335 336 335 335 334 334 336 336 336
350 350 349 348 347 345 343 341 340 340 339 338 336 334 333 331 331 330 329 330 330 329 329 331 332 333 333 334 333 333 334 333 333 334 334 334 333 333 333 335 335 336
350 350 350 350 348 347 344 342 340 340 339 338 337 336 333 332 331 331 330 329 329 328 328 329 330 331 332 332 332 332 333 333 333 333 332 332 333 332 332 333 334 334
352 351 351 350 350 349 347 343 341 339 338 337 337 336 333 332 332 331 329 329 329 328 328 328 330 330 331 332 332 332 332 332 332 333 332 333 333 333 332 333 333 332
352 352 352 351 351 350 349 347 343 341 339 337 336 336 334 332 331 330 330 329 329 328 328 329 329 330 331 332 332 332 332 332 332 332 332 332 333 333 333 333 333 333
352 352 352 351 352 352 351 350 346 344 341 339 337 336 334 332 331 330 330 329 329 329 329 329 329 330 330 331 332 332 332 332 332 332 332 333 333 333 334 334 334 333
352 353 353 353 353 353 353 352 350 347 345 342 340 338 335 333 332 331 331 330 330 330 330 330 330 330 331 331 332 332 332 332 333 333 333 333 333 334 335 335 335 334
354 354 353 353 353 354 354 354 352 350 348 346 344 341 338 335 334 333 332 331 331 330 330 330 330 330 331 331 332 332 332 332 333 333 334 334 335 336 337 336 336 336
354 354 354 354 354 354 355 355 354 352 351 349 348 344 341 338 336 335 334 333 332 331 331 331 331 330 331 331 332 331 332 333 333 333 335 336 337 338 337 338 338 338
355 355 355 355 355 355 356 356 355 355 353 352 350 348 345 342 339 336 334 335 334 333 332 332 332 331 331 331 331 332 332 333 334 335 337 338 338 338 339 340 340 341
355 355 355 355 356 356 357 357 357 356 355 354 352 351 349 346 342 338 335 336 335 335 335 334 333 332 332 332 332 333 333 334 336 337 339 339 340 340 341 341 343 344
355 355 355 356 357 358 358 358 358 358 357 356 355 354 352 350 345 341 339 337 337 337 337 336 335 334 333 333 334 334 334 336 338 340 341 342 342 343 343 344 345 346
356 356 356 357 358 359 359 359 360 360 359 359 357 356 355 353 350 345 341 339 338 339 339 338 337 336 335 335 334 335 337 339 341 342 344 344 345 345 346 347 347 348
357 358 358 359 359 359 360 360 361 361 361 361 360 358 358 356 353 349 344 342 342 341 341 339 337 336 337 336 336 337 340 342 343 344 345 345 345 346 347 348 349 350
357 357 358 359 359 360 361 362 362 362 362 363 361 361 360 358 354 350 347 345 344 343 341 340 337 337 338 338 338 340 343 344 345 345 346 346 346 346 348 349 350 351
356 356 358 359 360 362 362 362 363 363 363 363 363 362 362 359 357 354 351 348 346 342 341 340 338 337 339 339 340 342 344 345 346 346 346 347 347 348 349 350 351 352
356 357 360 361 362 363 362 363 363 363 363 363 363 363 363 361 359 358 356 354 350 347 345 344 341 339 341 341 342 343 346 346 347 347 348 348 349 350 350 351 352 353
358 360 361 362 362 363 362 363 363 363 363 363 364 364 363 363 362 360 358 357 356 353 351 348 346 344 343 343 343 344 345 347 348 349 349 349 349 350 351 352 352 353

ECMWFNIL_850_thetae_054.txt.gz
Theta_e
345 344 342 341 339 339 338 337 335 334 334 336 336 335 334 334 335 335 335 336 336 336 336 335 334 334 334 335 337 340 342 343 343 344 345 345 346 346 346 345 344 343
346 344 343 341 340 339 339 338 336 334 333 335 336 336 335 335 335 335 336 336 336 334 335 335 334 333 334 334 335 338 341 342 342 343 344 344 345 346 346 346 345 344
346 345 344 342 341 339 338 338 337 336 335 335 336 337 337 335 335 335 335 336 336 335 335 335 334 333 333 334 334 335 339 341 342 342 343 343 344 345 345 346 346 344
347 345 343 342 341 340 340 339 339 337 336 335 335 336 337 336 336 335 334 335 336 335 335 335 334 333 334 335 335 335 336 339 341 341 342 342 342 343 344 345 345 345
348 346 344 342 342 342 342 341 339 338 337 336 336 336 337 337 336 335 334 333 334 335 334 335 334 334 334 335 335 336 336 337 339 339 340 340 340 340 341 343 343 344
348 347 345 344 343 343 343 341 340 339 338 337 336 336 336 337 336 335 333 331 331 334 335 335 335 335 335 335 336 335 336 336 336 338 338 337 338 339 340 341 342 342
349 348 347 346 346 345 343 340 339 338 338 338 337 336 336 336 335 335 333 330 330 332 335 335 335 335 336 335 335 336 336 336 336 336 336 336 336 337 337 338 339 340
348 348 348 347 347 346 344 341 339 338 338 338 338 337 336 336 335 334 332 331 330 331 333 335 335 335 335 336 336 336 336 336 336 336 336 335 336 335 335 335 336 337
349 348 348 348 348 347 345 343 339 338 338 338 338 337 336 335 334 333 332 331 330 331 332 333 333 334 333 334 334 335 335 336 336 336 336 335 335 334 334 334 334 333
349 349 349 348 348 348 347 345 342 340 338 337 337 337 336 334 334 333 332 331 330 330 331 333 333 332 332 333 333 334 335 335 335 335 334 334 334 333 333 333 333 332
349 349 349 349 348 348 348 347 345 343 340 337 337 337 335 335 334 333 332 331 330 329 330 331 332 332 331 332 333 333 333 333 334 333 333 332 332 332 332 332 332 331
349 349 349 348 348 348 348 348 347 345 342 339 337 337 336 335 335 334 333 331 330 329 329 329 330 330 330 330 331 332 333 333 333 333 332 332 331 331 331 331 332 331
349 349 349 348 348 348 349 349 348 347 345 342 338 337 337 335 335 335 333 332 331 330 329 329 329 329 329 329 329 329 331 331 331 332 332 331 332 332 332 332 331 332
349 349 348 348 348 349 349 349 349 348 347 345 343 340 337 336 335 335 334 333 332 331 330 330 330 329 328 328 328 328 329 330 330 331 332 332 332 331 332 332 331 331
349 349 349 349 349 349 349 349 349 349 349 347 345 341 338 336 335 335 335 335 334 332 331 330 330 329 328 328 328 328 328 329 329 330 331 332 332 332 332 331 332 332
349 349 350 349 349 350 350 350 350 350 349 349 347 343 339 338 336 336 335 335 334 333 332 331 330 328 328 328 328 328 329 328 329 330 330 331 331 332 332 332 332 332
350 350 350 350 350 350 350 350 350 350 351 350 349 347 343 341 339 338 336 336 335 335 334 332 330 329 328 328 328 328 329 329 329 330 330 330 331 331 332 332 333 333
350 350 351 350 350 350 350 350 351 351 351 351 351 350 347 345 343 340 338 337 336 336 334 333 332 330 329 329 329 329 329 329 330 330 330 330 331 331 332 332 333 334
351 351 351 350 350 350 351 351 352 352 351 352 352 351 350 349 347 343 341 339 339 337 336 335 333 331 331 331 330 330 330 330 330 330 330 330 331 331 332 333 334 335
351 351 351 351 350 351 351 351 352 352 352 352 352 353 353 351 349 346 343 341 340 338 337 336 335 333 332 332 331 330 330 331 331 331 332 332 332 333 333 334 335 336
352 352 351 351 351 352 352 352 352 352 352 352 354 354 354 354 351 349 346 344 342 340 338 337 335 334 333 333 332 332 332 332 332 333 333 333 334 334 335 336 337 339
351 352 352 352 352 352 353 353 353 352 353 354 355 355 356 356 355 354 352 349 347 345 343 339 335 334 334 334 334 334 334 335 335 335 335 335 335 335 336 337 339 340
352 352 352 352 352 353 354 353 353 353 354 355 356 357 357 358 358 357 356 353 352 350 347 342 336 334 335 335 335 336 337 338 337 337 336 337 336 336 338 339 341 342
351 351 352 352 353 353 354 354 354 354 355 356 358 358 359 359 359 360 359 357 356 353 349 344 339 335 336 337 337 339 340 340 339 339 339 338 338 338 339 341 342 343
351 351 352 351 353 353 353 355 356 357 358 358 359 360 360 360 361 361 360 360 359 357 355 352 348 342 341 341 342 343 344 343 342 342 341 341 340 340 341 342 344 344
351 351 352 352 354 354 355 356 357 358 359 359 360 360 360 361 361 361 361 362 361 360 359 358 355 351 349 348 347 347 346 345 345 344 343 342 343 343 344 345 345 347

ECMWFNIL_850_thetae_057.txt.gz
Theta_e
337 336 336 335 334 333 334 335 334 335 334 334 333 333 334 335 335 336 336 337 337 337 336 337 337 337 336 335 334 335 336 338 341 343 344 344 345 346 346 347 347 346
341 340 339 338 337 337 337 337 337 337 336 336 335 334 334 335 336 336 336 336 337 336 336 336 336 336 335 334 334 334 335 336 338 341 343 343 344 345 346 347 347 347
345 344 343 342 341 340 340 339 339 339 338 338 337 335 334 335 336 336 336 336 336 336 336 335 335 335 334 334 334 334 334 334 335 338 341 342 343 344 345 345 347 347
347 346 345 343 342 342 341 340 340 339 339 338 337 336 334 334 335 336 336 336 336 337 336 336 335 334 334 334 334 333 333 334 334 335 338 341 342 342 343 343 344 345
347 346 346 345 344 343 342 341 339 339 338 338 337 336 335 334 334 336 337 336 336 336 337 337 336 335 334 335 334 333 333 334 334 335 336 338 340 340 341 341 341 342
347 347 347 347 346 344 342 340 338 337 337 337 337 337 336 335 335 335 336 336 336 336 336 336 336 336 335 335 334 333 334 335 335 335 335 336 337 338 338 339 339 340
348 348 347 348 347 346 344 341 338 337 337 337 337 337 336 336 336 335 335 336 336 335 335 335 335 335 335 335 334 333 333 335 335 335 335 335 335 335 335 336 336 337
348 348 348 348 348 347 346 342 339 337 337 337 337 337 337 337 336 335 335 335 335 335 334 334 334 335 336 336 335 335 334 334 335 335 335 336 335 335 334 334 335 335
347 348 348 348 348 348 347 344 340 338 337 337 337 337 337 336 336 336 335 335 335 334 333 333 333 334 336 336 336 335 335 335 335 335 335 336 336 335 334 335 335 334
347 347 348 348 348 348 347 346 344 341 339 338 337 336 336 336 336 336 335 335 334 334 333 333 332 332 334 336 336 336 336 335 335 335 335 335 335 335 335 335 335 334
347 348 347 348 348 348 348 347 346 345 343 340 339 337 335 334 335 335 334 334 334 333 332 331 331 331 332 334 335 335 335 335 335 335 334 335 335 334 334 334 333 333
347 347 348 348 348 348 348 347 347 346 345 343 342 339 336 334 334 333 333 333 332 332 332 331 330 330 331 332 333 333 333 333 333 334 333 334 333 333 332 332 332 331
347 347 347 348 348 348 348 348 347 347 346 345 344 341 338 335 334 333 332 332 332 332 331 331 330 330 329 330 331 332 332 332 332 332 333 333 332 332 332 331 331 331
347 347 347 347 348 348 348 348 348 347 347 346 345 343 340 337 334 334 333 332 332 332 331 331 330 329 329 330 330 331 331 331 330 331 331 332 332 332 331 331 331 330
346 347 347 347 348 348 348 348 348 347 347 347 346 344 341 338 336 334 334 333 333 332 332 331 330 330 329 328 329 329 329 329 329 328 329 329 330 331 331 331 331 331
347 346 347 347 347 347 348 348 348 348 348 347 347 346 344 341 338 336 335 333 333 333 332 332 331 329 329 328 328 329 328 328 328 328 328 328 328 329 330 330 331 331
347 347 347 347 347 348 348 348 348 348 348 348 348 347 346 343 341 339 336 333 332 332 332 332 331 329 328 328 328 328 328 328 328 328 328 327 328 328 329 330 330 330
347 347 347 347 347 348 348 348 348 348 348 348 348 348 348 346 344 341 336 334 333 332 332 332 331 329 329 329 329 328 328 329 328 328 328 328 328 328 329 330 330 330
348 348 348 347 347 348 348 348 348 348 348 348 349 349 349 348 347 344 340 336 335 333 331 332 331 330 330 329 329 328 328 329 329 328 329 328 329 329 329 329 330 330
349 349 348 347 347 348 348 348 348 348 348 348 349 349 350 349 349 348 345 342 339 336 334 333 333 332 331 330 330 329 329 329 329 329 329 329 329 329 329 330 330 330
349 349 348 348 348 348 348 348 348 348 348 349 349 349 350 350 350 350 349 348 345 343 340 337 334 332 331 331 331 330 330 330 330 331 331 330 330 330 330 330 330 331
349 349 348 348 348 348 349 348 348 349 348 349 349 350 350 350 350 351 351 350 349 348 346 342 337 335 333 332 331 331 332 333 333 332 332 332 331 331 331 331 331 332
349 348 348 348 348 348 349 349 348 348 348 349 349 350 350 351 351 351 351 351 351 351 350 346 340 337 335 334 334 334 335 335 334 334 334 333 332 332 332 333 333 333
348 348 348 348 348 348 349 349 349 349 349 350 350 350 351 351 351 352 352 353 353 354 353 350 346 343 341 339 339 338 339 339 338 337 337 335 334 334 334 334 334 334
348 348 348 348 348 349 349 349 350 349 350 350 351 351 351 351 352 352 353 354 355 356 356 354 353 351 348 345 344 344 344 344 343 343 342 339 336 336 335 335 335 335
349 348 349 349 349 350 350 350 350 350 351 351 352 352 352 353 353 354 355 356 356 357 358 358 357 356 353 349 348 348 348 348 348 347 345 342 340 338 337 337 337 337

ECMWFNIL_850_thetae_060.txt.gz
Theta_e
333 332 332 331 331 330 330 329 329 330 328 328 330 331 332 332 333 335 335 336 341 342 341 341 342 342 342 342 341 341 342 342 340 339 341 344 345 347 349 350 350 350
336 334 334 334 333 332 331 331 330 332 330 328 329 331 331 332 332 333 334 335 339 341 340 341 342 343 343 342 340 340 342 343 340 337 338 341 343 346 349 350 350 349
339 337 337 337 336 334 332 332 332 333 332 331 331 332 332 332 333 333 334 335 337 338 338 340 342 342 342 342 340 340 341 342 340 336 336 340 343 344 348 351 352 351
342 340 338 338 337 336 334 333 333 333 334 334 334 334 334 335 334 333 334 335 336 337 336 338 340 341 342 341 341 341 340 340 340 337 335 339 341 341 344 347 350 351
344 342 340 339 338 337 336 335 335 335 335 335 336 337 336 336 335 333 333 334 336 337 336 337 338 339 340 341 341 342 340 339 341 339 336 337 338 338 340 343 344 345
347 345 343 341 340 340 339 338 337 337 337 337 338 338 338 337 335 334 333 334 334 336 336 336 336 337 338 339 341 341 340 341 343 341 338 337 335 336 339 340 340 342
348 347 346 345 344 343 342 341 340 340 340 340 339 339 338 337 335 334 333 333 334 335 337 336 336 336 335 338 340 339 338 340 340 338 339 339 336 336 338 337 337 338
348 348 347 347 346 346 345 344 343 342 341 341 340 339 338 337 336 334 333 333 333 334 336 336 336 336 335 337 339 338 336 336 336 335 337 339 337 335 336 335 335 336
348 348 347 347 347 347 346 345 345 343 342 341 340 338 337 336 336 336 334 333 333 334 335 335 335 335 334 336 336 335 334 334 335 334 336 341 339 335 337 338 338 337
347 347 347 348 348 347 347 347 347 346 342 340 338 338 338 336 335 335 335 333 333 334 334 335 335 334 334 334 333 333 333 333 335 334 335 340 339 336 337 340 341 341
346 347 347 348 347 349 349 349 350 350 346 340 337 339 339 337 336 336 336 334 333 334 334 334 334 333 333 332 332 332 334 333 334 333 334 337 338 336 336 338 340 341
345 346 347 347 347 349 351 351 351 353 351 343 337 338 338 337 336 335 335 335 334 333 333 333 333 333 332 332 331 332 333 334 334 334 334 335 337 337 336 337 336 336
345 345 347 348 347 348 351 352 352 353 353 349 341 336 338 339 337 336 334 335 335 333 333 333 333 333 332 331 331 331 332 333 333 333 334 334 334 334 334 335 335 333
344 346 345 346 346 346 349 352 353 353 354 353 346 338 340 341 339 337 334 333 334 334 333 333 333 333 332 332 331 330 330 332 333 333 332 332 332 332 332 334 334 332
345 347 345 345 346 346 347 349 351 352 352 352 347 342 342 343 342 342 339 334 333 333 333 333 332 333 332 332 331 330 329 330 331 332 332 332 332 331 332 333 332 333
346 346 345 345 346 345 346 347 348 349 350 349 346 344 344 344 344 346 346 341 335 332 333 333 331 332 332 331 330 329 329 328 330 331 331 331 331 331 331 331 331 331
345 345 345 344 345 345 346 347 347 348 348 348 347 346 345 345 345 345 347 348 343 335 332 332 332 331 331 330 330 329 328 328 329 329 330 331 331 330 330 329 329 329
345 345 345 345 344 344 345 345 347 347 348 347 347 347 346 346 346 345 346 349 348 343 338 335 332 332 331 330 330 329 329 328 327 328 329 329 329 329 328 328 328 328
346 345 346 345 345 344 345 345 346 346 347 347 347 348 347 347 347 347 346 347 348 348 343 339 336 333 331 330 330 329 329 328 327 327 328 328 328 327 328 327 327 328
346 346 346 346 344 345 344 345 346 346 347 347 347 348 347 347 347 347 347 347 347 347 345 341 340 336 331 330 331 330 329 328 328 328 328 328 328 327 327 327 327 328
346 347 346 346 346 345 345 345 346 346 347 347 348 347 347 348 347 347 348 348 347 348 346 343 341 338 332 330 330 330 330 329 329 329 329 329 329 328 327 327 327 327
347 347 347 347 346 346 346 345 346 346 347 347 348 348 348 348 347 348 348 348 347 348 347 346 344 340 335 330 330 330 331 331 330 331 331 330 329 329 328 328 328 328
347 347 347 347 347 347 346 347 346 346 346 347 347 348 348 348 348 348 348 348 349 348 348 348 346 344 339 334 333 331 332 332 331 332 331 331 330 329 329 329 328 328
347 347 347 347 347 348 347 347 347 347 347 347 347 347 348 348 348 348 348 348 349 349 349 348 348 347 344 340 338 337 336 335 335 335 333 332 331 330 330 330 329 329
347 346 348 347 348 348 348 347 348 347 347 348 347 347 348 348 348 348 348 349 349 349 350 349 349 349 348 344 343 342 341 341 340 340 338 335 333 332 332 331 330 330
347 347 347 348 348 349 348 348 348 347 347 347 347 348 348 347 348 348 348 348 349 349 351 350 350 351 350 348 347 346 345 345 346 345 343 338 336 335 334 334 332 330

ECMWFNIL_850_thetae_063.txt.gz
Theta_e
331 329 327 327 326 326 332 335 333 327 326 333 340 340 343 347 346 346 351 351 345 341 341 340 340 342 343 344 341 342 343 343 345 349 349 347 349 353 356 355 356 356
336 334 331 329 329 327 330 335 335 330 325 327 335 343 347 349 346 342 346 350 347 344 343 341 341 342 343 344 342 341 343 342 341 347 349 346 347 352 356 357 357 356
340 337 334 331 331 329 329 333 333 330 328 326 326 335 345 350 347 340 338 343 346 345 344 341 339 341 342 344 343 341 343 343 342 345 347 344 344 350 355 356 356 356
342 340 337 334 333 332 330 333 334 330 330 331 328 329 338 346 349 347 337 334 338 340 343 344 341 342 343 343 343 342 341 343 342 344 345 342 340 345 351 355 356 357
342 341 339 336 334 334 333 334 337 335 332 333 333 334 336 338 345 351 343 334 333 334 339 344 341 340 343 340 341 343 341 343 345 344 343 343 342 342 348 352 353 354
341 339 339 338 335 335 336 335 335 338 336 335 337 341 343 338 336 345 347 339 335 335 339 344 343 340 343 340 338 340 341 345 350 349 344 342 344 346 350 351 352 351
339 337 337 338 336 336 337 338 336 337 338 339 340 344 348 345 337 337 342 341 339 339 340 346 347 343 344 346 341 338 338 340 346 350 348 344 343 345 349 351 353 351
339 338 337 337 339 339 338 339 339 337 336 339 344 346 347 349 344 336 335 337 340 341 340 345 347 343 343 350 348 340 337 337 340 345 343 341 343 344 343 347 351 349
343 343 341 340 342 342 342 343 343 340 335 336 342 348 348 348 348 344 337 335 337 339 338 339 343 340 338 345 347 340 337 336 341 344 340 336 339 343 342 343 346 346
345 347 348 347 348 348 347 349 350 346 341 336 339 348 350 349 349 349 343 337 333 335 335 333 336 337 335 337 340 338 334 334 337 344 345 340 337 341 343 345 347 347
348 350 353 351 351 352 353 353 354 352 349 343 340 347 352 352 350 349 347 341 333 333 333 332 332 334 335 336 337 336 334 332 334 338 340 339 338 338 342 347 350 351
352 354 356 354 352 354 356 354 354 354 353 350 346 347 351 353 353 349 344 340 334 332 332 332 332 333 333 335 339 341 339 335 336 339 338 336 335 334 336 340 345 347
355 355 356 357 356 354 355 355 354 353 353 353 352 351 351 352 354 351 344 337 334 334 333 331 331 332 333 333 336 343 343 338 339 345 345 341 336 333 336 341 344 345
356 355 355 356 356 354 354 356 354 352 351 353 354 355 353 351 353 354 350 342 336 334 334 333 332 330 333 334 332 335 340 338 335 338 345 348 344 338 339 344 348 350
356 357 357 355 356 355 354 355 355 352 352 353 354 356 354 352 352 354 354 351 344 337 334 335 335 332 331 333 332 331 334 336 332 329 335 345 348 346 346 346 347 347
356 356 356 355 354 354 353 353 354 355 353 353 354 356 355 354 352 352 354 356 353 347 338 334 336 336 332 331 332 332 331 332 333 329 328 334 339 343 345 347 347 346
357 354 354 354 353 353 353 351 353 355 354 353 354 356 356 355 354 352 352 354 357 356 349 340 336 336 334 331 331 331 331 331 330 330 329 328 331 334 336 339 343 345
357 354 354 353 352 353 351 347 349 353 355 355 355 357 358 357 355 355 353 352 355 358 357 351 344 339 334 331 331 330 330 331 330 330 330 329 328 329 330 330 333 338
355 353 353 352 350 349 347 344 345 349 354 356 358 359 359 356 353 354 355 354 354 356 358 358 355 348 338 331 330 331 330 331 331 331 331 333 332 330 329 328 328 330
356 354 351 350 349 348 347 344 343 344 350 356 359 359 357 352 349 352 354 353 353 355 358 359 359 357 349 337 330 330 331 331 332 332 335 340 342 337 332 329 327 327
359 356 352 351 350 348 346 344 342 342 346 353 358 358 354 348 346 349 353 351 349 351 357 359 358 358 356 348 336 331 331 331 332 333 334 337 340 339 334 329 328 326
360 357 355 352 349 347 345 343 343 342 343 349 355 358 356 351 346 347 351 351 347 347 352 357 357 355 355 352 343 334 333 333 332 332 332 332 333 333 330 328 327 326
360 358 356 353 350 347 345 344 342 343 343 345 350 355 357 354 349 347 348 350 349 347 346 350 353 352 350 347 344 339 336 335 332 332 332 331 331 331 329 328 327 326
360 358 355 353 350 347 345 344 343 343 344 344 346 349 353 355 353 351 350 350 350 348 345 345 349 350 347 344 344 342 339 337 335 334 334 332 331 331 329 329 328 326
360 358 355 352 350 347 346 345 345 343 344 344 344 345 349 355 357 357 355 354 352 351 348 345 346 349 348 345 344 343 341 340 340 339 339 336 333 332 331 330 329 329
359 358 355 353 351 348 347 347 346 345 345 344 344 346 350 355 359 360 359 357 355 355 354 350 347 347 347 346 344 343 342 342 344 344 343 340 335 334 335 333 331 329

ECMWFNIL_850_thetae_066.txt.gz
Theta_e
325 326 326 327 326 327 328 329 329 327 326 327 327 326 327 331 341 349 351 350 344 340 340 340 340 341 342 342 342 343 343 343 347 349 345 345 348 350 353 355 354 352
326 325 325 325 326 327 328 329 328 327 326 327 328 329 331 332 336 342 348 349 346 341 340 340 340 340 340 342 341 341 341 340 342 343 341 342 343 347 354 357 355 352
330 328 326 325 325 326 327 328 328 329 328 326 327 331 337 342 340 338 342 347 348 344 339 339 341 340 340 340 340 340 341 340 340 340 340 341 340 342 351 357 356 354
334 331 329 328 326 326 326 327 328 329 329 328 325 327 334 344 347 343 339 341 345 347 342 337 338 340 340 339 340 341 340 340 340 341 342 340 338 339 345 352 355 357
336 335 332 331 329 329 328 328 329 329 329 329 328 325 327 336 346 348 343 338 338 341 342 337 334 336 338 338 340 340 340 340 340 340 341 341 340 338 340 345 351 355
339 338 336 334 333 333 332 331 330 331 330 329 328 329 329 331 338 345 346 341 336 336 338 336 334 334 335 336 338 339 339 339 340 340 340 341 342 340 342 345 347 349
339 339 339 337 336 336 337 335 333 332 331 329 329 332 335 335 335 338 343 344 340 336 335 337 337 336 336 335 335 336 337 338 341 343 340 340 342 341 343 348 350 348
340 340 339 340 340 338 339 338 337 334 332 332 333 335 338 341 340 338 339 342 344 342 337 337 341 341 340 339 335 333 335 335 340 342 340 338 339 340 342 345 348 349
342 341 341 341 341 340 339 339 339 337 334 334 337 340 341 342 344 342 339 339 342 344 341 339 341 343 342 342 339 334 333 334 336 339 339 337 337 338 339 340 342 343
343 342 341 341 341 340 340 339 340 338 335 334 336 341 343 343 344 345 343 340 340 343 344 342 342 344 344 344 343 339 334 333 335 338 338 337 335 335 336 338 340 340
343 342 340 339 338 339 339 340 343 342 338 335 335 338 343 344 345 346 346 345 342 341 343 342 343 344 345 344 344 342 338 335 335 337 338 336 334 334 334 337 338 339
343 342 340 337 337 337 338 341 345 348 346 340 337 338 341 345 347 347 346 346 342 339 338 339 340 343 344 343 342 341 339 337 336 336 336 336 334 332 332 334 338 339
346 343 341 340 337 337 340 344 347 350 351 347 342 341 342 346 349 350 348 346 344 339 336 336 336 339 341 339 339 339 338 338 339 337 335 333 333 332 331 332 334 335
348 346 345 344 342 339 342 348 349 349 351 350 348 346 346 347 350 353 352 349 347 343 338 336 335 336 338 336 334 335 336 337 340 341 339 335 332 332 332 332 334 336
352 351 350 349 347 344 345 349 351 350 350 352 351 350 350 349 349 352 354 353 352 349 343 341 339 336 334 333 331 332 334 335 338 339 340 340 337 335 335 335 339 344
355 353 352 351 351 349 349 350 352 352 352 353 352 352 352 352 350 351 354 355 355 353 349 347 343 337 333 331 331 330 330 333 335 336 338 340 341 340 341 341 344 345
356 355 354 352 351 351 350 350 352 353 354 353 354 353 353 352 351 350 352 355 356 356 354 351 347 340 334 331 330 330 330 331 332 333 334 337 339 340 342 343 346 347
356 355 355 353 352 351 351 351 352 354 355 354 353 353 352 353 352 350 350 353 355 357 357 355 351 345 339 335 333 332 332 330 331 332 332 334 335 338 339 338 339 343
356 355 356 354 352 351 351 351 351 353 355 354 352 352 352 353 352 351 350 350 353 356 357 357 356 352 347 341 336 333 333 332 331 332 332 333 333 334 336 335 333 333
358 356 354 354 352 353 352 352 351 351 353 354 353 352 352 353 353 353 352 350 351 354 355 356 357 357 355 350 343 337 333 332 332 332 333 335 336 335 336 338 337 334
359 357 355 355 354 353 353 354 352 351 351 352 354 353 353 353 354 353 353 351 350 350 352 354 356 357 358 357 352 345 340 336 335 335 336 338 342 344 343 343 343 341
360 358 357 356 355 354 354 354 353 351 350 351 354 354 354 354 354 354 354 354 352 349 349 352 355 357 358 358 355 352 349 347 343 338 336 337 341 347 349 351 350 347
360 360 358 358 356 355 353 352 352 352 350 350 352 355 355 355 355 354 355 355 354 351 348 348 352 355 357 357 357 355 355 354 350 344 337 334 335 339 345 349 352 350
361 361 360 359 357 356 354 353 352 352 351 350 351 354 355 356 357 356 356 356 356 354 350 347 347 349 352 355 355 356 357 356 355 350 343 338 335 334 335 339 343 345
362 362 361 360 359 357 355 355 353 353 353 350 350 352 354 357 359 359 359 358 357 356 355 350 344 344 347 349 350 352 354 354 354 352 347 342 339 336 334 334 335 335
364 364 363 361 360 359 359 359 357 356 355 353 351 350 353 357 360 361 362 361 359 358 358 355 350 348 347 346 345 346 348 350 350 350 348 343 341 339 337 336 334 333

ECMWFNIL_850_thetae_069.txt.gz
Theta_e
328 329 330 329 329 330 329 331 334 336 335 334 333 330 329 329 331 334 336 338 340 339 338 340 342 344 343 343 348 351 348 345 342 342 346 346 345 347 349 350 351 352
327 327 328 328 328 328 328 328 329 329 328 328 327 327 327 327 328 331 334 337 339 339 339 338 339 340 341 341 343 346 345 342 340 340 341 342 343 346 347 349 350 351
326 326 327 327 327 327 327 327 327 327 327 326 326 326 326 326 326 329 334 337 338 337 338 339 338 338 339 339 339 341 342 340 340 340 338 339 340 342 345 349 352 352
326 326 326 326 326 326 327 326 326 326 326 326 327 326 326 326 326 328 333 336 334 333 336 337 338 338 339 338 337 338 339 339 339 339 338 338 338 339 341 346 351 354
329 327 326 325 325 326 326 327 327 326 327 327 327 327 327 327 327 328 332 336 333 331 332 333 335 337 339 339 337 336 337 337 338 338 338 338 338 338 338 341 347 354
333 330 328 327 326 325 325 325 325 326 326 327 326 326 328 330 330 330 331 335 334 332 331 331 332 333 335 337 338 337 336 337 337 337 337 338 339 338 338 338 341 346
337 335 332 329 327 326 325 325 325 324 325 325 325 326 327 331 334 335 335 337 337 334 332 330 330 332 333 334 335 336 337 337 337 337 336 337 338 338 338 338 337 339
340 338 335 333 330 329 328 326 325 325 324 324 324 324 324 327 331 336 339 341 341 339 334 332 330 331 332 333 333 334 335 336 336 336 336 336 337 337 337 337 337 337
344 341 337 336 334 332 331 329 328 327 326 325 324 324 324 324 326 331 335 338 341 340 337 334 332 331 332 332 332 333 333 334 334 334 335 335 335 336 337 338 338 337
349 346 342 339 337 335 333 332 330 329 328 327 326 326 325 324 324 327 330 333 336 337 335 334 333 332 331 331 332 333 333 333 333 333 333 334 334 334 335 336 337 337
352 350 347 342 339 338 336 334 332 331 330 329 328 327 326 326 325 327 329 333 334 334 333 333 332 331 331 331 330 331 333 333 333 332 332 333 334 334 334 334 335 335
355 353 351 346 342 339 338 337 335 333 332 331 330 329 328 328 328 329 330 333 334 334 334 332 332 332 331 331 331 331 332 333 333 333 332 332 333 333 333 333 333 333
357 356 353 349 345 342 340 338 337 335 334 332 331 330 330 330 331 331 332 333 335 336 335 335 334 334 334 334 334 332 331 331 332 332 333 332 332 332 331 331 331 331
358 358 356 351 346 344 342 340 339 338 336 334 333 332 332 332 332 333 333 334 336 336 337 337 337 337 337 337 336 334 332 331 332 332 332 332 332 331 331 330 329 330
359 359 357 353 349 346 343 342 341 340 339 337 336 334 334 333 334 334 335 336 337 338 338 340 340 340 339 338 337 335 333 332 332 332 332 333 333 332 332 330 329 329
361 361 359 356 353 348 345 343 342 343 342 341 339 337 336 336 336 336 338 339 339 340 340 341 342 341 340 338 337 335 333 333 333 333 333 333 333 333 333 332 330 329
362 361 359 358 355 351 346 343 343 343 344 343 341 339 339 339 339 339 342 343 342 341 342 343 342 340 339 339 338 337 336 335 334 333 333 333 333 333 332 332 331 330
363 362 361 358 357 354 350 345 343 343 343 343 342 342 342 343 343 343 344 345 345 344 344 344 343 341 338 337 338 337 336 336 335 334 334 333 333 333 332 332 331 330
364 363 361 359 358 355 352 348 345 344 343 343 343 343 344 345 345 346 346 347 348 348 347 347 346 344 342 340 340 338 336 336 335 336 335 333 333 332 332 333 332 332
364 363 361 359 357 356 354 351 348 346 343 342 343 344 346 346 348 348 348 349 349 350 350 350 349 347 345 344 343 341 339 337 336 336 336 335 333 332 332 332 333 333
364 363 362 360 358 357 356 354 351 348 346 345 345 347 347 348 349 350 350 349 350 351 352 352 352 350 348 346 345 343 342 341 341 340 339 338 336 334 333 332 333 333
363 363 362 360 359 357 357 356 353 351 349 348 349 349 349 349 350 351 352 351 350 351 352 352 353 352 351 349 347 344 344 345 347 345 344 342 338 337 336 334 334 334
361 362 361 360 359 358 358 357 356 354 351 350 351 352 352 351 351 352 353 352 351 351 351 352 353 352 352 351 350 348 349 350 349 350 348 345 341 339 338 337 337 336
360 362 361 360 360 358 358 357 357 356 353 352 351 352 353 353 353 353 353 352 352 351 349 351 352 352 353 352 352 352 353 352 351 351 350 346 342 341 342 341 340 340
358 361 361 360 359 358 358 358 357 357 356 353 352 353 354 354 353 353 353 353 352 351 349 348 349 350 352 353 353 354 354 353 353 353 353 349 344 341 342 343 341 340
356 361 362 361 360 359 358 358 358 358 357 355 354 353 354 355 354 353 353 352 351 351 351 350 349 349 350 352 353 355 355 354 354 355 353 349 344 341 342 342 340 339

ECMWFNIL_850_thetae_072.txt.gz
Theta_e
333 336 338 338 337 337 337 335 337 338 336 337 340 340 338 337 339 339 339 340 339 340 340 340 341 342 344 346 345 345 346 347 346 345 345 346 345 345 345 345 348 351
332 335 337 338 337 336 335 334 334 335 335 336 336 338 339 338 338 338 338 339 339 340 339 338 339 340 343 344 343 343 344 345 344 344 346 346 344 346 347 347 348 351
331 333 336 336 335 334 334 333 332 332 332 333 334 335 335 335 335 334 335 336 337 339 339 338 338 339 341 342 342 342 342 341 341 341 342 343 344 345 347 348 348 349
329 331 334 334 332 332 333 333 331 330 328 329 330 330 330 329 329 328 330 332 335 337 338 337 337 337 339 340 340 341 341 340 339 339 339 339 341 343 344 347 347 347
328 329 331 332 331 330 331 332 331 329 327 327 327 327 328 327 326 326 327 328 330 335 338 339 337 337 337 338 338 339 339 339 339 339 339 337 338 339 341 344 346 347
327 327 328 329 330 329 330 330 329 328 327 327 326 326 327 326 326 326 326 326 327 330 334 336 337 337 337 337 338 337 337 337 338 338 338 337 337 338 338 340 344 347
329 327 327 327 328 328 328 328 328 328 327 327 327 327 326 326 326 326 325 326 326 327 329 331 332 334 336 337 337 337 337 336 337 337 338 337 337 338 337 337 338 342
333 330 327 326 327 327 327 327 327 327 327 327 327 327 327 326 326 326 326 325 326 326 328 329 330 331 332 334 336 337 336 336 336 337 337 337 338 337 338 337 337 338
341 336 331 329 327 326 326 326 326 326 326 327 327 326 326 326 326 326 326 326 325 326 327 328 329 330 330 331 332 333 334 335 335 336 336 337 337 337 337 337 338 337
345 342 338 333 330 328 326 326 326 325 325 325 326 326 326 326 327 326 326 326 326 325 326 327 328 329 329 330 330 332 333 333 333 334 334 334 335 336 336 337 338 338
348 345 343 339 335 331 329 328 327 325 325 324 325 324 325 325 325 325 325 325 325 325 325 325 326 328 327 328 328 330 331 332 332 333 333 333 333 334 335 336 337 337
350 348 346 343 339 336 334 332 330 328 327 326 326 325 325 324 324 324 324 324 324 325 325 324 325 326 327 327 327 328 329 330 331 332 333 333 332 333 333 334 335 336
353 351 349 346 343 340 338 336 334 332 330 328 328 327 327 325 325 325 324 324 324 324 324 324 325 326 326 326 327 328 329 329 330 331 332 333 332 332 332 332 333 334
355 354 352 350 347 345 343 341 338 336 334 332 331 330 329 328 327 326 325 325 325 324 324 324 325 326 326 327 327 328 329 329 330 330 331 332 332 332 331 331 331 332
356 355 354 353 352 349 347 345 342 340 338 336 334 332 332 330 330 329 328 327 326 326 325 325 325 326 326 327 328 329 330 331 331 331 331 330 332 332 332 331 330 330
357 357 356 356 355 353 352 350 347 345 342 339 337 335 334 333 331 330 329 329 328 327 326 326 326 326 327 327 328 329 330 331 331 332 332 332 332 332 332 331 331 331
358 358 357 358 357 357 356 354 352 350 346 344 341 339 338 336 334 333 331 330 329 328 328 327 327 327 327 328 329 330 331 332 332 332 333 333 333 333 332 331 331 331
358 359 359 359 359 358 357 355 354 352 351 348 345 343 341 339 338 336 335 333 332 330 330 330 329 329 328 329 330 331 332 333 333 333 333 333 333 332 331 331 331 331
360 361 361 360 360 360 358 357 355 354 353 351 349 346 344 343 341 339 338 337 335 333 332 332 331 331 330 331 331 332 334 336 337 337 335 334 333 333 332 331 330 330
361 361 361 362 362 361 360 359 358 356 355 353 351 349 347 346 344 342 341 340 338 337 335 334 333 332 331 332 332 334 336 339 340 340 339 337 336 334 333 332 331 330
360 360 361 362 362 363 362 361 360 358 356 354 352 350 349 348 347 345 343 342 341 340 339 337 336 334 333 334 334 336 339 341 343 343 343 341 339 336 334 333 332 331
357 357 359 361 362 362 363 362 362 361 358 356 354 352 351 349 348 348 347 345 343 342 341 340 338 337 337 337 337 339 342 343 345 346 346 345 342 338 335 333 332 332
355 356 358 360 360 361 362 362 362 362 361 359 356 354 352 351 350 350 349 348 346 344 342 341 340 340 340 339 340 342 345 347 348 348 348 347 344 339 335 333 332 332
357 357 358 359 360 360 361 362 362 363 362 361 359 357 355 353 352 351 350 349 348 345 343 343 342 342 342 341 342 344 348 350 350 349 349 348 345 341 337 334 331 331
358 358 358 358 359 359 359 361 362 363 362 361 360 359 356 354 353 352 351 350 349 347 346 345 344 344 344 344 343 346 350 351 351 351 350 347 344 340 337 334 332 331
358 358 358 358 358 358 359 360 361 362 362 362 361 359 357 355 353 352 351 350 349 349 348 348 347 347 346 346 346 347 350 352 352 353 352 350 346 341 337 335 333 331

ECMWFNIL_850_thetae_075.txt.gz
Theta_e
333 333 334 335 335 333 333 333 334 334 336 337 337 338 337 335 336 337 338 338 338 338 338 338 340 341 342 344 345 346 348 349 350 349 347 345 345 345 345 347 346 343
333 333 333 334 334 333 332 333 334 333 332 334 336 336 336 334 335 337 338 338 338 337 337 338 339 340 340 341 342 343 346 347 348 349 347 345 346 345 344 345 345 346
333 333 333 333 334 334 333 334 335 335 333 332 334 336 336 335 335 336 337 338 338 338 338 338 338 338 339 340 340 341 343 345 346 346 345 345 346 345 345 345 345 347
333 333 333 333 333 333 334 334 335 336 334 333 333 334 335 335 335 336 337 337 338 338 338 338 338 338 338 339 340 339 340 342 344 345 344 344 345 344 344 346 346 347
332 333 333 333 332 333 333 333 334 335 334 333 332 332 334 335 335 336 336 337 337 337 338 338 338 338 338 338 339 339 340 340 341 343 343 342 342 342 342 345 346 347
333 333 333 332 333 333 332 333 333 334 333 332 331 331 333 333 334 335 334 333 332 332 334 335 336 337 337 337 338 338 339 339 340 341 341 340 340 340 340 341 343 345
336 333 333 332 332 332 333 332 333 333 332 331 331 330 330 331 331 331 330 328 327 328 329 331 334 336 337 336 337 337 337 338 339 340 340 339 339 339 339 339 339 340
342 337 335 333 331 332 332 332 333 333 332 332 331 329 328 327 327 327 327 327 326 326 326 327 330 333 336 337 336 337 337 338 338 339 339 338 338 338 338 339 339 338
346 343 339 336 333 331 332 332 332 333 333 333 331 329 328 327 326 326 326 326 326 326 325 325 327 328 331 332 334 334 336 336 338 338 338 338 337 337 337 338 338 338
348 347 345 341 335 331 330 331 332 333 334 334 332 331 330 327 327 326 326 326 325 326 326 326 326 326 327 329 330 331 332 333 335 337 337 337 337 337 337 337 337 337
350 349 348 345 339 333 330 330 332 334 334 334 333 333 331 329 327 326 326 326 325 326 326 326 326 325 325 326 327 329 329 330 332 333 334 335 335 335 336 337 337 336
351 350 349 348 344 338 332 329 329 331 333 334 333 333 332 330 328 327 326 326 326 326 326 326 326 326 325 326 326 326 328 329 330 330 331 332 332 333 334 335 336 336
352 351 351 350 349 345 339 333 330 328 329 330 331 332 331 329 328 327 327 326 326 326 326 326 326 326 325 325 325 325 326 327 328 329 330 331 331 332 332 332 334 334
352 352 352 352 350 349 346 341 336 332 329 328 329 330 330 328 327 326 326 326 325 326 326 326 325 325 325 325 324 325 325 325 326 327 327 328 329 330 331 332 333 332
353 352 353 353 352 351 350 348 344 340 336 332 331 330 329 328 327 327 326 325 325 324 324 324 324 324 324 324 324 323 324 324 325 326 326 326 327 329 329 331 332 332
353 353 353 353 353 353 352 351 350 347 343 340 337 335 333 331 329 328 327 327 325 325 325 325 324 324 324 323 323 323 323 324 325 325 326 326 327 328 328 329 330 331
354 354 354 354 354 354 354 353 353 352 349 347 344 341 339 336 334 332 331 330 329 328 328 327 327 326 326 325 324 323 324 324 324 325 325 326 327 328 329 329 329 330
354 354 354 354 354 354 354 354 354 354 353 352 349 347 344 342 340 338 336 334 333 332 331 330 330 329 328 327 327 326 325 324 324 325 326 327 327 328 329 329 330 329
355 355 355 355 354 355 354 355 354 355 354 354 353 352 350 348 346 344 342 340 338 336 335 334 333 332 330 330 329 328 326 326 326 326 326 327 329 330 330 331 331 331
355 355 355 355 355 355 355 355 355 355 356 355 355 355 354 353 351 350 347 345 343 340 339 337 336 335 334 332 331 329 329 328 327 328 328 329 330 331 332 333 332 332
356 356 356 356 356 355 356 356 356 356 356 357 357 357 357 355 354 353 351 349 346 344 343 341 339 338 336 335 333 331 330 330 329 330 331 331 332 333 335 335 335 335
357 357 357 357 356 356 356 356 356 357 357 357 358 358 358 358 356 355 353 351 349 348 346 343 341 339 338 336 335 334 334 333 333 333 334 334 333 335 337 337 338 337
357 357 358 357 357 358 357 357 358 358 358 359 359 359 360 359 358 357 354 352 350 349 347 344 342 340 339 338 336 336 337 337 337 336 336 336 335 336 338 340 341 340
358 358 358 358 358 359 358 358 359 358 359 359 359 359 360 360 359 359 358 355 352 348 345 345 343 341 341 339 337 337 338 339 339 339 339 338 338 338 340 342 344 343
357 357 358 358 359 359 359 359 359 359 360 359 359 359 360 361 361 360 360 358 356 352 348 346 345 343 342 341 339 338 340 341 341 342 342 341 340 340 342 344 346 345
357 357 357 357 358 358 358 359 358 359 359 359 359 360 360 360 361 361 361 360 359 358 354 351 348 345 343 341 339 339 340 341 343 344 343 343 342 343 344 346 347 346

ECMWFNIL_850_thetae_078.txt.gz
Theta_e
337 337 336 334 332 332 332 333 334 337 339 340 340 339 338 338 338 338 337 337 338 339 340 340 340 341 341 343 346 345 345 348 348 348 348 347 346 345 345 345 345 346
336 336 337 335 333 332 331 332 333 334 336 338 339 339 339 338 338 338 337 336 337 338 339 339 339 339 340 342 344 345 344 345 347 348 348 347 346 345 345 345 346 347
335 336 336 335 334 332 331 331 332 333 333 335 337 338 338 338 338 337 337 336 337 337 338 338 338 339 339 340 342 343 343 343 345 347 348 346 346 345 345 345 345 346
334 335 335 334 334 332 331 331 331 332 332 332 334 335 336 337 337 337 336 335 336 337 338 338 338 338 338 339 340 340 341 342 343 346 347 347 346 345 345 345 345 345
334 334 334 334 334 333 332 331 331 331 331 331 331 333 335 336 336 337 336 335 335 337 338 338 338 338 338 339 339 339 339 340 341 343 344 344 344 343 344 344 344 345
338 335 334 334 333 333 333 331 331 331 331 331 331 333 334 335 336 337 336 334 335 336 337 337 338 338 338 338 338 337 338 339 339 340 340 340 341 341 342 342 341 341
342 339 336 334 333 333 333 332 331 331 330 331 331 332 334 335 336 336 336 335 335 336 337 337 337 336 336 337 337 337 336 337 338 338 338 338 338 339 340 340 339 339
345 343 340 337 335 333 333 332 332 331 330 330 330 331 332 333 334 335 336 336 336 336 336 335 333 332 333 334 335 336 336 336 336 336 336 336 336 336 337 338 338 338
347 346 344 342 339 335 333 332 332 332 331 330 330 330 330 331 332 333 334 335 336 336 335 331 328 327 328 330 332 334 336 336 336 336 336 336 336 337 336 337 337 336
348 347 346 345 344 341 336 332 331 332 332 331 330 329 329 329 330 331 333 334 334 334 333 329 327 326 326 326 327 330 332 333 334 334 335 336 337 337 337 337 337 336
348 347 347 347 346 346 342 336 332 331 331 331 330 330 329 329 330 331 332 332 331 330 330 328 327 325 325 325 325 326 327 328 329 330 331 333 334 336 336 336 336 336
349 348 347 348 347 347 346 343 339 334 331 330 329 329 329 328 329 330 331 331 330 329 328 327 327 326 325 325 325 325 325 325 326 327 328 329 330 332 333 333 334 334
349 348 348 348 348 348 348 347 345 342 338 333 330 329 328 328 328 328 329 330 330 330 329 328 327 326 326 326 325 326 326 325 326 325 325 327 327 329 330 330 331 332
349 349 348 349 349 349 349 349 348 347 344 341 335 331 328 328 328 327 327 328 328 328 329 328 328 328 327 326 326 326 326 326 326 325 325 325 325 326 327 327 328 329
349 349 348 349 349 350 350 350 350 349 347 345 342 336 331 328 327 327 327 327 327 326 326 327 328 327 327 326 326 326 326 325 325 325 325 324 324 325 325 326 326 326
349 349 349 349 349 350 350 350 351 351 350 349 346 342 337 333 329 328 327 327 326 326 326 326 326 326 326 326 325 325 325 325 324 324 324 323 323 323 324 325 326 326
350 350 349 350 350 350 351 351 351 351 351 351 350 348 346 342 338 334 331 329 328 327 326 326 325 325 325 325 325 325 324 324 324 323 323 323 323 323 323 324 325 325
351 350 350 351 351 351 351 351 352 352 352 352 352 351 350 348 346 343 339 337 334 332 331 330 330 329 328 327 326 326 326 326 326 325 325 324 324 324 323 323 324 325
351 351 351 351 351 352 352 352 352 352 352 353 353 353 352 351 351 349 348 345 343 340 338 337 336 335 333 332 331 330 330 329 329 328 328 327 326 326 325 324 324 325
352 351 351 352 352 352 352 352 353 352 353 353 353 353 353 353 353 352 352 351 349 348 345 343 341 338 337 337 336 335 334 334 333 332 331 330 329 328 327 326 326 326
352 350 348 349 351 352 353 353 353 353 353 353 354 354 353 353 353 354 354 354 353 353 351 350 346 341 339 338 337 337 337 337 337 336 335 334 332 331 330 328 327 327
353 351 350 349 350 352 353 354 354 354 354 354 354 354 354 354 354 354 355 355 355 355 354 354 350 344 342 340 337 338 338 339 339 338 337 337 335 334 333 331 329 329
353 353 352 351 352 353 354 354 354 355 354 354 355 355 354 355 355 355 355 355 356 356 357 356 352 346 344 342 340 340 341 341 340 339 338 338 336 335 335 333 332 331
353 353 353 353 353 354 355 355 355 355 355 355 355 355 355 355 355 356 356 356 357 357 358 358 356 351 348 345 341 342 344 343 341 340 340 339 338 337 337 336 335 334
354 354 354 354 355 355 355 356 355 356 356 356 356 356 356 356 356 357 357 357 357 357 358 358 358 356 354 350 344 343 345 344 343 343 342 340 338 337 337 337 337 336
353 355 355 355 356 356 357 357 357 357 357 357 357 357 357 357 357 357 358 358 358 358 358 358 358 358 358 356 351 348 347 346 346 346 344 341 339 338 338 339 338 337

ECMWFNIL_850_thetae_081.txt.gz
Theta_e
337 335 334 333 333 333 333 333 333 334 337 341 343 343 341 340 340 340 340 340 339 340 341 342 343 344 343 343 344 346 346 345 346 346 346 345 346 346 345 346 346 345
338 336 335 334 333 333 332 332 332 332 333 337 341 343 343 341 340 340 339 339 338 338 339 340 341 341 342 342 342 344 345 345 345 346 346 346 347 346 345 345 345 345
337 336 335 334 334 333 333 332 332 332 332 333 336 341 343 342 341 340 340 339 338 338 337 338 339 339 340 340 341 342 343 344 345 345 345 345 346 346 346 345 345 346
337 335 335 334 334 334 334 333 332 332 331 331 333 337 341 342 341 341 341 340 339 338 337 337 338 339 338 339 340 340 340 341 342 343 344 344 345 346 346 345 346 346
340 337 335 334 334 333 334 334 333 331 331 331 331 333 337 339 341 341 341 340 339 338 337 337 338 339 339 339 339 339 339 339 340 341 342 343 344 344 345 344 345 345
344 340 336 334 334 333 333 333 333 332 331 331 331 332 333 335 337 338 339 340 340 339 337 336 337 338 338 339 339 339 339 338 339 339 340 341 341 342 342 342 343 342
346 344 339 335 334 333 333 333 332 332 331 331 331 331 332 333 333 334 336 338 339 339 338 336 337 338 338 339 339 338 338 338 337 338 338 338 339 339 339 340 340 340
346 346 344 340 336 334 333 332 332 332 331 331 331 331 332 332 332 333 334 335 337 338 339 338 337 338 338 338 338 338 337 337 337 337 337 337 337 337 337 337 338 338
346 347 347 345 342 338 335 333 332 332 332 331 330 330 331 331 331 332 333 334 335 336 337 338 338 338 339 338 337 336 335 336 336 336 336 336 336 336 336 336 336 336
347 347 347 347 346 343 340 337 334 332 332 331 331 331 330 330 330 331 332 333 334 334 334 335 336 338 338 335 333 332 332 334 336 337 337 336 336 336 337 337 337 336
347 347 347 347 347 347 345 343 339 336 333 331 331 332 331 330 330 330 330 331 332 332 331 333 335 337 336 332 328 327 328 329 331 333 334 334 334 334 334 335 336 336
347 347 347 348 348 348 347 346 344 342 339 336 333 332 331 331 330 329 329 328 329 329 329 330 333 334 333 330 327 326 326 326 326 327 327 328 329 329 330 331 332 333
347 348 348 348 348 348 348 348 347 346 345 343 340 336 332 331 331 330 329 328 327 327 327 328 328 330 329 328 327 327 326 326 325 326 325 326 326 326 327 328 329 330
348 348 347 348 348 348 348 348 348 347 347 347 346 343 338 334 331 330 329 329 328 327 327 327 327 327 327 327 326 326 326 326 325 326 326 326 326 326 326 326 327 328
347 348 348 348 348 348 349 349 348 348 348 348 348 347 345 341 337 333 330 329 328 328 328 327 327 327 326 326 326 326 326 326 326 326 326 326 326 326 326 325 325 325
348 348 348 349 349 349 349 349 349 349 348 348 349 348 348 347 345 342 338 333 330 328 328 328 327 327 327 327 327 327 326 326 326 326 326 326 326 326 325 325 324 324
348 349 348 348 349 349 349 349 349 349 349 349 349 349 349 349 349 347 345 342 337 331 329 328 327 327 326 326 326 326 326 326 326 326 326 326 325 325 325 325 324 324
349 349 349 349 349 349 349 350 349 349 349 349 349 349 350 350 350 350 349 347 344 338 334 331 328 327 326 326 325 325 325 325 325 325 325 325 325 324 324 324 324 323
349 349 349 349 349 350 350 349 349 349 349 350 350 350 350 351 351 351 351 350 348 345 341 337 333 331 329 329 328 327 327 326 326 326 326 326 325 325 325 325 325 324
349 349 349 350 350 350 350 350 349 350 350 350 350 350 351 351 352 352 352 352 351 350 348 346 342 337 335 334 333 332 332 331 331 331 330 329 329 328 328 327 327 326
349 349 349 349 350 349 349 349 350 350 350 350 351 351 351 352 352 352 352 352 353 352 352 351 349 346 343 341 339 338 337 337 337 336 336 335 333 332 331 330 329 329
349 350 349 350 350 349 349 349 350 350 351 351 351 351 351 352 352 352 353 353 353 353 353 353 353 352 351 349 347 345 345 344 343 341 341 339 337 335 334 332 332 331
351 351 350 350 350 349 350 350 350 350 351 351 351 351 351 352 353 353 353 353 353 353 353 353 354 354 354 353 353 352 351 350 349 347 345 343 339 337 336 334 333 332
352 352 351 351 351 350 350 351 351 351 351 351 351 351 352 353 353 354 354 354 354 354 354 354 355 355 355 355 355 355 355 353 352 351 349 346 342 338 337 335 334 332
352 352 352 352 352 352 351 351 351 352 351 351 352 352 352 353 353 353 354 354 354 355 355 355 355 355 356 356 356 357 356 355 355 354 352 348 343 339 337 335 334 332
352 352 352 352 353 353 353 352 351 351 351 351 351 351 351 352 353 354 355 355 355 356 356 356 356 356 356 357 357 357 357 357 357 356 353 347 343 339 337 335 334 333

ECMWFNIL_850_thetae_084.txt.gz
Theta_e
338 337 337 336 334 336 338 339 341 343 346 349 351 351 350 346 344 345 344 342 342 342 343 344 345 345 344 344 344 347 348 348 353 353 347 345 349 351 351 349 350 351
338 338 338 338 336 335 335 336 338 341 342 343 347 351 351 346 343 343 342 342 342 342 342 343 344 344 343 345 344 345 346 345 349 355 350 346 350 352 352 351 350 349
338 338 338 338 338 335 334 334 334 336 339 340 342 346 348 347 346 344 342 342 341 342 342 341 342 343 342 344 343 343 346 344 348 355 352 347 350 354 354 354 354 352
339 338 337 337 339 338 337 337 335 334 337 340 341 341 345 348 348 345 342 342 341 341 341 341 341 342 341 343 343 343 344 344 346 350 351 348 348 351 353 354 354 355
342 340 337 335 337 340 339 338 337 335 335 338 339 339 340 341 344 345 344 342 340 339 340 340 340 340 341 341 343 343 343 346 346 345 345 347 348 350 352 352 350 351
344 343 341 337 335 336 338 336 335 335 336 337 337 338 337 335 337 343 345 343 342 343 343 343 340 339 341 341 341 343 343 348 351 347 342 344 349 352 355 352 348 346
345 345 344 342 337 335 335 335 335 335 337 338 337 334 335 334 334 339 342 342 344 347 348 347 343 338 340 341 341 342 342 343 347 346 343 343 345 348 351 351 347 344
346 345 345 345 342 338 335 334 335 334 334 336 336 333 331 331 332 335 338 337 341 346 346 345 342 337 339 340 340 341 341 341 344 343 342 343 343 343 344 346 345 342
346 345 345 346 345 343 339 337 337 335 332 332 335 335 332 329 330 334 335 333 335 339 339 339 339 338 339 341 339 339 339 342 346 345 341 340 340 341 341 342 342 341
347 346 346 346 346 347 345 343 342 340 336 331 332 336 337 331 329 332 333 330 331 334 333 333 336 336 338 340 339 337 337 339 341 339 338 337 338 340 342 343 343 342
347 347 346 346 346 348 348 347 346 346 342 335 331 335 339 336 330 329 331 331 330 331 332 332 333 334 336 339 340 339 337 337 335 333 333 335 336 337 339 340 340 341
349 348 348 347 347 348 350 350 348 348 347 343 335 333 338 339 335 330 329 331 330 330 331 332 331 332 333 335 339 341 340 337 334 331 329 331 333 333 333 333 333 334
351 349 349 348 348 348 350 351 351 349 348 348 343 338 337 340 340 335 330 329 330 330 330 331 331 331 331 332 334 339 340 335 333 333 331 330 329 329 330 332 331 331
352 352 351 349 348 348 348 349 351 350 349 349 349 345 342 342 343 340 334 330 329 330 329 330 330 330 331 331 332 335 337 332 328 329 332 332 330 329 331 333 333 334
352 353 353 350 348 347 348 348 349 350 350 350 349 349 347 346 346 345 342 336 330 329 329 330 330 329 329 330 331 333 334 332 329 327 327 329 329 330 332 332 331 334
350 350 351 350 348 348 348 348 348 349 349 349 349 348 348 347 347 347 347 344 338 332 329 328 329 329 328 327 328 330 330 330 330 328 327 327 326 327 330 331 332 334
350 348 348 348 347 347 348 348 348 348 348 348 348 348 348 348 348 348 348 348 346 342 336 331 331 330 328 327 327 327 327 327 328 327 326 326 326 325 326 329 331 332
351 349 349 348 348 347 347 348 348 347 348 347 347 348 348 348 348 348 348 348 348 348 346 342 338 332 328 326 327 326 326 327 328 328 329 329 328 327 325 326 328 328
352 351 349 348 349 349 348 348 347 347 347 347 347 348 348 348 349 348 349 349 349 349 349 349 347 342 333 327 327 327 326 328 328 328 331 334 334 331 328 326 326 326
353 353 351 350 349 349 348 348 348 348 348 347 348 348 348 347 348 349 348 349 349 349 350 350 350 349 343 334 329 327 327 327 327 327 328 331 332 331 329 326 325 325
353 355 355 353 351 350 349 348 348 349 349 348 348 349 350 350 349 349 349 349 349 350 350 351 351 351 349 343 336 332 330 329 328 328 327 327 327 327 327 326 325 326
354 355 356 356 354 352 350 350 349 349 349 350 349 349 351 351 351 352 351 350 350 350 350 351 352 352 352 350 345 341 340 338 335 333 331 330 329 329 329 329 329 329
355 355 356 356 356 354 353 351 350 350 350 350 350 350 350 351 352 353 353 352 352 352 352 351 352 352 352 352 352 350 349 348 346 343 340 338 335 335 335 334 333 333
353 354 355 356 356 355 355 354 353 351 351 351 350 350 350 350 351 352 353 353 353 353 353 352 352 353 353 353 353 353 353 352 352 351 349 346 343 341 339 339 337 336
351 352 353 354 355 355 355 356 355 354 352 352 351 351 351 351 350 350 351 352 353 353 353 353 353 353 354 354 353 353 354 354 353 354 353 352 350 348 345 343 341 339
350 351 351 352 353 354 355 355 356 355 355 354 353 353 353 352 350 350 349 349 351 352 353 354 354 354 354 354 354 354 354 354 354 354 354 354 354 352 351 349 346 342

ECMWFNIL_850_thetae_087.txt.gz
Theta_e
334 336 337 340 346 349 349 350 350 351 354 354 353 353 354 355 354 355 356 352 345 344 344 343 343 344 346 346 347 351 349 349 355 353 349 350 353 356 356 355 355 355
336 336 336 340 346 347 348 350 350 349 351 353 352 353 354 354 353 353 354 353 349 347 345 343 344 343 346 348 347 347 347 347 352 355 350 349 353 355 355 355 356 355
337 337 336 341 346 347 347 349 350 349 349 350 351 352 353 354 354 351 350 350 352 352 349 345 346 345 345 347 346 347 349 346 346 352 352 349 352 356 356 354 355 355
337 337 337 343 348 348 348 348 349 349 349 349 350 350 351 352 353 351 347 344 347 351 351 348 347 348 347 345 345 346 349 348 345 348 349 347 349 355 356 355 355 356
339 338 339 344 348 349 349 348 348 348 348 348 348 348 349 351 352 352 349 344 341 344 349 348 345 347 347 344 343 345 349 351 348 347 345 345 349 353 356 356 355 356
343 341 340 343 348 349 349 349 348 348 347 347 347 347 348 350 352 353 352 349 346 346 349 350 348 349 349 347 343 343 349 352 353 351 347 347 350 350 352 356 356 355
345 344 342 343 347 349 349 349 348 348 347 346 347 347 347 349 351 352 352 351 350 349 350 351 350 350 351 351 347 342 344 348 351 353 352 351 351 348 350 356 358 354
348 347 345 345 348 348 349 349 349 349 348 346 346 347 347 348 349 351 351 350 351 350 349 350 351 350 349 351 351 346 343 345 350 350 348 348 350 349 349 353 356 354
351 351 349 348 349 349 348 347 347 348 348 347 346 346 346 347 348 348 349 350 351 349 347 347 349 347 344 347 350 349 346 346 350 352 349 348 349 348 348 349 352 352
353 354 353 351 351 350 348 346 344 346 348 347 346 344 344 346 346 347 348 349 351 348 344 344 346 345 342 343 346 347 346 344 345 349 351 352 352 351 351 350 351 352
355 354 354 353 352 350 349 346 344 343 345 347 346 343 342 344 345 346 347 349 349 346 343 342 342 342 341 344 348 348 346 345 345 345 346 349 350 350 351 351 351 352
357 355 354 353 352 350 349 348 345 342 343 345 346 345 342 342 344 345 346 347 344 340 341 341 338 338 338 339 346 350 349 348 349 347 345 344 343 345 349 351 351 351
357 356 355 353 353 351 349 348 346 344 343 343 345 345 344 342 343 344 346 346 341 334 337 342 339 337 336 334 336 345 350 351 350 349 349 346 343 344 348 349 349 350
356 356 356 354 353 353 350 349 347 346 345 344 344 345 345 342 341 342 345 347 345 337 334 340 342 339 337 333 330 334 344 350 351 349 349 348 347 346 347 346 346 346
357 356 356 356 355 354 353 350 349 348 347 346 345 345 345 344 341 340 342 344 347 345 339 340 343 344 342 338 332 331 336 344 349 349 347 347 346 346 346 345 344 343
358 357 356 357 356 356 356 355 352 351 350 348 348 347 346 346 343 342 342 342 345 348 346 344 343 343 344 341 334 330 331 337 345 349 349 348 346 345 345 345 344 342
358 359 357 358 358 357 357 356 353 353 352 351 351 350 349 349 348 346 344 343 344 346 346 346 343 341 342 340 335 329 328 333 340 347 349 349 348 347 345 344 343 342
357 357 356 357 358 359 358 355 352 353 354 353 353 353 352 351 351 351 349 346 345 345 344 344 344 342 342 341 338 331 327 329 335 343 348 348 348 348 347 345 344 342
355 354 353 354 356 359 359 355 351 351 354 354 354 355 355 355 354 354 353 351 349 347 346 345 344 343 343 343 341 335 328 325 328 336 342 344 345 347 348 348 347 345
353 354 354 355 355 358 359 357 354 352 352 354 355 355 356 356 356 355 355 353 352 351 349 349 347 346 345 344 344 340 333 327 325 327 332 336 340 342 344 347 349 349
352 353 354 355 356 357 358 357 357 355 353 354 356 356 356 357 356 356 356 355 353 352 351 351 351 349 348 347 347 346 341 335 331 329 328 329 332 334 337 340 344 348
351 353 354 355 356 357 357 357 358 357 355 355 356 355 356 356 356 355 356 356 355 352 351 352 353 351 351 350 349 349 348 345 343 340 335 332 330 329 330 332 334 338
353 353 353 353 354 355 355 356 356 356 356 356 357 357 356 356 356 356 355 356 356 355 354 353 354 353 352 352 351 350 350 350 350 348 345 340 335 330 328 328 328 329
353 353 352 352 353 354 354 354 353 354 355 356 356 357 357 356 356 357 356 357 357 357 356 354 354 354 353 352 352 351 351 351 351 351 350 347 342 337 333 331 329 329
350 352 353 354 354 354 353 353 353 353 354 354 355 356 358 358 357 356 356 356 356 357 356 355 355 356 354 353 352 351 351 352 352 352 352 351 349 346 342 339 337 335
348 349 351 352 353 353 353 353 354 354 354 355 355 356 356 357 358 358 357 356 356 357 357 356 356 356 356 355 353 353 352 352 352 353 353 353 353 352 350 349 347 344

ECMWFNIL_850_thetae_090.txt.gz
Theta_e
335 337 337 337 339 343 345 342 345 351 350 349 349 350 353 353 352 355 352 345 344 345 345 344 343 345 345 343 348 348 345 348 350 347 347 347 348 353 354 353 354 353
332 333 335 337 337 339 341 342 344 348 351 353 351 350 352 353 352 354 353 348 343 344 346 344 342 344 345 343 345 346 344 347 350 347 347 348 349 353 354 355 354 352
332 332 333 336 337 337 339 343 346 347 351 354 353 352 353 353 352 350 351 348 345 346 346 344 344 344 346 345 344 345 344 345 347 347 347 348 349 353 354 353 354 351
334 334 332 336 340 338 338 345 348 347 350 352 352 354 354 353 352 349 347 346 347 350 348 345 345 345 346 345 344 346 345 344 346 346 347 346 346 350 353 352 353 353
335 336 333 337 344 344 341 346 348 346 348 351 351 353 353 353 353 351 346 342 344 349 349 346 344 344 345 344 345 346 346 345 346 346 345 345 345 346 349 351 351 352
335 337 336 337 345 348 345 346 349 347 347 349 350 352 352 352 354 354 348 341 340 344 347 346 342 343 344 343 344 345 346 348 349 347 345 345 346 346 347 349 350 350
337 336 337 339 346 350 348 347 348 348 348 349 349 350 351 350 353 355 351 345 341 341 345 348 344 341 343 342 342 342 346 351 352 350 348 346 345 346 346 349 349 347
347 341 337 342 348 350 350 349 348 347 348 349 349 348 349 349 350 353 354 351 349 345 346 349 347 342 341 344 343 340 342 348 349 348 349 347 345 345 345 348 349 346
355 351 342 343 349 351 349 349 349 347 347 348 348 347 348 349 349 351 353 353 354 352 348 349 349 345 341 344 346 342 338 343 349 349 347 345 345 344 344 345 346 346
355 356 351 349 350 350 349 349 349 348 348 347 347 347 347 347 347 349 351 349 350 354 351 348 350 348 342 341 344 345 341 342 350 353 351 348 345 344 345 346 346 346
351 353 354 353 352 350 349 349 349 349 349 348 346 346 346 346 346 347 350 346 344 349 351 347 347 347 344 339 341 344 343 340 345 349 352 353 352 350 350 350 351 350
347 349 352 354 353 351 348 348 348 347 349 348 347 346 345 345 345 345 348 347 343 343 345 342 341 342 342 340 341 344 344 341 342 344 345 347 349 350 348 347 348 348
347 348 351 351 351 351 349 347 346 345 346 347 347 346 345 344 346 345 345 346 344 343 343 341 337 336 337 336 339 346 350 348 346 346 345 342 341 342 341 342 344 343
350 349 351 351 350 350 349 347 347 345 344 345 346 346 345 343 344 345 345 345 345 344 344 343 340 336 335 334 333 338 347 351 350 350 349 346 343 341 341 344 347 347
352 352 352 352 351 351 350 348 347 346 344 343 343 345 345 344 342 343 345 346 346 345 345 346 345 341 336 332 331 330 334 342 348 349 350 350 347 346 344 345 348 348
352 352 352 353 352 352 352 350 347 345 345 344 343 343 344 344 343 341 343 345 346 346 345 345 346 344 338 331 329 329 327 331 337 342 346 347 347 348 347 346 346 346
353 352 353 352 352 351 352 352 351 349 346 344 344 344 344 345 344 342 342 342 345 347 347 347 346 345 342 336 330 329 328 328 329 333 340 343 344 346 347 346 346 346
352 352 352 352 353 351 349 351 353 352 349 347 346 345 345 345 345 344 342 341 342 344 347 348 348 346 345 342 337 333 331 330 329 330 336 340 341 343 345 345 343 342
352 352 352 352 354 353 350 349 350 349 349 349 349 348 347 346 346 346 345 343 341 342 343 345 347 348 346 344 341 339 336 334 332 331 333 337 339 340 342 343 342 340
351 351 352 352 353 353 351 350 348 347 347 348 348 349 349 349 349 348 348 346 343 343 343 343 345 347 347 345 343 341 340 338 336 334 333 335 339 341 342 342 342 341
350 351 351 351 352 351 351 351 350 349 350 350 348 348 349 350 351 351 351 351 349 347 345 344 345 346 346 345 344 343 342 340 339 338 336 334 335 339 342 342 343 343
351 350 351 351 351 351 351 352 352 351 352 353 352 352 351 351 351 351 353 354 354 353 351 349 348 348 347 346 346 345 344 343 342 341 341 339 337 335 336 338 340 342
351 351 352 352 352 352 352 352 353 353 353 354 353 353 353 352 350 350 352 353 353 354 355 355 354 352 351 349 348 347 346 345 345 344 344 344 343 340 337 335 335 336
348 349 351 352 352 352 352 353 353 354 354 354 352 352 352 351 350 350 351 352 351 351 353 355 356 356 355 354 352 351 349 348 347 347 347 347 348 347 345 343 340 337
345 347 348 351 352 352 353 354 354 354 354 353 352 352 352 352 351 350 350 351 350 349 349 350 353 357 358 356 355 353 352 351 350 349 349 349 349 350 349 350 349 347
338 343 345 347 348 350 352 353 354 354 354 354 353 353 354 354 354 352 351 350 350 349 349 349 350 355 357 358 357 356 354 353 352 352 351 351 351 351 350 351 351 351

ECMWFNIL_850_thetae_093.txt.gz
Theta_e
342 345 349 351 349 348 348 347 346 345 345 348 348 348 350 350 348 346 346 345 344 346 346 345 345 345 346 348 347 346 345 343 343 343 342 343 345 347 348 348 349 350
340 341 345 350 350 348 346 344 343 342 343 345 347 350 353 354 352 350 350 348 344 345 345 345 345 344 345 346 346 345 345 344 344 343 343 342 345 349 349 348 350 352
336 337 339 344 347 346 345 343 341 341 342 344 346 350 352 354 354 353 353 350 345 344 345 344 343 343 343 343 345 345 344 346 347 344 343 343 345 348 350 349 350 351
331 333 334 337 340 342 344 344 342 341 342 343 347 350 351 353 354 353 352 350 346 343 344 344 342 342 343 342 344 345 343 346 348 345 344 345 346 348 350 350 349 348
330 330 330 332 335 337 342 344 343 343 342 344 349 350 351 352 353 353 352 349 347 344 343 344 343 343 344 343 343 344 344 344 346 346 344 345 347 349 350 350 349 347
335 332 330 331 332 333 337 340 343 345 343 344 347 348 350 353 353 352 351 348 347 346 343 343 343 343 344 343 343 344 344 343 344 345 344 343 345 347 349 350 350 349
338 335 334 332 332 333 334 336 340 346 346 345 346 346 347 352 353 351 349 347 346 346 346 343 342 343 343 343 343 344 345 345 344 344 343 343 344 345 347 349 350 350
346 340 336 334 334 334 335 335 338 344 348 347 347 348 346 348 351 350 348 346 345 345 345 344 341 341 341 341 342 343 343 344 345 345 344 344 344 343 345 347 349 349
354 350 343 339 338 338 338 337 336 341 346 346 347 349 349 347 347 347 346 346 344 343 342 343 341 341 340 339 339 340 341 341 342 344 345 346 344 343 343 344 347 348
355 356 352 346 342 341 342 343 340 339 343 345 347 348 349 349 347 346 345 344 343 342 341 341 343 344 345 343 339 338 339 340 339 340 343 346 345 343 343 342 343 346
355 356 356 354 350 347 347 349 347 345 344 344 346 348 349 349 348 347 347 346 343 342 341 341 344 347 348 347 344 341 340 340 339 339 341 345 347 345 343 341 341 342
354 354 354 356 355 352 351 351 350 349 348 346 346 347 347 348 348 347 348 348 346 345 343 343 345 346 346 347 347 346 344 342 341 341 343 346 347 346 343 340 338 338
352 352 352 355 356 354 352 351 349 348 348 348 348 347 346 347 347 347 347 346 346 346 346 344 344 344 343 343 345 345 345 344 342 341 343 346 346 345 343 341 339 338
352 351 351 352 354 355 354 351 348 346 346 347 348 348 347 346 346 346 346 345 345 345 345 345 345 344 342 341 341 340 340 341 340 338 340 341 343 343 342 341 340 339
351 351 351 351 351 352 353 352 349 347 345 346 347 348 349 346 344 344 346 346 345 344 343 344 343 343 340 339 338 337 336 336 336 336 336 336 337 338 339 339 338 338
350 351 351 352 351 350 350 351 350 347 345 345 345 346 349 348 345 343 344 345 345 344 343 343 342 341 339 336 335 335 334 334 334 334 334 333 333 333 333 335 335 336
351 351 351 351 351 351 350 350 349 347 346 345 343 344 346 348 347 344 342 343 343 343 343 343 342 342 341 339 337 334 332 333 334 334 334 333 332 331 330 330 331 333
351 351 351 351 352 352 351 350 349 348 347 345 344 343 343 346 347 346 343 343 343 343 343 343 343 343 343 343 342 339 336 334 334 334 335 335 334 333 331 330 330 331
353 352 352 352 352 353 352 351 350 349 348 346 345 344 343 343 346 346 345 343 343 343 343 344 344 344 344 343 343 343 341 339 338 338 337 336 335 334 333 332 331 331
353 352 351 351 352 352 351 352 351 350 348 346 345 344 344 344 345 346 346 345 344 343 343 343 345 345 346 345 344 344 343 343 343 342 341 339 337 335 334 333 332 332
352 352 351 351 351 351 352 352 351 350 349 347 345 345 345 345 344 345 347 346 345 344 343 343 344 346 347 348 347 346 345 345 345 344 343 342 341 339 337 335 333 333
350 351 351 351 351 351 351 352 351 351 350 349 347 347 348 347 346 345 346 347 347 346 346 344 344 344 344 346 348 348 347 346 346 346 345 344 343 342 341 339 337 335
348 349 350 351 351 351 350 351 351 351 351 350 349 348 348 348 348 348 348 347 347 347 347 347 346 345 344 343 345 347 349 349 348 347 345 344 343 343 342 342 341 340
343 346 348 349 350 351 351 351 351 351 351 351 351 350 350 350 351 351 350 349 348 348 348 348 348 348 348 347 346 347 348 350 352 352 349 346 345 344 343 342 342 342
332 337 342 346 348 350 351 351 351 351 352 352 352 352 352 352 352 353 352 351 351 350 350 350 350 350 351 352 351 351 352 353 355 355 351 348 346 345 344 344 344 344
324 327 330 335 341 345 349 350 350 351 351 352 353 353 353 353 353 354 354 352 352 352 351 351 351 351 352 353 353 353 353 353 355 355 351 347 346 346 346 346 346 346

ECMWFNIL_850_thetae_096.txt.gz
Theta_e
351 350 351 350 350 350 349 349 349 349 350 348 345 343 344 344 343 344 344 344 344 343 345 346 347 348 350 350 349 347 346 344 343 342 342 342 343 345 347 348 345 344
351 351 351 349 349 350 349 348 348 349 348 347 346 344 345 346 345 344 344 344 343 344 345 345 347 347 348 349 349 349 348 345 344 343 341 342 343 343 345 346 345 345
349 350 350 348 348 349 348 348 347 347 346 344 344 345 345 346 347 345 345 345 343 344 345 344 345 345 346 348 349 348 348 346 345 344 343 342 343 343 344 345 345 346
345 346 347 347 346 346 346 347 347 345 344 343 342 343 344 346 348 348 348 348 346 345 345 344 344 344 344 346 346 345 346 346 346 346 345 343 343 344 345 346 346 346
341 341 343 344 344 343 343 345 345 344 342 342 342 343 345 347 348 349 350 350 349 349 347 344 344 344 342 344 343 342 344 345 345 346 345 344 344 344 346 348 348 348
337 339 339 341 342 341 340 340 341 342 340 341 342 342 345 347 348 348 349 349 350 350 347 343 344 343 342 343 343 342 343 343 343 345 345 344 344 345 346 348 349 349
334 334 335 337 338 338 338 337 338 339 340 340 341 342 344 346 347 348 348 347 348 348 347 343 342 343 342 342 343 342 343 343 343 344 344 345 345 345 346 346 348 349
335 334 332 332 334 335 335 335 335 336 338 339 341 342 344 345 346 347 348 348 347 346 345 343 342 342 342 342 343 342 342 343 344 343 343 344 344 343 344 344 345 348
338 338 336 334 333 333 333 333 333 334 335 337 340 342 345 346 346 346 347 348 348 346 344 343 341 341 341 341 342 342 342 343 344 344 344 344 342 342 343 342 343 346
344 342 342 340 338 335 333 333 333 334 336 337 339 342 344 345 346 347 347 348 348 346 345 344 341 339 340 340 340 340 341 342 343 343 343 343 344 344 344 344 343 343
350 347 345 345 344 342 339 337 336 336 339 341 342 343 344 346 347 348 348 347 345 344 343 344 342 340 339 338 337 338 339 339 340 340 340 340 341 344 346 346 346 344
351 351 349 347 345 343 341 341 341 341 342 344 345 345 345 346 348 349 349 347 344 342 341 341 342 341 340 338 337 337 337 337 338 338 338 338 338 339 342 345 347 345
351 354 353 349 346 344 341 340 343 345 346 347 347 347 346 345 347 348 349 349 347 344 341 340 341 341 340 340 339 339 339 337 336 336 336 336 335 336 337 339 341 342
353 354 354 352 352 351 347 341 340 344 349 350 349 348 348 346 346 346 347 348 348 347 344 343 342 341 341 340 340 340 340 339 337 336 335 334 335 335 335 335 336 336
354 354 354 354 354 354 352 349 345 343 349 352 351 350 349 348 347 346 346 346 347 347 347 346 344 343 342 341 340 340 340 339 337 336 335 334 334 334 334 334 334 333
355 354 353 353 354 354 352 352 351 348 349 351 351 350 349 348 348 347 347 346 345 345 346 345 345 345 343 342 341 340 339 337 336 334 334 334 334 333 333 333 333 333
354 353 353 352 353 353 351 351 351 351 351 352 351 349 348 347 347 347 347 347 346 345 344 344 343 344 343 342 342 341 340 339 337 335 333 332 332 332 331 331 330 330
352 351 352 352 351 352 351 350 350 351 351 352 352 350 348 346 346 346 346 347 348 346 344 343 343 342 342 342 342 341 341 342 341 340 338 336 333 331 330 330 329 329
352 351 351 351 351 351 350 350 350 350 351 351 351 350 349 347 345 345 345 346 347 347 345 344 344 343 342 342 341 342 342 343 343 342 342 341 338 335 333 331 330 330
353 353 352 352 352 351 351 351 351 351 351 351 350 350 349 348 346 345 344 345 347 348 347 345 344 344 344 343 342 342 343 344 344 344 344 344 343 342 340 337 335 334
354 354 353 352 352 352 352 352 352 352 352 352 351 350 349 349 348 346 344 345 347 348 347 346 345 345 344 344 344 344 344 345 345 345 345 345 345 345 345 344 342 341
351 352 352 352 352 352 351 352 352 353 353 352 352 351 351 349 348 347 345 344 345 347 348 347 347 346 345 344 344 345 346 346 346 346 347 347 347 346 346 346 345 345
347 348 350 351 352 352 352 352 352 353 353 352 352 352 351 349 347 347 346 345 345 346 347 348 348 348 346 345 345 345 345 346 346 347 347 347 348 348 347 347 347 346
340 342 344 346 347 349 350 351 351 352 352 352 352 352 351 350 349 347 347 347 346 345 346 347 348 349 349 348 347 346 347 348 348 348 348 348 348 348 348 348 348 347
329 332 333 335 336 338 342 345 349 350 351 351 352 352 352 352 351 350 349 349 348 347 346 345 346 347 348 349 349 349 349 349 349 349 348 348 347 348 348 348 348 348
325 327 330 331 331 331 333 336 339 344 347 348 350 351 351 352 353 353 352 351 351 350 348 347 346 346 346 347 348 348 349 349 349 349 349 348 348 348 348 348 347 347

ECMWFNIL_850_thetae_099.txt.gz
Theta_e
342 346 348 349 349 349 347 346 345 346 346 343 341 341 342 343 343 343 343 343 343 342 342 343 344 344 345 347 348 348 346 343 343 343 342 342 343 344 345 345 346 347
341 346 349 349 350 350 349 348 347 347 347 346 344 342 342 343 343 343 343 343 343 343 342 342 344 344 345 347 348 348 347 346 345 344 342 342 342 342 343 344 346 348
340 344 349 350 350 350 349 349 349 348 347 347 347 345 343 343 343 343 343 343 343 343 343 343 344 345 345 345 346 347 347 348 347 345 343 342 341 341 342 342 344 346
339 342 348 350 350 349 349 349 350 349 348 348 348 347 345 343 343 343 343 343 343 343 343 343 344 345 345 345 345 346 347 347 347 346 344 344 342 341 342 342 343 344
339 341 346 349 349 349 349 349 349 349 348 348 347 346 345 344 344 344 345 344 343 343 343 344 345 345 344 344 345 345 345 345 346 346 345 345 344 343 342 343 343 344
338 341 344 346 348 348 348 347 347 347 347 347 347 345 344 344 344 345 346 346 344 345 345 345 345 344 344 343 343 343 343 343 344 345 344 344 345 344 343 343 343 345
336 340 343 345 346 347 346 346 345 345 345 346 346 344 343 342 343 344 346 347 346 346 346 346 345 344 343 343 342 342 342 342 343 343 343 343 345 345 345 345 344 345
334 337 341 344 345 344 344 344 343 342 342 344 345 343 342 342 342 344 345 346 347 347 347 347 346 345 344 342 341 342 342 342 342 342 342 343 343 344 345 345 345 345
333 334 336 340 341 341 341 340 340 338 338 340 341 341 342 342 343 344 346 347 348 348 348 348 347 346 345 343 342 341 341 342 342 342 343 343 343 343 344 343 343 343
334 333 334 335 337 338 338 337 336 335 334 335 336 339 340 342 343 345 347 349 349 349 349 349 349 347 346 344 342 341 341 341 342 342 342 343 342 343 343 343 343 342
336 335 334 334 334 334 334 333 332 331 331 332 333 335 337 340 343 344 345 347 348 349 350 351 351 350 348 346 343 341 340 340 341 341 341 341 340 340 341 342 343 342
340 337 336 335 334 334 333 331 330 329 330 331 331 332 334 337 341 343 343 344 346 348 349 350 350 350 349 348 345 342 340 339 339 339 339 339 338 337 338 339 340 341
345 340 338 336 335 336 336 335 333 331 330 331 331 332 333 336 341 343 342 343 345 347 348 349 349 348 348 347 347 345 342 340 338 338 338 338 338 337 337 337 337 337
351 349 347 344 341 339 339 338 338 337 334 333 333 332 333 335 339 343 343 342 343 345 347 348 348 348 348 347 347 347 345 342 340 339 338 338 337 337 337 336 335 335
354 353 353 353 351 348 344 342 341 341 340 337 335 335 335 334 337 342 344 343 341 342 343 345 347 347 346 346 346 346 345 344 342 340 338 337 336 336 336 335 335 335
352 352 351 352 354 353 351 349 347 347 347 344 339 336 336 336 339 344 347 346 344 342 342 343 345 344 344 344 344 345 345 344 343 341 339 337 335 334 333 333 334 334
352 352 351 350 351 352 352 353 352 353 353 351 348 343 340 339 341 345 348 349 347 345 344 344 345 344 344 344 344 344 344 344 343 342 340 339 338 336 334 333 333 332
352 352 352 352 351 351 352 352 352 353 354 354 353 351 348 346 345 346 348 349 349 348 346 345 345 345 345 344 344 344 344 344 344 342 342 341 341 341 340 339 337 335
352 351 351 351 351 351 351 351 350 350 352 353 353 353 352 351 350 349 349 349 348 347 347 346 345 345 345 345 344 343 343 344 344 343 343 342 342 342 342 342 342 341
351 351 351 350 350 350 350 350 350 349 350 351 351 352 352 352 352 351 350 350 348 346 346 346 345 345 345 345 345 344 343 344 344 344 344 344 343 343 343 343 344 344
350 351 352 351 351 351 351 351 351 350 350 351 351 351 351 351 351 351 351 351 350 348 346 345 345 345 344 345 346 345 344 344 344 345 345 345 344 344 344 345 345 345
347 348 349 350 351 352 352 352 352 351 351 351 351 351 351 351 351 351 351 350 349 349 348 347 346 345 344 344 345 345 345 345 344 344 344 344 345 344 344 345 346 346
341 344 347 348 348 349 351 352 351 351 351 351 351 351 351 351 352 351 351 351 350 349 349 348 347 345 344 345 346 346 346 346 345 345 344 343 344 345 345 345 345 346
333 336 340 341 341 342 345 348 349 349 350 351 351 352 352 351 352 352 351 350 350 350 349 349 347 345 345 346 347 348 348 347 346 345 344 344 343 343 344 344 344 344
329 331 333 334 335 336 338 341 344 346 348 349 350 351 351 351 351 351 351 351 350 349 349 348 347 346 345 345 346 347 348 348 348 348 346 345 344 344 344 344 344 345
331 331 331 331 332 333 334 335 336 339 343 346 348 349 349 350 350 350 351 352 351 351 351 350 350 349 348 347 346 346 347 348 348 349 349 348 348 347 347 347 348 348

ECMWFNIL_850_thetae_102.txt.gz
Theta_e
342 343 344 346 348 349 349 349 349 348 347 345 343 342 341 342 343 344 345 344 343 343 343 343 343 343 343 342 344 347 348 346 344 343 342 342 342 342 344 346 346 346
339 341 342 344 347 348 348 349 349 348 347 346 345 344 344 344 344 344 345 344 343 343 343 342 342 343 343 343 344 347 348 347 345 344 343 342 341 341 342 344 345 345
338 338 339 341 345 347 348 349 349 348 347 347 347 347 347 346 345 346 345 344 343 343 342 342 342 343 343 344 345 346 347 347 347 347 345 343 342 341 341 342 342 343
336 337 337 338 342 347 348 348 349 348 348 348 348 347 348 347 346 346 346 344 343 343 343 343 343 343 344 344 344 345 345 346 347 347 345 344 342 342 341 341 341 342
335 336 336 336 340 346 348 348 347 347 347 347 347 347 348 347 347 346 345 344 343 342 342 342 343 343 343 344 344 344 344 345 347 346 344 344 344 343 342 341 341 341
333 335 336 336 338 344 348 347 346 346 346 346 346 346 347 346 346 346 345 345 344 343 343 342 342 343 343 344 344 344 344 344 345 345 344 344 344 344 344 343 342 342
333 333 335 337 337 341 345 346 345 345 344 344 345 345 346 345 344 344 344 345 346 346 345 344 344 344 344 344 343 343 344 343 343 343 344 343 343 344 344 343 342 342
333 333 334 336 337 338 342 344 345 343 343 343 343 343 344 343 342 342 343 344 346 347 347 347 347 347 347 345 343 343 342 342 342 343 343 343 342 343 344 344 343 343
336 334 334 335 337 338 339 341 342 342 341 341 341 341 342 342 341 340 341 342 345 346 347 348 348 349 349 348 346 344 343 342 342 342 343 343 342 343 343 344 343 342
342 338 335 334 335 337 338 339 340 341 340 340 340 340 340 340 340 340 340 341 342 343 345 346 348 349 350 350 349 347 344 343 343 343 343 343 343 343 343 343 343 342
346 343 339 336 334 335 336 337 339 339 339 339 339 339 338 338 338 339 339 340 340 342 344 345 347 348 349 350 350 349 347 344 343 343 343 343 343 343 343 344 344 343
347 346 344 340 336 335 334 335 337 338 338 338 338 338 336 336 336 338 339 339 339 341 344 345 347 347 348 348 348 348 348 346 344 343 342 342 341 342 342 342 342 342
348 347 348 345 341 338 336 336 336 336 337 337 336 335 334 333 334 335 337 339 339 340 342 345 347 347 347 346 346 346 346 345 345 343 341 340 340 340 340 341 341 340
349 348 348 348 346 343 340 339 337 335 336 336 336 335 333 332 332 334 336 338 340 340 341 344 347 348 348 347 346 346 345 345 345 343 342 340 339 339 339 340 340 340
350 350 348 349 349 347 344 342 341 338 335 336 337 338 336 334 332 333 335 339 341 342 342 343 345 346 347 348 347 346 345 344 344 344 344 342 341 339 339 338 338 338
351 351 350 349 350 349 347 346 346 344 341 338 339 340 342 342 341 338 337 338 342 344 344 344 344 345 345 346 347 346 345 345 345 345 345 344 343 341 339 338 337 336
352 351 350 350 350 351 351 350 351 350 348 345 343 342 343 344 345 344 342 341 342 344 345 346 345 344 344 345 346 346 346 346 345 344 345 345 344 343 341 340 340 339
352 352 352 352 351 352 353 354 354 353 351 349 347 346 346 344 343 342 342 344 344 345 346 346 345 345 345 346 346 346 347 347 346 345 344 344 344 344 343 342 342 342
351 352 352 352 352 353 354 354 354 354 352 351 350 349 348 347 346 344 343 345 347 347 347 347 347 346 346 346 346 346 346 347 347 346 346 344 344 343 343 343 343 343
350 350 350 351 352 352 352 352 352 353 352 352 351 350 349 349 349 348 347 348 349 350 349 349 349 348 348 347 346 346 345 345 346 346 346 346 344 343 343 343 343 343
349 350 350 350 351 351 351 351 351 351 351 351 351 351 350 350 350 349 349 349 351 352 351 350 350 349 349 349 348 347 346 344 344 345 345 346 345 343 343 343 343 343
346 348 349 349 350 350 351 351 351 351 350 350 350 350 350 350 350 350 349 350 351 351 351 351 351 351 350 350 349 348 347 346 345 344 343 345 345 344 343 343 343 343
341 343 345 346 348 349 350 350 351 351 350 350 350 351 350 350 350 350 350 350 350 350 350 351 351 350 350 349 349 348 348 347 346 344 343 343 344 344 344 344 344 343
335 336 338 341 344 346 347 348 348 349 351 351 351 351 351 351 351 351 351 351 351 350 350 351 350 350 350 350 349 349 349 348 346 345 344 344 344 344 345 345 345 344
332 331 332 334 337 340 343 343 344 347 349 350 350 351 351 351 351 352 351 351 351 351 351 350 350 350 350 349 349 348 348 347 346 345 345 345 345 346 347 347 346 346
329 329 330 330 331 333 337 338 338 340 344 347 349 348 348 349 350 350 351 351 351 351 351 351 351 351 351 350 349 349 348 348 347 346 345 345 345 346 347 347 348 347

ECMWFNIL_850_thetae_105.txt.gz
Theta_e
339 341 343 345 347 349 350 350 350 350 351 350 347 344 343 343 343 344 344 345 345 344 344 345 345 345 344 343 343 344 346 348 349 347 345 344 344 343 343 344 345 346
340 340 341 344 346 348 350 350 350 350 350 350 349 345 344 344 344 344 344 345 346 345 344 344 344 344 344 344 344 344 346 348 349 347 345 344 344 344 343 343 344 345
340 340 341 343 345 347 349 349 350 350 350 350 349 347 346 346 345 344 345 346 346 346 345 344 344 344 344 344 345 345 346 348 349 348 347 346 345 345 344 343 343 344
340 340 340 342 343 346 348 349 349 350 350 349 349 348 348 349 347 346 345 346 346 346 345 344 344 344 343 344 345 346 347 347 348 348 348 347 345 344 344 344 343 343
341 339 340 341 342 344 347 348 349 349 350 349 349 349 349 349 348 346 345 345 345 345 344 343 344 343 343 344 344 345 346 346 346 347 348 347 346 345 344 344 344 343
341 339 339 339 340 341 344 346 348 349 349 349 349 349 349 349 348 347 345 344 344 344 343 343 343 343 344 344 344 345 345 345 346 346 346 346 345 345 344 345 345 344
342 340 338 338 338 339 340 343 346 348 349 348 348 348 349 348 348 347 346 345 344 344 344 344 344 344 345 346 346 345 344 344 344 344 344 344 344 345 344 344 345 345
342 341 339 337 337 338 338 339 343 347 348 348 348 348 348 348 347 347 345 344 344 344 344 346 345 345 347 348 347 346 345 344 343 342 342 343 343 343 343 344 345 345
342 342 341 339 337 337 337 338 340 344 347 348 347 347 347 347 347 346 345 343 343 343 344 346 346 346 347 348 348 348 347 345 344 343 342 342 342 343 343 343 344 344
343 343 343 342 340 337 336 337 338 341 345 347 347 346 346 345 346 345 344 343 342 342 343 345 346 347 347 348 348 348 347 346 345 343 342 342 342 342 343 343 343 343
344 345 345 345 343 340 337 337 338 339 342 345 346 345 343 343 343 343 342 341 341 341 342 343 345 346 347 348 348 348 347 347 346 345 343 343 342 342 342 342 342 343
345 346 346 346 346 344 341 338 337 338 340 343 344 344 342 341 340 340 340 340 340 340 341 343 344 346 347 348 349 349 348 347 347 346 344 343 342 341 341 340 340 341
345 346 346 347 347 347 345 342 339 338 338 341 344 344 343 341 339 338 337 337 339 340 341 341 343 344 346 347 349 349 349 348 347 346 345 344 342 341 340 339 338 338
344 345 346 347 348 347 347 346 343 340 338 339 341 342 344 343 341 339 336 335 335 336 338 339 339 341 343 345 347 348 348 348 348 347 347 345 344 344 343 342 340 339
344 344 345 345 347 348 348 347 346 343 340 339 338 338 339 339 339 338 335 333 332 332 333 335 336 337 339 342 345 347 348 348 348 347 347 347 346 346 345 345 344 343
344 344 345 344 346 348 349 348 348 347 343 340 338 337 336 334 334 334 332 331 330 330 331 332 334 335 336 339 342 345 346 347 347 347 346 346 346 346 345 345 345 345
346 347 346 345 346 348 349 349 350 349 347 343 340 339 337 335 335 335 334 332 330 330 330 331 333 334 335 339 341 343 344 345 346 346 346 345 345 345 345 345 345 345
347 348 348 349 349 349 349 349 349 350 349 346 342 341 340 339 339 338 338 337 335 333 333 332 333 333 335 339 341 342 344 345 346 346 346 346 345 345 344 344 344 345
348 349 350 351 351 351 350 350 349 349 349 347 345 345 345 344 344 343 343 342 340 338 337 335 335 334 334 338 342 344 345 346 346 346 346 346 346 345 345 344 344 344
349 350 350 351 351 351 351 352 351 350 350 350 349 349 349 348 348 348 347 347 346 344 343 341 339 336 334 336 342 346 346 346 346 346 346 345 345 344 345 344 344 343
348 349 349 350 350 350 351 352 352 352 351 351 350 350 350 350 350 351 350 350 349 349 348 347 345 343 340 339 343 346 348 348 348 348 347 346 345 345 344 344 343 343
347 347 348 348 349 349 349 350 351 352 351 351 351 350 350 350 351 351 351 351 350 350 349 349 348 348 347 346 346 348 349 350 349 349 349 347 346 346 345 344 343 343
344 344 345 346 347 348 349 349 350 350 350 350 350 349 349 349 350 350 350 350 350 350 350 349 349 350 350 349 349 349 350 351 350 350 350 348 347 347 347 345 344 343
338 339 341 343 344 346 347 348 349 350 350 351 350 349 349 348 349 350 350 349 349 350 350 350 351 351 350 350 350 350 350 351 350 350 349 348 348 348 348 347 345 343
330 332 334 336 339 342 345 347 347 348 349 349 349 350 350 349 350 350 350 350 350 350 351 351 351 352 351 351 351 350 350 350 350 350 349 349 349 348 348 347 346 344
326 326 326 327 330 334 339 343 345 345 346 347 347 347 349 350 350 350 351 351 351 351 351 351 351 352 352 351 351 350 350 350 350 350 349 349 348 348 347 347 345 344

ECMWFNIL_850_thetae_108.txt.gz
Theta_e
340 344 346 348 350 352 353 354 353 353 354 354 354 353 350 347 347 348 351 350 345 345 346 344 344 344 345 346 343 346 349 349 354 354 348 347 349 352 352 350 350 351
340 342 344 348 350 350 350 353 354 354 353 353 355 355 351 346 345 344 347 348 346 347 346 342 344 343 345 351 347 346 348 345 350 356 350 347 350 352 353 352 351 350
340 340 342 346 350 349 350 352 353 355 355 354 354 354 352 349 347 344 344 345 346 351 350 346 347 346 346 348 346 348 350 346 349 356 353 349 350 353 353 352 352 352
340 341 342 347 350 351 352 353 353 354 355 355 355 354 353 353 352 348 345 344 345 350 353 350 350 351 348 345 344 349 351 348 349 352 351 351 350 350 352 353 353 353
340 339 341 346 350 352 352 353 354 354 355 356 356 355 353 352 353 353 350 347 344 348 352 351 350 351 349 344 343 348 351 350 351 349 346 349 350 350 352 353 351 351
343 339 339 342 347 351 353 353 354 355 355 355 355 356 354 351 352 355 355 352 350 351 354 354 352 353 353 349 344 347 351 352 353 350 345 347 351 353 355 353 349 348
347 343 342 342 345 350 352 353 354 354 355 355 355 355 355 354 354 354 355 355 354 354 354 355 353 350 352 353 347 345 347 349 350 347 344 346 349 350 352 353 349 347
350 349 347 346 347 349 351 352 353 354 354 354 355 355 355 355 355 355 354 354 355 355 354 354 351 346 350 354 352 348 349 352 352 348 344 345 345 344 346 349 348 346
350 350 350 349 349 349 350 351 352 353 354 354 354 354 354 355 355 355 354 352 353 353 350 351 350 348 352 355 351 349 350 352 355 354 351 349 349 347 347 349 349 348
351 350 350 350 350 349 349 350 351 352 353 353 354 353 354 355 354 355 355 350 350 349 346 347 350 350 353 354 351 350 350 350 351 353 352 352 353 353 352 353 351 350
351 351 350 350 350 349 349 349 349 350 352 353 353 352 353 354 354 355 354 350 349 350 347 346 349 349 350 353 355 355 353 352 353 351 350 350 351 351 349 349 349 350
348 351 351 351 350 349 349 349 348 349 351 352 353 352 353 354 354 354 354 351 349 351 351 348 347 348 348 350 355 356 354 354 354 353 352 351 350 350 350 349 349 350
347 349 351 352 352 351 350 350 349 349 350 351 352 352 353 354 354 353 353 352 349 349 351 349 345 346 346 346 350 354 354 353 353 354 354 352 351 352 353 353 352 352
347 350 350 349 350 350 350 351 352 350 350 350 351 352 353 353 353 353 353 352 351 349 350 349 346 345 345 344 346 350 352 352 352 353 353 353 353 353 353 353 353 352
345 347 348 347 346 346 347 349 351 351 350 350 350 350 352 353 353 352 352 351 352 351 350 349 348 348 349 347 347 349 352 353 352 353 353 353 354 353 353 353 352 352
343 344 345 346 346 346 346 346 348 350 351 350 348 345 346 349 350 352 352 351 351 351 350 347 345 346 347 344 341 344 349 351 353 353 352 351 352 352 352 352 352 351
343 343 344 345 345 346 348 348 347 348 349 349 347 342 339 340 342 346 348 349 349 348 348 346 344 344 344 337 333 336 341 344 348 350 350 349 349 351 351 352 352 352
344 344 344 344 344 344 346 347 347 347 348 349 348 345 341 337 336 337 339 342 346 348 348 347 345 345 343 337 332 334 336 338 343 348 351 350 351 352 352 352 351 351
347 348 347 347 347 347 347 347 346 346 347 348 349 348 345 340 337 336 335 337 342 346 348 347 347 347 342 336 333 334 335 337 339 345 350 350 351 352 352 351 351 350
350 349 349 349 349 350 350 349 347 346 347 349 350 350 349 343 339 338 337 336 338 341 343 344 348 349 343 336 334 335 335 337 338 341 346 349 350 351 350 350 350 348
350 349 349 350 350 350 351 350 349 349 350 350 350 351 350 348 344 343 343 342 340 341 341 342 348 351 347 340 338 338 336 338 339 341 344 347 347 347 346 346 347 346
350 350 350 350 350 350 351 351 350 350 351 352 351 351 351 350 348 349 350 348 346 346 348 349 351 352 350 346 343 342 339 340 342 343 345 346 346 346 346 346 346 345
348 348 349 349 349 349 350 349 349 349 350 351 352 352 352 351 350 351 351 351 350 350 351 352 352 351 350 348 347 346 345 345 345 346 347 347 347 348 349 349 349 347
345 345 346 346 347 348 348 348 347 347 348 350 351 352 352 352 352 352 351 350 351 351 352 353 353 352 350 350 349 349 349 349 349 349 349 350 350 351 351 351 350 349
338 340 342 343 344 345 346 345 345 345 346 347 349 350 351 352 352 352 351 349 349 350 351 353 353 352 351 351 351 350 350 350 350 350 350 351 351 352 353 352 351 350
329 331 334 337 340 342 343 344 344 344 344 346 347 347 348 350 351 351 350 349 350 351 351 352 352 352 351 351 350 350 350 350 350 351 351 351 351 352 353 353 352 352

ECMWFNIL_850_thetae_111.txt.gz
Theta_e
350 352 352 352 352 354 356 355 355 355 354 354 352 352 353 355 355 354 356 355 350 348 347 344 343 343 345 347 345 347 352 354 353 351 350 351 353 356 356 354 353 353
347 352 353 354 354 354 355 355 356 354 352 353 354 352 353 355 354 353 355 355 353 351 349 346 345 342 346 352 349 345 347 348 349 352 352 350 352 355 356 355 354 353
345 350 352 354 354 353 354 355 356 355 352 352 354 354 354 354 353 352 352 352 354 355 352 348 347 344 345 350 347 344 345 345 347 351 352 349 350 355 357 355 354 354
345 348 351 353 353 352 354 355 355 355 353 353 354 354 353 353 354 354 352 349 350 355 354 350 348 348 347 346 344 345 347 347 346 348 348 346 346 352 356 356 355 355
350 349 351 353 353 353 354 354 354 352 352 353 353 353 354 355 356 355 354 350 347 351 355 351 349 352 351 345 343 346 348 348 347 346 345 345 346 351 354 355 356 355
354 352 352 352 352 353 353 354 354 352 351 352 351 352 354 355 356 356 355 354 351 352 356 354 352 354 355 349 344 346 350 351 350 350 348 345 347 352 355 356 356 353
354 353 352 352 352 352 353 353 354 353 353 353 351 352 354 355 356 356 357 357 355 355 355 355 354 354 356 355 348 345 349 351 351 351 348 346 348 352 354 356 355 351
352 352 352 352 351 351 352 353 354 354 354 353 351 353 354 353 353 356 357 356 355 354 354 354 356 354 355 357 353 346 348 351 351 347 344 346 349 348 349 353 354 350
351 351 352 351 350 350 350 351 353 353 354 353 352 353 353 351 351 354 356 355 354 353 354 355 357 355 354 357 357 351 349 352 354 352 349 349 350 350 350 352 354 352
350 350 351 351 349 349 349 350 351 352 353 353 353 353 352 352 351 352 355 355 353 353 353 354 357 356 354 356 358 355 351 351 354 356 355 354 354 355 355 356 356 355
352 351 351 351 350 348 348 348 349 350 352 353 353 353 352 351 351 350 353 354 353 355 356 354 355 356 354 353 357 357 355 354 353 354 354 353 354 354 354 356 356 355
352 352 351 350 350 349 348 348 348 349 351 350 350 351 351 351 351 351 353 355 354 355 356 352 351 354 354 352 356 358 356 356 356 354 354 353 354 354 354 355 355 353
350 353 353 351 351 350 348 348 348 348 349 349 349 350 351 350 351 351 352 355 354 354 355 354 352 354 353 350 354 358 357 357 358 357 356 355 355 356 355 355 355 354
351 352 352 352 353 352 350 350 349 348 348 349 350 351 352 350 350 351 351 353 354 354 354 355 353 354 352 349 351 356 357 357 357 356 356 356 356 356 355 354 354 353
354 354 354 353 353 354 353 352 351 350 349 350 350 351 352 351 350 351 351 351 353 354 353 353 353 353 354 352 351 353 355 355 355 355 356 356 355 355 355 354 353 351
353 355 355 354 353 353 352 351 353 354 353 351 351 351 352 353 352 352 352 351 351 353 352 351 351 351 352 353 352 352 353 354 353 352 354 355 354 354 355 354 353 352
350 352 353 353 354 353 351 348 349 354 355 354 353 352 351 352 353 353 353 351 350 351 352 350 350 349 348 348 348 347 348 350 351 350 350 352 354 354 353 353 352 351
347 348 349 350 351 351 351 350 348 350 353 354 354 353 352 351 351 352 353 352 350 351 351 350 349 348 346 344 344 343 341 342 346 349 349 350 353 353 352 352 352 351
346 346 345 344 344 345 347 349 349 349 350 351 352 354 353 352 350 349 349 350 350 349 349 348 347 345 345 344 344 344 340 336 338 344 347 347 348 351 351 352 353 353
348 348 347 345 344 343 343 345 347 348 348 350 351 351 351 351 350 350 349 347 346 347 347 347 346 346 346 345 344 345 343 337 334 339 346 346 346 348 349 351 353 354
350 351 350 349 348 346 345 346 347 347 346 348 349 349 349 348 348 349 351 349 348 345 344 345 347 348 349 348 347 346 345 340 334 335 342 346 347 347 348 349 351 352
350 351 352 352 351 350 350 351 350 348 347 348 348 349 349 348 347 348 349 350 351 348 346 348 349 350 350 351 350 349 348 344 338 334 336 341 345 348 349 350 351 351
348 349 350 350 351 350 350 352 352 350 349 350 350 349 348 348 350 351 349 348 349 351 351 352 351 350 350 351 351 351 349 346 344 340 338 339 344 348 349 349 350 351
346 347 347 347 348 348 349 349 350 350 351 351 350 350 349 348 350 352 350 346 347 350 351 352 351 351 351 351 351 351 349 348 348 348 347 347 348 350 350 350 351 352
343 344 345 345 345 346 347 347 348 349 349 349 349 349 350 351 351 351 350 348 347 348 350 350 350 349 350 352 353 352 351 350 350 351 351 350 349 348 348 350 352 354
339 340 341 342 343 344 345 345 346 346 346 347 347 348 349 351 351 351 351 351 350 350 350 349 347 346 347 350 351 352 352 352 351 351 351 350 350 349 349 350 351 351

ECMWFNIL_850_thetae_114.txt.gz
Theta_e
349 349 349 350 351 351 351 350 350 351 350 349 350 351 353 354 351 350 351 350 349 347 347 346 345 345 344 344 345 346 346 346 347 348 346 344 343 347 352 354 352 351
348 348 347 349 352 354 353 353 353 352 353 352 350 350 352 352 351 351 353 352 349 348 348 346 345 344 344 344 344 343 344 345 345 346 345 344 344 345 348 352 353 352
343 346 348 350 352 353 354 354 355 354 353 352 350 350 351 350 350 351 353 353 351 350 349 346 346 344 343 344 344 344 345 344 343 345 345 344 345 345 346 351 355 354
340 345 349 352 353 355 355 354 355 354 352 350 349 352 352 350 351 350 350 351 352 352 350 348 347 346 344 344 345 344 344 344 343 343 344 344 345 345 345 350 354 354
340 343 348 351 354 355 354 353 355 355 351 348 348 351 352 351 351 350 347 348 349 350 352 350 347 346 345 344 345 345 344 345 345 344 343 344 344 343 344 349 353 354
346 343 345 350 354 354 353 351 353 354 353 351 350 351 352 351 351 351 350 351 348 348 353 353 348 347 346 345 346 345 344 347 349 347 345 345 345 344 346 351 355 354
353 348 347 351 353 353 353 352 352 354 353 353 352 352 352 352 352 352 352 354 352 350 354 355 351 349 350 351 349 345 345 349 351 350 348 348 347 346 348 353 356 356
354 353 352 353 353 352 353 353 353 354 353 352 351 350 350 351 352 354 354 355 355 354 354 354 352 350 352 354 352 347 345 346 348 349 347 346 345 345 349 351 354 354
354 354 354 354 352 352 353 352 353 354 353 352 351 351 351 350 351 355 354 354 356 356 353 353 354 351 351 353 354 351 347 347 351 350 347 346 344 345 348 347 348 350
352 353 353 353 352 351 351 351 351 353 355 354 352 353 353 350 351 353 351 350 354 354 352 351 353 352 351 353 354 352 347 347 351 352 350 349 349 349 350 349 350 352
351 351 352 352 352 351 349 350 350 350 353 354 353 353 353 351 351 351 349 350 351 351 351 351 351 351 353 354 354 355 352 348 348 350 351 351 353 354 354 354 356 357
351 351 350 350 351 351 349 349 349 349 351 353 353 352 352 352 352 351 350 351 351 350 349 351 351 352 355 354 352 353 354 351 350 351 353 352 353 354 353 353 354 355
351 351 351 351 351 351 350 349 348 348 348 351 353 352 351 351 351 351 351 350 350 350 349 350 351 353 354 355 353 351 351 352 352 352 354 354 354 353 352 353 354 354
350 352 352 352 351 351 350 350 349 348 348 349 351 351 350 350 350 351 351 351 351 352 352 351 351 352 353 354 355 354 353 354 354 353 354 355 355 354 353 354 355 355
353 353 352 352 352 352 351 351 350 349 348 348 349 350 349 349 349 350 351 351 351 353 353 352 352 353 353 353 355 355 355 356 355 354 354 355 355 355 354 354 354 353
356 354 351 352 352 352 353 352 351 351 351 350 349 350 350 349 349 350 351 351 351 352 353 352 352 353 353 353 354 355 355 355 355 354 354 354 353 354 353 353 353 353
353 352 352 353 353 351 352 353 351 351 352 352 350 349 350 351 350 350 350 350 350 351 352 353 353 353 352 352 353 353 354 354 354 353 353 351 351 352 352 352 352 352
351 352 353 354 353 352 353 354 353 351 351 351 352 350 350 351 351 350 350 350 351 352 352 352 353 352 351 350 350 351 350 349 350 351 351 350 350 349 349 350 351 351
351 351 353 354 354 354 354 353 353 353 351 350 350 348 349 351 350 349 351 351 352 353 351 351 352 352 351 349 348 348 347 345 345 347 348 347 348 348 347 349 351 351
348 348 350 351 352 352 352 351 352 354 353 351 349 347 348 349 349 349 351 352 352 353 353 351 350 349 348 348 347 347 346 344 343 345 345 344 345 346 346 346 348 348
349 349 349 349 349 349 350 350 351 352 352 350 349 348 348 348 348 348 351 351 351 351 352 351 349 346 346 346 346 346 345 345 344 345 345 344 343 345 347 347 346 347
350 350 350 350 349 348 348 348 348 348 348 347 346 345 346 348 348 348 349 350 350 350 349 349 347 346 345 346 347 347 346 346 346 346 347 345 343 343 346 348 348 347
350 350 350 350 350 350 350 349 349 347 346 345 343 343 344 345 347 349 349 349 349 349 347 347 347 346 345 346 349 349 348 348 348 349 349 348 345 342 342 344 346 347
348 348 348 348 349 350 350 350 350 349 348 347 347 347 347 347 348 348 348 349 349 348 347 347 347 346 345 346 348 349 349 349 349 350 349 347 345 344 342 341 343 344
344 345 346 347 347 348 349 349 349 349 350 350 350 350 350 350 349 349 349 349 348 348 348 348 348 348 347 348 349 347 347 348 349 349 349 348 346 346 346 345 345 345
341 342 343 344 345 345 346 347 347 347 348 349 349 350 350 350 350 350 350 349 348 349 351 349 348 348 348 349 350 348 346 348 350 350 350 350 349 349 348 348 348 347

ECMWFNIL_850_thetae_117.txt.gz
Theta_e
348 348 349 349 349 348 347 348 346 345 347 346 344 346 348 349 350 348 347 347 346 344 344 346 346 345 344 344 345 346 349 349 348 347 346 344 342 342 344 345 347 350
348 348 348 347 348 348 346 346 345 345 348 347 345 347 349 350 351 349 349 348 347 346 345 345 345 343 343 343 343 344 345 346 345 345 345 344 343 342 343 345 348 349
346 348 347 344 345 348 348 348 347 348 349 349 349 348 349 350 351 350 349 349 349 348 347 346 345 344 344 342 343 343 343 343 344 344 344 343 343 343 344 346 349 350
344 346 345 343 346 349 350 351 351 351 352 352 351 349 348 349 350 349 350 350 350 349 348 347 346 345 344 343 342 344 343 343 344 343 342 343 344 344 344 346 351 353
343 345 345 344 348 350 351 353 353 353 352 351 350 350 349 349 348 348 348 348 349 349 348 348 347 346 346 344 343 343 344 342 343 343 342 343 343 343 343 345 350 354
341 344 344 346 351 352 351 353 354 353 352 350 349 349 350 350 349 350 349 347 347 347 346 347 348 348 347 345 344 344 344 344 343 343 343 343 343 342 342 342 346 352
340 342 343 345 352 355 354 353 353 352 351 351 349 347 348 351 351 350 349 348 347 347 346 346 348 350 348 346 344 345 345 344 344 346 345 345 346 345 344 344 347 352
341 342 341 344 351 355 355 355 353 351 351 352 351 347 347 349 351 350 349 350 349 349 348 347 348 351 349 346 346 347 346 344 345 347 347 347 347 346 345 346 348 351
347 345 341 343 350 354 354 353 352 351 352 353 352 349 347 348 349 350 350 351 350 351 351 350 349 351 351 348 348 349 348 347 346 346 347 347 346 344 343 345 347 349
352 351 346 343 346 351 352 351 351 352 352 353 353 351 349 348 349 349 350 349 349 351 352 352 350 351 352 351 349 349 351 350 350 348 347 348 347 346 345 345 346 348
353 353 353 349 348 351 352 351 351 352 352 353 353 353 350 349 349 349 349 348 348 350 352 352 352 351 352 351 350 350 352 352 351 351 349 348 349 351 350 350 352 353
352 353 354 354 352 352 352 351 351 352 352 352 352 352 352 350 350 349 350 349 348 349 350 351 351 351 350 351 351 353 354 353 353 354 353 351 351 353 353 353 353 353
351 352 352 352 352 352 352 351 350 350 350 350 350 351 352 351 350 350 351 350 349 349 348 349 350 350 350 350 352 354 354 354 353 355 355 353 352 351 351 350 350 350
351 351 351 351 351 352 351 351 349 349 349 349 349 350 350 350 351 351 350 351 350 350 350 350 350 350 350 349 350 353 354 353 353 354 355 354 353 352 351 351 351 352
350 350 350 351 351 350 350 350 349 349 348 348 348 348 349 350 350 349 348 349 349 350 350 350 351 352 352 351 351 352 353 353 353 354 355 355 354 354 354 353 353 353
352 352 351 351 351 351 351 351 350 349 349 348 348 348 350 350 350 350 349 349 349 350 350 351 352 352 353 353 353 353 353 352 352 353 354 355 354 354 354 354 353 353
352 353 352 351 352 352 352 351 350 349 350 349 348 348 350 351 351 350 350 350 350 351 351 352 352 351 350 351 353 354 354 353 352 352 352 353 354 353 353 352 351 351
349 350 349 350 351 351 352 352 351 351 351 351 349 349 350 350 350 350 350 350 350 351 352 352 352 351 349 350 352 353 353 353 353 351 351 351 352 351 350 348 349 349
350 349 349 349 349 350 352 352 352 351 351 351 351 351 351 351 349 350 350 349 349 350 351 351 350 350 349 349 352 352 351 351 351 351 349 347 348 349 347 347 347 348
352 351 350 349 348 350 353 353 352 351 350 350 350 351 352 353 351 350 350 350 350 349 350 350 349 349 349 349 351 351 350 349 349 350 349 347 346 346 345 344 346 347
348 348 348 348 349 350 354 355 353 352 352 351 350 350 351 352 352 351 351 351 350 349 349 350 349 349 349 350 350 350 350 349 347 348 349 348 346 346 344 343 344 345
346 346 346 347 348 349 351 352 353 354 354 354 353 351 350 350 350 350 350 351 351 350 350 352 351 351 351 351 349 349 348 348 346 346 347 347 347 347 345 344 343 343
350 349 349 348 348 348 349 349 349 350 352 353 353 352 351 351 351 349 348 349 350 350 351 352 352 352 352 352 351 348 345 346 346 345 345 346 347 346 346 346 344 342
350 350 350 350 350 350 350 350 350 349 349 349 350 350 350 350 350 350 348 347 347 347 348 349 349 350 350 351 349 347 345 345 346 346 345 346 346 346 347 347 346 342
346 347 348 348 348 349 349 349 349 350 350 349 349 349 349 348 347 347 346 345 344 344 344 345 347 349 350 350 349 346 345 346 347 348 347 347 348 349 348 347 346 346
342 343 344 345 345 346 347 347 348 349 350 350 350 350 349 349 348 347 346 346 346 346 346 347 348 349 350 350 348 347 345 345 347 349 349 349 349 347 346 346 347 348

ECMWFNIL_850_thetae_120.txt.gz
Theta_e
347 348 347 346 347 348 348 348 347 348 347 345 343 341 342 344 345 341 340 341 342 342 343 343 344 345 344 345 346 345 346 348 347 345 343 342 341 341 341 342 344 346
345 346 347 348 347 347 347 347 347 346 345 345 344 342 343 346 347 345 342 343 344 343 343 343 344 345 344 344 345 345 345 347 348 346 344 343 343 342 342 342 344 346
345 346 348 349 346 346 347 347 347 346 344 344 344 343 344 346 349 348 345 345 346 345 344 343 344 345 343 343 343 343 342 343 345 344 343 343 343 343 342 342 344 347
344 345 348 348 346 345 347 347 346 344 344 345 344 343 344 345 348 349 347 346 347 347 346 345 345 345 344 343 342 342 342 342 343 343 343 343 343 343 344 343 343 347
343 343 344 345 345 346 347 346 345 343 343 345 345 345 344 345 347 348 347 346 347 348 348 347 346 345 344 344 343 342 343 343 343 343 342 342 342 343 344 343 344 348
344 342 341 342 344 346 347 345 344 344 344 345 346 347 347 346 346 346 346 346 347 347 348 348 346 346 345 345 344 343 342 343 343 343 342 343 344 343 343 343 344 347
343 343 341 340 342 345 346 346 346 346 347 347 348 348 348 347 347 347 347 347 347 346 346 345 346 346 347 345 344 343 343 343 343 343 343 344 345 344 343 343 343 343
342 343 343 341 342 345 346 347 347 348 349 350 350 348 348 348 348 348 349 349 348 347 345 344 345 346 348 348 346 344 344 344 344 343 344 346 346 345 345 345 345 344
341 342 343 343 343 344 347 349 349 349 351 351 350 350 349 348 347 348 350 349 349 348 347 347 346 345 348 350 348 347 347 347 346 344 344 345 346 346 345 344 344 345
342 342 342 344 344 344 348 352 353 353 353 351 351 351 350 348 347 349 350 350 349 350 349 350 348 347 349 351 349 348 349 350 349 347 345 345 346 346 346 346 344 344
344 344 343 342 343 345 349 352 354 355 354 352 351 352 351 349 349 349 350 349 349 350 350 351 350 349 349 350 350 349 349 349 350 350 347 347 347 348 350 351 350 347
347 348 347 344 342 344 348 352 354 354 353 352 351 352 352 351 351 349 349 348 348 348 349 350 350 350 351 350 351 351 350 349 350 351 351 350 350 350 352 354 354 352
351 352 351 349 346 344 347 351 352 352 351 351 352 352 351 351 351 350 349 348 347 348 348 349 349 349 351 351 351 351 351 350 350 352 352 352 352 352 352 353 354 354
353 354 353 352 351 348 347 348 350 350 351 351 351 351 351 350 351 350 350 349 349 349 349 349 348 348 349 350 350 351 351 351 352 352 352 352 352 351 351 352 353 353
351 352 352 352 353 352 350 349 350 351 351 350 350 350 350 350 349 349 350 350 350 350 350 350 349 349 349 349 349 350 350 351 352 353 352 352 352 351 352 353 353 353
351 351 351 352 353 353 353 352 351 352 351 350 350 350 349 350 350 349 349 350 350 350 350 351 350 350 349 349 349 349 349 349 351 352 352 352 352 352 353 353 353 353
351 350 350 351 352 353 352 352 352 351 351 350 350 349 348 348 350 350 350 350 351 350 350 350 350 350 349 349 350 349 350 350 349 350 352 352 352 353 353 353 352 351
349 349 349 349 351 352 352 351 351 350 350 350 349 349 349 348 349 350 350 350 351 350 349 349 349 350 350 350 350 350 350 351 350 350 351 352 351 351 351 350 349 348
349 349 348 348 349 351 352 352 352 351 351 350 350 349 349 348 348 348 348 349 350 349 349 349 349 349 350 350 350 350 350 351 351 351 351 352 351 350 350 349 348 347
352 351 350 347 347 350 351 352 352 352 352 351 351 351 351 350 348 348 349 350 350 350 350 349 349 349 350 350 350 350 350 351 352 351 351 351 351 350 349 349 347 346
350 347 344 345 347 348 350 352 354 353 352 352 352 352 352 351 350 350 351 351 351 351 350 350 349 349 349 350 349 349 349 350 351 351 350 350 350 350 350 350 348 346
348 344 344 347 349 349 349 352 353 354 353 354 353 353 352 351 350 350 350 350 351 350 350 350 350 349 349 350 349 349 349 349 350 350 349 349 349 350 351 351 348 346
346 346 347 348 348 348 348 350 351 352 353 353 353 353 353 352 351 350 349 349 349 350 350 350 350 349 349 349 349 350 349 349 349 349 349 349 349 350 352 351 349 347
344 343 344 344 344 345 346 348 348 349 350 350 351 351 352 353 353 352 352 351 350 350 350 350 350 350 349 349 349 350 350 350 350 350 348 348 348 348 349 349 348 348
346 345 344 343 344 345 346 347 347 348 348 348 349 349 349 350 351 352 352 352 351 351 350 350 350 350 349 349 350 351 351 351 351 350 349 347 346 346 346 346 346 347
345 345 345 345 346 347 348 348 347 347 348 348 349 349 348 348 349 349 349 350 350 350 350 350 349 349 348 348 348 349 350 350 350 350 349 347 345 346 346 346 345 346